Darstellungsparameter: Aktuell verwendete Einstellungen:
Skalierung der Graphiken ... ?
xyx+y,   Skalierungsfaktor:      Skalierung: Modus: x, Faktor: 1
Darstellungszeitraum ... ?
Vom - - bis: - -   Zeitraum: 16.05.2019 - 15.08.2019
Min/Max/Avg-Anzeige ... ?
Zeige MMA aktuell
Zeige MMA Monat
Zeige MMA alles
Zeige --A aktuell
Zeige --A Monat
Zeige --A alles
Keine MMA-Anzeige
MMA:
Keine MMA-Graphiken
MMA-Basis: 16.05.2019 - 15.08.2019
Quicknavigation für Darstellung... ?
Tage:      1T, 2T, 3T, 5T -1T -2T -3T -5T +1T +2T +3T +5T
Wochen: 1W, 2W, 3W -1W -2W -3W +1W +2W +3W
Monate: 1M, 3M, 6M -1M -3M -6M +1M +3M +6M
Jahre:    1J, 3J, 5J, 10J -1J -3J -5J -10J +1J +3J +5J +10J
Nutze für die Darstellung ... ?
Originaldaten oder Mittelwerte auf ...
Stundenbasis Tagesbasis Wochenbasis
Monatsbasis Jahresbasis      Datenbasis: Original-Daten
Darstellen als:
Statistik (Auto) Statistik J:M      Darstellung:
Zur Graphik,    zurück zur Übersicht aller Sensoren.
 
Tabellarische Datenbersicht: ?
 
Sensor: Nr:Datum:Temp:Feuchte:Taupunkt:
Aussen-T/F 1 16-05-2019 00:00:00 7.6 C 65 % 1.45 C
2 16-05-2019 00:05:00 7.5 C 65 % 1.36 C
3 16-05-2019 00:10:00 7.5 C 65 % 1.36 C
4 16-05-2019 00:15:00 7.4 C 65 % 1.26 C
5 16-05-2019 00:20:00 7.4 C 66 % 1.48 C
6 16-05-2019 00:25:00 7.4 C 67 % 1.69 C
7 16-05-2019 00:30:00 7.4 C 66 % 1.48 C
8 16-05-2019 00:35:00 7.4 C 67 % 1.69 C
9 16-05-2019 00:40:00 7.4 C 67 % 1.69 C
10 16-05-2019 00:45:00 7.3 C 68 % 1.8 C
11 16-05-2019 00:50:00 7.2 C 68 % 1.7 C
12 16-05-2019 00:55:00 7.2 C 70 % 2.11 C
13 16-05-2019 01:00:00 7.1 C 69 % 1.81 C
14 16-05-2019 01:05:00 7 C 70 % 1.91 C
15 16-05-2019 01:10:00 6.9 C 72 % 2.21 C
16 16-05-2019 01:15:00 6.9 C 72 % 2.21 C
17 16-05-2019 01:20:00 6.8 C 74 % 2.5 C
18 16-05-2019 01:25:00 6.7 C 73 % 2.21 C
19 16-05-2019 01:30:00 6.7 C 74 % 2.4 C
20 16-05-2019 01:35:00 6.6 C 75 % 2.49 C
21 16-05-2019 01:40:00 6.4 C 75 % 2.3 C
22 16-05-2019 01:45:00 6.3 C 75 % 2.2 C
23 16-05-2019 01:50:00 6.2 C 76 % 2.29 C
24 16-05-2019 01:55:00 6.1 C 76 % 2.2 C
25 16-05-2019 02:00:00 6 C 77 % 2.28 C
Sensor: Nr:Datum:Temp:Feuchte:Taupunkt:
Aussen-T/F 26 16-05-2019 02:05:00 5.9 C 77 % 2.19 C
27 16-05-2019 02:10:00 5.9 C 77 % 2.19 C
28 16-05-2019 02:15:00 5.9 C 78 % 2.37 C
29 16-05-2019 02:20:00 5.8 C 79 % 2.45 C
30 16-05-2019 02:25:00 5.8 C 79 % 2.45 C
31 16-05-2019 02:30:00 5.7 C 79 % 2.35 C
32 16-05-2019 02:35:00 5.6 C 79 % 2.25 C
33 16-05-2019 02:40:00 5.6 C 79 % 2.25 C
34 16-05-2019 02:45:00 5.5 C 80 % 2.33 C
35 16-05-2019 02:50:00 5.5 C 80 % 2.33 C
36 16-05-2019 02:55:00 5.5 C 81 % 2.51 C
37 16-05-2019 03:00:00 5.5 C 82 % 2.68 C
38 16-05-2019 03:05:00 5.5 C 81 % 2.51 C
39 16-05-2019 03:10:00 5.6 C 82 % 2.78 C
40 16-05-2019 03:15:00 5.6 C 82 % 2.78 C
41 16-05-2019 03:20:00 5.6 C 82 % 2.78 C
42 16-05-2019 03:25:00 5.6 C 82 % 2.78 C
43 16-05-2019 03:30:00 5.6 C 82 % 2.78 C
44 16-05-2019 03:35:00 5.6 C 82 % 2.78 C
45 16-05-2019 03:40:00 5.6 C 82 % 2.78 C
46 16-05-2019 03:45:00 5.6 C 83 % 2.95 C
47 16-05-2019 03:50:00 5.6 C 83 % 2.95 C
48 16-05-2019 03:55:00 5.6 C 83 % 2.95 C
49 16-05-2019 04:00:00 5.6 C 83 % 2.95 C
50 16-05-2019 04:05:00 5.7 C 83 % 3.04 C
Sensor: Nr:Datum:Temp:Feuchte:Taupunkt:
Aussen-T/F 51 16-05-2019 04:10:00 5.7 C 83 % 3.04 C
52 16-05-2019 04:15:00 5.7 C 84 % 3.21 C
53 16-05-2019 04:20:00 5.7 C 84 % 3.21 C
54 16-05-2019 04:25:00 5.7 C 84 % 3.21 C
55 16-05-2019 04:30:00 5.7 C 84 % 3.21 C
56 16-05-2019 04:35:00 5.7 C 83 % 3.04 C
57 16-05-2019 04:40:00 5.7 C 83 % 3.04 C
58 16-05-2019 04:45:00 5.8 C 84 % 3.31 C
59 16-05-2019 04:50:00 5.8 C 84 % 3.31 C
60 16-05-2019 04:55:00 5.8 C 84 % 3.31 C
61 16-05-2019 05:00:00 5.8 C 84 % 3.31 C
62 16-05-2019 05:05:00 5.8 C 84 % 3.31 C
63 16-05-2019 05:10:00 5.8 C 84 % 3.31 C
64 16-05-2019 05:15:00 5.8 C 84 % 3.31 C
65 16-05-2019 05:20:00 5.8 C 85 % 3.48 C
66 16-05-2019 05:25:00 5.8 C 84 % 3.31 C
67 16-05-2019 05:30:00 5.8 C 84 % 3.31 C
68 16-05-2019 05:35:00 5.8 C 84 % 3.31 C
69 16-05-2019 05:40:00 5.9 C 84 % 3.41 C
70 16-05-2019 05:45:00 5.9 C 84 % 3.41 C
71 16-05-2019 05:50:00 5.9 C 84 % 3.41 C
72 16-05-2019 05:55:00 5.9 C 84 % 3.41 C
73 16-05-2019 06:00:00 5.9 C 84 % 3.41 C
74 16-05-2019 06:05:00 5.9 C 85 % 3.58 C
75 16-05-2019 06:10:00 5.9 C 85 % 3.58 C
Sensor: Nr:Datum:Temp:Feuchte:Taupunkt:
Aussen-T/F 76 16-05-2019 06:15:00 5.9 C 85 % 3.58 C
77 16-05-2019 06:20:00 5.9 C 85 % 3.58 C
78 16-05-2019 06:25:00 5.9 C 85 % 3.58 C
79 16-05-2019 06:30:00 6 C 86 % 3.84 C
80 16-05-2019 06:35:00 6 C 86 % 3.84 C
81 16-05-2019 06:40:00 6 C 86 % 3.84 C
82 16-05-2019 06:45:00 6 C 86 % 3.84 C
83 16-05-2019 06:50:00 6 C 86 % 3.84 C
84 16-05-2019 06:55:00 6 C 86 % 3.84 C
85 16-05-2019 07:00:00 6.1 C 86 % 3.94 C
86 16-05-2019 07:05:00 6.1 C 86 % 3.94 C
87 16-05-2019 07:10:00 6.2 C 85 % 3.87 C
88 16-05-2019 07:15:00 6.3 C 85 % 3.97 C
89 16-05-2019 07:20:00 6.4 C 85 % 4.07 C
90 16-05-2019 07:25:00 6.6 C 85 % 4.26 C
91 16-05-2019 07:30:00 6.7 C 85 % 4.36 C
92 16-05-2019 07:35:00 6.8 C 85 % 4.46 C
93 16-05-2019 07:40:00 6.9 C 85 % 4.56 C
94 16-05-2019 07:45:00 7.1 C 85 % 4.75 C
95 16-05-2019 07:50:00 7.2 C 85 % 4.85 C
96 16-05-2019 07:55:00 7.3 C 85 % 4.95 C
97 16-05-2019 08:00:00 7.4 C 84 % 4.88 C
98 16-05-2019 08:05:00 7.4 C 84 % 4.88 C
99 16-05-2019 08:10:00 7.5 C 84 % 4.98 C
100 16-05-2019 08:15:00 7.7 C 84 % 5.17 C
Sensor: Nr:Datum:Temp:Feuchte:Taupunkt:
Aussen-T/F 101 16-05-2019 08:20:00 7.7 C 82 % 4.83 C
102 16-05-2019 08:25:00 7.8 C 83 % 5.1 C
103 16-05-2019 08:30:00 8 C 84 % 5.47 C
104 16-05-2019 08:35:00 8.2 C 84 % 5.66 C
105 16-05-2019 08:40:00 8.3 C 82 % 5.41 C
106 16-05-2019 08:45:00 8.4 C 80 % 5.16 C
107 16-05-2019 08:50:00 8.6 C 81 % 5.53 C
108 16-05-2019 08:55:00 8.8 C 82 % 5.9 C
109 16-05-2019 09:00:00 8.9 C 81 % 5.82 C
110 16-05-2019 09:05:00 9.1 C 79 % 5.66 C
111 16-05-2019 09:10:00 9.3 C 76 % 5.29 C
112 16-05-2019 09:15:00 9.5 C 75 % 5.3 C
113 16-05-2019 09:20:00 9.7 C 74 % 5.3 C
114 16-05-2019 09:25:00 9.9 C 73 % 5.29 C
115 16-05-2019 09:30:00 10.1 C 73 % 5.49 C
116 16-05-2019 09:35:00 10.2 C 71 % 5.18 C
117 16-05-2019 09:40:00 10.4 C 71 % 5.38 C
118 16-05-2019 09:45:00 10.6 C 71 % 5.57 C
119 16-05-2019 09:50:00 10.8 C 65 % 4.49 C
120 16-05-2019 09:55:00 10.9 C 64 % 4.37 C
121 16-05-2019 10:00:00 11 C 65 % 4.68 C
122 16-05-2019 10:05:00 11.2 C 65 % 4.87 C
123 16-05-2019 10:10:00 11.3 C 64 % 4.75 C
124 16-05-2019 10:15:00 11.5 C 64 % 4.94 C
125 16-05-2019 10:20:00 11.7 C 64 % 5.13 C
Sensor: Nr:Datum:Temp:Feuchte:Taupunkt:
Aussen-T/F 126 16-05-2019 10:25:00 11.8 C 65 % 5.44 C
127 16-05-2019 10:30:00 11.8 C 63 % 5 C
128 16-05-2019 10:35:00 11.8 C 63 % 5 C
129 16-05-2019 10:40:00 11.9 C 61 % 4.63 C
130 16-05-2019 10:45:00 11.9 C 60 % 4.39 C
131 16-05-2019 10:50:00 11.9 C 62 % 4.86 C
132 16-05-2019 10:55:00 12.1 C 59 % 4.34 C
133 16-05-2019 11:00:00 12.1 C 59 % 4.34 C
134 16-05-2019 11:05:00 12.1 C 58 % 4.1 C
135 16-05-2019 11:10:00 12.1 C 59 % 4.34 C
136 16-05-2019 11:15:00 12.1 C 59 % 4.34 C
137 16-05-2019 11:20:00 12.1 C 58 % 4.1 C
138 16-05-2019 11:25:00 12.1 C 59 % 4.34 C
139 16-05-2019 11:30:00 12.2 C 58 % 4.19 C
140 16-05-2019 11:35:00 12.2 C 57 % 3.94 C
141 16-05-2019 11:40:00 12.3 C 58 % 4.28 C
142 16-05-2019 11:45:00 12.3 C 59 % 4.53 C
143 16-05-2019 11:50:00 12.4 C 59 % 4.62 C
144 16-05-2019 11:55:00 12.5 C 60 % 4.96 C
145 16-05-2019 12:00:00 12.7 C 59 % 4.9 C
146 16-05-2019 12:05:00 12.7 C 58 % 4.66 C
147 16-05-2019 12:10:00 12.7 C 59 % 4.9 C
148 16-05-2019 12:15:00 12.9 C 58 % 4.85 C
149 16-05-2019 12:20:00 12.9 C 59 % 5.09 C
150 16-05-2019 12:25:00 12.9 C 59 % 5.09 C
Sensor: Nr:Datum:Temp:Feuchte:Taupunkt:
Aussen-T/F 151 16-05-2019 12:30:00 13.1 C 59 % 5.28 C
152 16-05-2019 12:35:00 13.2 C 59 % 5.37 C
153 16-05-2019 12:40:00 13.2 C 60 % 5.61 C
154 16-05-2019 12:45:00 13.6 C 60 % 5.99 C
155 16-05-2019 12:50:00 13.8 C 58 % 5.69 C
156 16-05-2019 12:55:00 13.9 C 58 % 5.78 C
157 16-05-2019 13:00:00 13.9 C 58 % 5.78 C
158 16-05-2019 13:05:00 14.2 C 57 % 5.81 C
159 16-05-2019 13:10:00 14.3 C 57 % 5.91 C
160 16-05-2019 13:15:00 14.6 C 56 % 5.93 C
161 16-05-2019 13:20:00 14.8 C 58 % 6.63 C
162 16-05-2019 13:25:00 15.1 C 57 % 6.65 C
163 16-05-2019 13:30:00 15.1 C 55 % 6.14 C
164 16-05-2019 13:35:00 14.9 C 56 % 6.21 C
165 16-05-2019 13:40:00 14.9 C 57 % 6.47 C
166 16-05-2019 13:45:00 14.8 C 56 % 6.12 C
167 16-05-2019 13:50:00 14.8 C 56 % 6.12 C
168 16-05-2019 13:55:00 14.8 C 57 % 6.37 C
169 16-05-2019 14:00:00 14.8 C 56 % 6.12 C
170 16-05-2019 14:05:00 14.9 C 56 % 6.21 C
171 16-05-2019 14:10:00 14.9 C 57 % 6.47 C
172 16-05-2019 14:15:00 14.9 C 56 % 6.21 C
173 16-05-2019 14:20:00 15.1 C 57 % 6.65 C
174 16-05-2019 14:25:00 15.3 C 55 % 6.32 C
175 16-05-2019 14:30:00 15.5 C 57 % 7.03 C
Sensor: Nr:Datum:Temp:Feuchte:Taupunkt:
Aussen-T/F 176 16-05-2019 14:35:00 15.6 C 56 % 6.86 C
177 16-05-2019 14:40:00 15.7 C 57 % 7.21 C
178 16-05-2019 14:45:00 15.8 C 54 % 6.52 C
179 16-05-2019 14:50:00 16 C 55 % 6.97 C
180 16-05-2019 14:55:00 16.3 C 54 % 6.98 C
181 16-05-2019 15:00:00 16.4 C 55 % 7.35 C
182 16-05-2019 15:05:00 16.6 C 55 % 7.53 C
183 16-05-2019 15:10:00 17 C 53 % 7.36 C
184 16-05-2019 15:15:00 17.2 C 53 % 7.55 C
185 16-05-2019 15:20:00 17.4 C 52 % 7.45 C
186 16-05-2019 15:25:00 17.3 C 52 % 7.36 C
187 16-05-2019 15:30:00 17.3 C 52 % 7.36 C
188 16-05-2019 15:35:00 17.4 C 52 % 7.45 C
189 16-05-2019 15:40:00 17.7 C 52 % 7.73 C
190 16-05-2019 15:45:00 17.9 C 50 % 7.34 C
191 16-05-2019 15:50:00 18.1 C 49 % 7.23 C
192 16-05-2019 15:55:00 18.3 C 50 % 7.71 C
193 16-05-2019 16:00:00 18.6 C 49 % 7.69 C
194 16-05-2019 16:05:00 18.4 C 50 % 7.8 C
195 16-05-2019 16:10:00 18.5 C 50 % 7.89 C
196 16-05-2019 16:15:00 18.4 C 49 % 7.5 C
197 16-05-2019 16:20:00 18.6 C 49 % 7.69 C
198 16-05-2019 16:25:00 18.3 C 49 % 7.41 C
199 16-05-2019 16:30:00 18.4 C 50 % 7.8 C
200 16-05-2019 16:35:00 18.4 C 50 % 7.8 C
Sensor: Nr:Datum:Temp:Feuchte:Taupunkt:
Aussen-T/F 201 16-05-2019 16:40:00 18.2 C 49 % 7.32 C
202 16-05-2019 16:45:00 17.9 C 50 % 7.34 C
203 16-05-2019 16:50:00 17.7 C 50 % 7.16 C
204 16-05-2019 16:55:00 17.4 C 51 % 7.17 C
205 16-05-2019 17:00:00 17.3 C 51 % 7.08 C
206 16-05-2019 17:05:00 17.2 C 53 % 7.55 C
207 16-05-2019 17:10:00 17.1 C 53 % 7.45 C
208 16-05-2019 17:15:00 17.1 C 53 % 7.45 C
209 16-05-2019 17:20:00 17 C 53 % 7.36 C
210 16-05-2019 17:25:00 16.9 C 54 % 7.54 C
211 16-05-2019 17:30:00 16.9 C 54 % 7.54 C
212 16-05-2019 17:35:00 16.8 C 54 % 7.45 C
213 16-05-2019 17:40:00 16.8 C 54 % 7.45 C
214 16-05-2019 17:45:00 16.7 C 55 % 7.62 C
215 16-05-2019 17:50:00 16.6 C 56 % 7.8 C
216 16-05-2019 17:55:00 16.5 C 58 % 8.22 C
217 16-05-2019 18:00:00 16.2 C 59 % 8.19 C
218 16-05-2019 18:05:00 16 C 59 % 8 C
219 16-05-2019 18:10:00 15.8 C 60 % 8.06 C
220 16-05-2019 18:15:00 15.8 C 61 % 8.3 C
221 16-05-2019 18:20:00 15.7 C 61 % 8.21 C
222 16-05-2019 18:25:00 15.4 C 61 % 7.93 C
223 16-05-2019 18:30:00 15.3 C 62 % 8.07 C
224 16-05-2019 18:35:00 15.2 C 62 % 7.98 C
225 16-05-2019 18:40:00 15.1 C 62 % 7.88 C
Sensor: Nr:Datum:Temp:Feuchte:Taupunkt:
Aussen-T/F 226 16-05-2019 18:45:00 15 C 63 % 8.02 C
227 16-05-2019 18:50:00 14.9 C 64 % 8.16 C
228 16-05-2019 18:55:00 14.9 C 65 % 8.39 C
229 16-05-2019 19:00:00 14.8 C 65 % 8.29 C
230 16-05-2019 19:05:00 14.6 C 65 % 8.1 C
231 16-05-2019 19:10:00 14.5 C 66 % 8.23 C
232 16-05-2019 19:15:00 14.4 C 67 % 8.36 C
233 16-05-2019 19:20:00 14.3 C 66 % 8.04 C
234 16-05-2019 19:25:00 14.1 C 68 % 8.29 C
235 16-05-2019 19:30:00 14 C 68 % 8.19 C
236 16-05-2019 19:35:00 13.9 C 70 % 8.53 C
237 16-05-2019 19:40:00 13.8 C 70 % 8.43 C
238 16-05-2019 19:45:00 13.7 C 70 % 8.33 C
239 16-05-2019 19:50:00 13.5 C 71 % 8.35 C
240 16-05-2019 19:55:00 13.3 C 71 % 8.16 C
241 16-05-2019 20:00:00 13.2 C 71 % 8.06 C
242 16-05-2019 20:05:00 13.1 C 72 % 8.17 C
243 16-05-2019 20:10:00 13 C 72 % 8.08 C
244 16-05-2019 20:15:00 12.9 C 72 % 7.98 C
245 16-05-2019 20:20:00 12.8 C 73 % 8.09 C
246 16-05-2019 20:25:00 12.6 C 73 % 7.89 C
247 16-05-2019 20:30:00 12.5 C 74 % 8 C
248 16-05-2019 20:35:00 12.4 C 74 % 7.9 C
249 16-05-2019 20:40:00 12.3 C 74 % 7.8 C
250 16-05-2019 20:45:00 12.2 C 74 % 7.71 C
Sensor: Nr:Datum:Temp:Feuchte:Taupunkt:
Aussen-T/F 251 16-05-2019 20:50:00 12 C 74 % 7.52 C
252 16-05-2019 20:55:00 11.8 C 75 % 7.52 C
253 16-05-2019 21:00:00 11.7 C 75 % 7.42 C
254 16-05-2019 21:05:00 11.6 C 75 % 7.33 C
255 16-05-2019 21:10:00 11.5 C 76 % 7.42 C
256 16-05-2019 21:15:00 11.4 C 75 % 7.13 C
257 16-05-2019 21:20:00 11.3 C 75 % 7.04 C
258 16-05-2019 21:25:00 11.2 C 76 % 7.13 C
259 16-05-2019 21:30:00 11.1 C 76 % 7.04 C
260 16-05-2019 21:35:00 11.1 C 76 % 7.04 C
261 16-05-2019 21:40:00 10.9 C 76 % 6.84 C
262 16-05-2019 21:45:00 10.8 C 77 % 6.94 C
263 16-05-2019 21:50:00 10.8 C 77 % 6.94 C
264 16-05-2019 21:55:00 10.7 C 78 % 7.03 C
265 16-05-2019 22:00:00 10.7 C 79 % 7.21 C
266 16-05-2019 22:05:00 10.6 C 79 % 7.11 C
267 16-05-2019 22:10:00 10.5 C 80 % 7.2 C
268 16-05-2019 22:15:00 10.4 C 81 % 7.28 C
269 16-05-2019 22:20:00 10.3 C 81 % 7.19 C
270 16-05-2019 22:25:00 10.2 C 82 % 7.27 C
271 16-05-2019 22:30:00 10.2 C 83 % 7.45 C
272 16-05-2019 22:35:00 10.1 C 83 % 7.35 C
273 16-05-2019 22:40:00 10 C 82 % 7.07 C
274 16-05-2019 22:45:00 10 C 84 % 7.43 C
275 16-05-2019 22:50:00 9.9 C 83 % 7.15 C
Sensor: Nr:Datum:Temp:Feuchte:Taupunkt:
Aussen-T/F 276 16-05-2019 22:55:00 9.9 C 84 % 7.33 C
277 16-05-2019 23:00:00 9.8 C 83 % 7.05 C
278 16-05-2019 23:05:00 9.8 C 84 % 7.23 C
279 16-05-2019 23:10:00 9.8 C 85 % 7.4 C
280 16-05-2019 23:15:00 9.8 C 85 % 7.4 C
281 16-05-2019 23:20:00 9.7 C 85 % 7.3 C
282 16-05-2019 23:25:00 9.6 C 86 % 7.38 C
283 16-05-2019 23:30:00 9.6 C 86 % 7.38 C
284 16-05-2019 23:35:00 9.6 C 87 % 7.55 C
285 16-05-2019 23:40:00 9.5 C 88 % 7.61 C
286 16-05-2019 23:45:00 9.4 C 89 % 7.68 C
287 16-05-2019 23:50:00 9.4 C 89 % 7.68 C
288 16-05-2019 23:55:00 9.3 C 89 % 7.58 C
289 17-05-2019 00:00:00 9.3 C 90 % 7.75 C
290 17-05-2019 00:05:00 9.2 C 90 % 7.65 C
291 17-05-2019 00:10:00 9.2 C 90 % 7.65 C
292 17-05-2019 00:15:00 9.2 C 90 % 7.65 C
293 17-05-2019 00:20:00 9.1 C 91 % 7.71 C
294 17-05-2019 00:25:00 9.1 C 91 % 7.71 C
295 17-05-2019 00:30:00 9.1 C 91 % 7.71 C
296 17-05-2019 00:35:00 9 C 91 % 7.61 C
297 17-05-2019 00:40:00 9 C 91 % 7.61 C
298 17-05-2019 00:45:00 9 C 92 % 7.77 C
299 17-05-2019 00:50:00 8.9 C 92 % 7.67 C
300 17-05-2019 00:55:00 8.9 C 92 % 7.67 C
Sensor: Nr:Datum:Temp:Feuchte:Taupunkt:
Aussen-T/F 301 17-05-2019 01:00:00 8.9 C 92 % 7.67 C
302 17-05-2019 01:05:00 8.9 C 92 % 7.67 C
303 17-05-2019 01:10:00 8.9 C 92 % 7.67 C
304 17-05-2019 01:15:00 8.8 C 92 % 7.57 C
305 17-05-2019 01:20:00 8.8 C 92 % 7.57 C
306 17-05-2019 01:25:00 8.8 C 93 % 7.73 C
307 17-05-2019 01:30:00 8.8 C 92 % 7.57 C
308 17-05-2019 01:35:00 8.8 C 93 % 7.73 C
309 17-05-2019 01:40:00 8.7 C 93 % 7.63 C
310 17-05-2019 01:45:00 8.7 C 93 % 7.63 C
311 17-05-2019 01:50:00 8.7 C 93 % 7.63 C
312 17-05-2019 01:55:00 8.7 C 93 % 7.63 C
313 17-05-2019 02:00:00 8.7 C 93 % 7.63 C
314 17-05-2019 02:05:00 8.7 C 93 % 7.63 C
315 17-05-2019 02:10:00 8.7 C 93 % 7.63 C
316 17-05-2019 02:15:00 8.7 C 94 % 7.79 C
317 17-05-2019 02:20:00 8.7 C 93 % 7.63 C
318 17-05-2019 02:25:00 8.7 C 94 % 7.79 C
319 17-05-2019 02:30:00 8.7 C 94 % 7.79 C
320 17-05-2019 02:35:00 8.7 C 94 % 7.79 C
321 17-05-2019 02:40:00 8.7 C 94 % 7.79 C
322 17-05-2019 02:45:00 8.7 C 94 % 7.79 C
323 17-05-2019 02:50:00 8.7 C 94 % 7.79 C
324 17-05-2019 02:55:00 8.7 C 94 % 7.79 C
325 17-05-2019 03:00:00 8.7 C 94 % 7.79 C
Sensor: Nr:Datum:Temp:Feuchte:Taupunkt:
Aussen-T/F 326 17-05-2019 03:05:00 8.7 C 94 % 7.79 C
327 17-05-2019 03:10:00 8.7 C 94 % 7.79 C
328 17-05-2019 03:15:00 8.7 C 94 % 7.79 C
329 17-05-2019 03:20:00 8.6 C 94 % 7.69 C
330 17-05-2019 03:25:00 8.6 C 94 % 7.69 C
331 17-05-2019 03:30:00 8.6 C 94 % 7.69 C
332 17-05-2019 03:35:00 8.6 C 94 % 7.69 C
333 17-05-2019 03:40:00 8.6 C 94 % 7.69 C
334 17-05-2019 03:45:00 8.6 C 95 % 7.85 C
335 17-05-2019 03:50:00 8.6 C 95 % 7.85 C
336 17-05-2019 03:55:00 8.6 C 94 % 7.69 C
337 17-05-2019 04:00:00 8.6 C 94 % 7.69 C
338 17-05-2019 04:05:00 8.6 C 95 % 7.85 C
339 17-05-2019 04:10:00 8.5 C 95 % 7.75 C
340 17-05-2019 04:15:00 8.5 C 95 % 7.75 C
341 17-05-2019 04:20:00 8.4 C 95 % 7.65 C
342 17-05-2019 04:25:00 8.5 C 95 % 7.75 C
343 17-05-2019 04:30:00 8.5 C 95 % 7.75 C
344 17-05-2019 04:35:00 8.5 C 95 % 7.75 C
345 17-05-2019 04:40:00 8.4 C 95 % 7.65 C
346 17-05-2019 04:45:00 8.4 C 95 % 7.65 C
347 17-05-2019 04:50:00 8.4 C 95 % 7.65 C
348 17-05-2019 04:55:00 8.4 C 95 % 7.65 C
349 17-05-2019 05:00:00 8.4 C 95 % 7.65 C
350 17-05-2019 05:05:00 8.4 C 95 % 7.65 C
Sensor: Nr:Datum:Temp:Feuchte:Taupunkt:
Aussen-T/F 351 17-05-2019 05:10:00 8.4 C 95 % 7.65 C
352 17-05-2019 05:15:00 8.4 C 95 % 7.65 C
353 17-05-2019 05:20:00 8.4 C 95 % 7.65 C
354 17-05-2019 05:25:00 8.4 C 95 % 7.65 C
355 17-05-2019 05:30:00 8.3 C 95 % 7.55 C
356 17-05-2019 05:35:00 8.3 C 95 % 7.55 C
357 17-05-2019 05:40:00 8.3 C 95 % 7.55 C
358 17-05-2019 05:45:00 8.3 C 95 % 7.55 C
359 17-05-2019 05:50:00 8.4 C 95 % 7.65 C
360 17-05-2019 05:55:00 8.4 C 95 % 7.65 C
361 17-05-2019 06:00:00 8.4 C 95 % 7.65 C
362 17-05-2019 06:05:00 8.4 C 95 % 7.65 C
363 17-05-2019 06:10:00 8.4 C 95 % 7.65 C
364 17-05-2019 06:15:00 8.4 C 95 % 7.65 C
365 17-05-2019 06:20:00 8.4 C 95 % 7.65 C
366 17-05-2019 06:25:00 8.4 C 96 % 7.8 C
367 17-05-2019 06:30:00 8.4 C 96 % 7.8 C
368 17-05-2019 06:35:00 8.4 C 96 % 7.8 C
369 17-05-2019 06:40:00 8.5 C 96 % 7.9 C
370 17-05-2019 06:45:00 8.5 C 96 % 7.9 C
371 17-05-2019 06:50:00 8.6 C 96 % 8 C
372 17-05-2019 06:55:00 8.6 C 96 % 8 C
373 17-05-2019 07:00:00 8.6 C 96 % 8 C
374 17-05-2019 07:05:00 8.6 C 96 % 8 C
375 17-05-2019 07:10:00 8.7 C 96 % 8.1 C
Sensor: Nr:Datum:Temp:Feuchte:Taupunkt:
Aussen-T/F 376 17-05-2019 07:15:00 8.7 C 96 % 8.1 C
377 17-05-2019 07:20:00 8.7 C 96 % 8.1 C
378 17-05-2019 07:25:00 8.7 C 96 % 8.1 C
379 17-05-2019 07:30:00 8.7 C 96 % 8.1 C
380 17-05-2019 07:35:00 8.7 C 96 % 8.1 C
381 17-05-2019 07:40:00 8.8 C 96 % 8.2 C
382 17-05-2019 07:45:00 8.8 C 96 % 8.2 C
383 17-05-2019 07:50:00 8.8 C 96 % 8.2 C
384 17-05-2019 07:55:00 8.8 C 96 % 8.2 C
385 17-05-2019 08:00:00 8.8 C 96 % 8.2 C
386 17-05-2019 08:05:00 8.8 C 96 % 8.2 C
387 17-05-2019 08:10:00 8.9 C 96 % 8.3 C
388 17-05-2019 08:15:00 8.9 C 96 % 8.3 C
389 17-05-2019 08:20:00 8.9 C 96 % 8.3 C
390 17-05-2019 08:25:00 8.9 C 96 % 8.3 C
391 17-05-2019 08:30:00 8.9 C 96 % 8.3 C
392 17-05-2019 08:35:00 9.1 C 96 % 8.5 C
393 17-05-2019 08:40:00 9.1 C 96 % 8.5 C
394 17-05-2019 08:45:00 9.1 C 96 % 8.5 C
395 17-05-2019 08:50:00 9.1 C 96 % 8.5 C
396 17-05-2019 08:55:00 9.1 C 96 % 8.5 C
397 17-05-2019 09:00:00 9.1 C 96 % 8.5 C
398 17-05-2019 09:05:00 9.2 C 96 % 8.6 C
399 17-05-2019 09:10:00 9.2 C 96 % 8.6 C
400 17-05-2019 09:15:00 9.2 C 96 % 8.6 C
Sensor: Nr:Datum:Temp:Feuchte:Taupunkt:
Aussen-T/F 401 17-05-2019 09:20:00 9.2 C 96 % 8.6 C
402 17-05-2019 09:25:00 9.3 C 96 % 8.7 C
403 17-05-2019 09:30:00 9.3 C 96 % 8.7 C
404 17-05-2019 09:35:00 9.4 C 96 % 8.8 C
405 17-05-2019 09:40:00 9.4 C 96 % 8.8 C
406 17-05-2019 09:45:00 9.4 C 96 % 8.8 C
407 17-05-2019 09:50:00 9.4 C 96 % 8.8 C
408 17-05-2019 09:55:00 9.4 C 96 % 8.8 C
409 17-05-2019 10:00:00 9.4 C 96 % 8.8 C
410 17-05-2019 10:05:00 9.4 C 96 % 8.8 C
411 17-05-2019 10:10:00 9.4 C 96 % 8.8 C
412 17-05-2019 10:15:00 9.5 C 96 % 8.89 C
413 17-05-2019 10:20:00 9.5 C 96 % 8.89 C
414 17-05-2019 10:25:00 9.6 C 96 % 8.99 C
415 17-05-2019 10:30:00 9.6 C 96 % 8.99 C
416 17-05-2019 10:35:00 9.7 C 96 % 9.09 C
417 17-05-2019 10:40:00 9.7 C 96 % 9.09 C
418 17-05-2019 10:45:00 9.8 C 96 % 9.19 C
419 17-05-2019 10:50:00 9.9 C 96 % 9.29 C
420 17-05-2019 10:55:00 10 C 96 % 9.39 C
421 17-05-2019 11:00:00 10.1 C 96 % 9.49 C
422 17-05-2019 11:05:00 10 C 95 % 9.24 C
423 17-05-2019 11:10:00 10.1 C 95 % 9.34 C
424 17-05-2019 11:15:00 10.1 C 95 % 9.34 C
425 17-05-2019 11:20:00 10.1 C 95 % 9.34 C
Sensor: Nr:Datum:Temp:Feuchte:Taupunkt:
Aussen-T/F 426 17-05-2019 11:25:00 10.1 C 95 % 9.34 C
427 17-05-2019 11:30:00 10.2 C 95 % 9.44 C
428 17-05-2019 11:35:00 10.2 C 95 % 9.44 C
429 17-05-2019 11:40:00 10.3 C 95 % 9.54 C
430 17-05-2019 11:45:00 10.3 C 95 % 9.54 C
431 17-05-2019 11:50:00 10.4 C 95 % 9.63 C
432 17-05-2019 11:55:00 10.5 C 95 % 9.73 C
433 17-05-2019 12:00:00 10.6 C 95 % 9.83 C
434 17-05-2019 12:05:00 10.7 C 95 % 9.93 C
435 17-05-2019 12:10:00 10.8 C 95 % 10.03 C
436 17-05-2019 12:15:00 10.9 C 94 % 9.97 C
437 17-05-2019 12:20:00 10.9 C 94 % 9.97 C
438 17-05-2019 12:25:00 11 C 94 % 10.07 C
439 17-05-2019 12:30:00 11.2 C 94 % 10.27 C
440 17-05-2019 12:35:00 11.3 C 93 % 10.21 C
441 17-05-2019 12:40:00 11.4 C 93 % 10.31 C
442 17-05-2019 12:45:00 11.6 C 93 % 10.51 C
443 17-05-2019 12:50:00 11.8 C 93 % 10.71 C
444 17-05-2019 12:55:00 11.9 C 92 % 10.64 C
445 17-05-2019 13:00:00 12 C 92 % 10.74 C
446 17-05-2019 13:05:00 12.2 C 92 % 10.94 C
447 17-05-2019 13:10:00 12.3 C 91 % 10.87 C
448 17-05-2019 13:15:00 12.6 C 91 % 11.17 C
449 17-05-2019 13:20:00 12.8 C 90 % 11.2 C
450 17-05-2019 13:25:00 12.9 C 90 % 11.3 C
Sensor: Nr:Datum:Temp:Feuchte:Taupunkt:
Aussen-T/F 451 17-05-2019 13:30:00 12.9 C 88 % 10.96 C
452 17-05-2019 13:35:00 12.9 C 88 % 10.96 C
453 17-05-2019 13:40:00 13.1 C 88 % 11.16 C
454 17-05-2019 13:45:00 13.3 C 87 % 11.18 C
455 17-05-2019 13:50:00 13.4 C 87 % 11.28 C
456 17-05-2019 13:55:00 13.5 C 86 % 11.21 C
457 17-05-2019 14:00:00 13.6 C 86 % 11.3 C
458 17-05-2019 14:05:00 13.7 C 86 % 11.4 C
459 17-05-2019 14:10:00 13.8 C 85 % 11.32 C
460 17-05-2019 14:15:00 13.9 C 86 % 11.6 C
461 17-05-2019 14:20:00 14.1 C 85 % 11.62 C
462 17-05-2019 14:25:00 14.3 C 85 % 11.81 C
463 17-05-2019 14:30:00 14.6 C 84 % 11.93 C
464 17-05-2019 14:35:00 14.8 C 83 % 11.94 C
465 17-05-2019 14:40:00 14.9 C 83 % 12.04 C
466 17-05-2019 14:45:00 15.1 C 82 % 12.05 C
467 17-05-2019 14:50:00 15.2 C 82 % 12.15 C
468 17-05-2019 14:55:00 15.3 C 83 % 12.43 C
469 17-05-2019 15:00:00 15.4 C 83 % 12.53 C
470 17-05-2019 15:05:00 15.2 C 80 % 11.78 C
471 17-05-2019 15:10:00 15.2 C 80 % 11.78 C
472 17-05-2019 15:15:00 15.2 C 81 % 11.96 C
473 17-05-2019 15:20:00 15.4 C 81 % 12.16 C
474 17-05-2019 15:25:00 15.6 C 80 % 12.16 C
475 17-05-2019 15:30:00 15.6 C 79 % 11.97 C
Sensor: Nr:Datum:Temp:Feuchte:Taupunkt:
Aussen-T/F 476 17-05-2019 15:35:00 15.5 C 79 % 11.88 C
477 17-05-2019 15:40:00 15.6 C 79 % 11.97 C
478 17-05-2019 15:45:00 15.8 C 79 % 12.17 C
479 17-05-2019 15:50:00 15.9 C 79 % 12.27 C
480 17-05-2019 15:55:00 16.1 C 78 % 12.27 C
481 17-05-2019 16:00:00 16.3 C 77 % 12.26 C
482 17-05-2019 16:05:00 16.3 C 76 % 12.07 C
483 17-05-2019 16:10:00 16.3 C 79 % 12.65 C
484 17-05-2019 16:15:00 16.3 C 76 % 12.07 C
485 17-05-2019 16:20:00 16.1 C 77 % 12.07 C
486 17-05-2019 16:25:00 16.1 C 75 % 11.67 C
487 17-05-2019 16:30:00 16.2 C 75 % 11.77 C
488 17-05-2019 16:35:00 16.3 C 74 % 11.66 C
489 17-05-2019 16:40:00 16.4 C 74 % 11.76 C
490 17-05-2019 16:45:00 16.5 C 72 % 11.44 C
491 17-05-2019 16:50:00 16.6 C 74 % 11.95 C
492 17-05-2019 16:55:00 16.8 C 74 % 12.14 C
493 17-05-2019 17:00:00 16.9 C 72 % 11.82 C
494 17-05-2019 17:05:00 17.2 C 71 % 11.9 C
495 17-05-2019 17:10:00 17.2 C 70 % 11.68 C
496 17-05-2019 17:15:00 17.2 C 71 % 11.9 C
497 17-05-2019 17:20:00 17 C 70 % 11.49 C
498 17-05-2019 17:25:00 17.1 C 70 % 11.59 C
499 17-05-2019 17:30:00 17.3 C 70 % 11.78 C
500 17-05-2019 17:35:00 17.6 C 70 % 12.07 C
Sensor: Nr:Datum:Temp:Feuchte:Taupunkt:
Aussen-T/F 501 17-05-2019 17:40:00 17.9 C 75 % 13.41 C
502 17-05-2019 17:45:00 17.8 C 70 % 12.26 C
503 17-05-2019 17:50:00 17.6 C 71 % 12.28 C
504 17-05-2019 17:55:00 17.4 C 70 % 11.88 C
505 17-05-2019 18:00:00 17.2 C 71 % 11.9 C
506 17-05-2019 18:05:00 17 C 70 % 11.49 C
507 17-05-2019 18:10:00 17.1 C 78 % 13.24 C
508 17-05-2019 18:15:00 17.1 C 80 % 13.62 C
509 17-05-2019 18:20:00 17.1 C 81 % 13.82 C
510 17-05-2019 18:25:00 17 C 81 % 13.72 C
511 17-05-2019 18:30:00 16.8 C 81 % 13.52 C
512 17-05-2019 18:35:00 16.7 C 80 % 13.23 C
513 17-05-2019 18:40:00 16.4 C 78 % 12.56 C
514 17-05-2019 18:45:00 16.4 C 81 % 13.13 C
515 17-05-2019 18:50:00 16.4 C 81 % 13.13 C
516 17-05-2019 18:55:00 16.4 C 78 % 12.56 C
517 17-05-2019 19:00:00 16.7 C 82 % 13.61 C
518 17-05-2019 19:05:00 16.8 C 78 % 12.94 C
519 17-05-2019 19:10:00 16.9 C 73 % 12.03 C
520 17-05-2019 19:15:00 17.1 C 80 % 13.62 C
521 17-05-2019 19:20:00 17.2 C 80 % 13.72 C
522 17-05-2019 19:25:00 17.1 C 80 % 13.62 C
523 17-05-2019 19:30:00 16.9 C 80 % 13.43 C
524 17-05-2019 19:35:00 16.7 C 81 % 13.43 C
525 17-05-2019 19:40:00 16.3 C 81 % 13.04 C
Sensor: Nr:Datum:Temp:Feuchte:Taupunkt:
Aussen-T/F 526 17-05-2019 19:45:00 16.2 C 82 % 13.13 C
527 17-05-2019 19:50:00 15.9 C 82 % 12.83 C
528 17-05-2019 19:55:00 15.7 C 83 % 12.82 C
529 17-05-2019 20:00:00 15.4 C 83 % 12.53 C
530 17-05-2019 20:05:00 15.2 C 83 % 12.33 C
531 17-05-2019 20:10:00 14.9 C 84 % 12.22 C
532 17-05-2019 20:15:00 14.6 C 84 % 11.93 C
533 17-05-2019 20:20:00 14.3 C 85 % 11.81 C
534 17-05-2019 20:25:00 14 C 85 % 11.52 C
535 17-05-2019 20:30:00 13.7 C 86 % 11.4 C
536 17-05-2019 20:35:00 13.5 C 86 % 11.21 C
537 17-05-2019 20:40:00 13.3 C 86 % 11.01 C
538 17-05-2019 20:45:00 13.1 C 87 % 10.99 C
539 17-05-2019 20:50:00 12.9 C 87 % 10.79 C
540 17-05-2019 20:55:00 12.8 C 88 % 10.86 C
541 17-05-2019 21:00:00 12.6 C 88 % 10.67 C
542 17-05-2019 21:05:00 12.4 C 88 % 10.47 C
543 17-05-2019 21:10:00 12.3 C 88 % 10.37 C
544 17-05-2019 21:15:00 12.1 C 89 % 10.34 C
545 17-05-2019 21:20:00 12 C 89 % 10.25 C
546 17-05-2019 21:25:00 11.9 C 90 % 10.31 C
547 17-05-2019 21:30:00 11.8 C 90 % 10.21 C
548 17-05-2019 21:35:00 11.8 C 90 % 10.21 C
549 17-05-2019 21:40:00 11.8 C 91 % 10.38 C
550 17-05-2019 21:45:00 11.8 C 91 % 10.38 C
Sensor: Nr:Datum:Temp:Feuchte:Taupunkt:
Aussen-T/F 551 17-05-2019 21:50:00 11.8 C 91 % 10.38 C
552 17-05-2019 21:55:00 11.8 C 91 % 10.38 C
553 17-05-2019 22:00:00 11.8 C 92 % 10.54 C
554 17-05-2019 22:05:00 11.9 C 92 % 10.64 C
555 17-05-2019 22:10:00 11.9 C 92 % 10.64 C
556 17-05-2019 22:15:00 11.9 C 92 % 10.64 C
557 17-05-2019 22:20:00 11.9 C 92 % 10.64 C
558 17-05-2019 22:25:00 11.9 C 92 % 10.64 C
559 17-05-2019 22:30:00 12 C 92 % 10.74 C
560 17-05-2019 22:35:00 12 C 92 % 10.74 C
561 17-05-2019 22:40:00 12 C 92 % 10.74 C
562 17-05-2019 22:45:00 12.1 C 92 % 10.84 C
563 17-05-2019 22:50:00 12.1 C 92 % 10.84 C
564 17-05-2019 22:55:00 12.1 C 92 % 10.84 C
565 17-05-2019 23:00:00 12.1 C 93 % 11 C
566 17-05-2019 23:05:00 12.1 C 93 % 11 C
567 17-05-2019 23:10:00 12.1 C 93 % 11 C
568 17-05-2019 23:15:00 12.1 C 93 % 11 C
569 17-05-2019 23:20:00 12.1 C 93 % 11 C
570 17-05-2019 23:25:00 12 C 93 % 10.9 C
571 17-05-2019 23:30:00 12 C 93 % 10.9 C
572 17-05-2019 23:35:00 12 C 94 % 11.07 C
573 17-05-2019 23:40:00 12.1 C 94 % 11.16 C
574 17-05-2019 23:45:00 12.1 C 94 % 11.16 C
575 17-05-2019 23:50:00 12 C 94 % 11.07 C
Sensor: Nr:Datum:Temp:Feuchte:Taupunkt:
Aussen-T/F 576 17-05-2019 23:55:00 12 C 94 % 11.07 C
577 18-05-2019 00:00:00 11.9 C 94 % 10.97 C
578 18-05-2019 00:05:00 11.9 C 94 % 10.97 C
579 18-05-2019 00:10:00 11.8 C 94 % 10.87 C
580 18-05-2019 00:15:00 11.8 C 94 % 10.87 C
581 18-05-2019 00:20:00 11.8 C 94 % 10.87 C
582 18-05-2019 00:25:00 11.7 C 94 % 10.77 C
583 18-05-2019 00:30:00 11.7 C 94 % 10.77 C
584 18-05-2019 00:35:00 11.6 C 94 % 10.67 C
585 18-05-2019 00:40:00 11.4 C 94 % 10.47 C
586 18-05-2019 00:45:00 11.3 C 94 % 10.37 C
587 18-05-2019 00:50:00 11.2 C 94 % 10.27 C
588 18-05-2019 00:55:00 11.1 C 94 % 10.17 C
589 18-05-2019 01:00:00 10.9 C 94 % 9.97 C
590 18-05-2019 01:05:00 10.8 C 94 % 9.87 C
591 18-05-2019 01:10:00 10.7 C 94 % 9.77 C
592 18-05-2019 01:15:00 10.6 C 94 % 9.68 C
593 18-05-2019 01:20:00 10.4 C 94 % 9.48 C
594 18-05-2019 01:25:00 10.3 C 94 % 9.38 C
595 18-05-2019 01:30:00 10.3 C 94 % 9.38 C
596 18-05-2019 01:35:00 10.3 C 95 % 9.54 C
597 18-05-2019 01:40:00 10.3 C 95 % 9.54 C
598 18-05-2019 01:45:00 10.2 C 95 % 9.44 C
599 18-05-2019 01:50:00 10.2 C 95 % 9.44 C
600 18-05-2019 01:55:00 10.3 C 95 % 9.54 C
Sensor: Nr:Datum:Temp:Feuchte:Taupunkt:
Aussen-T/F 601 18-05-2019 02:00:00 10.3 C 95 % 9.54 C
602 18-05-2019 02:05:00 10.4 C 95 % 9.63 C
603 18-05-2019 02:10:00 10.4 C 96 % 9.79 C
604 18-05-2019 02:15:00 10.5 C 96 % 9.89 C
605 18-05-2019 02:20:00 10.6 C 96 % 9.99 C
606 18-05-2019 02:25:00 10.6 C 96 % 9.99 C
607 18-05-2019 02:30:00 10.7 C 96 % 10.09 C
608 18-05-2019 02:35:00 10.7 C 96 % 10.09 C
609 18-05-2019 02:40:00 10.7 C 96 % 10.09 C
610 18-05-2019 02:45:00 10.7 C 96 % 10.09 C
611 18-05-2019 02:50:00 10.7 C 96 % 10.09 C
612 18-05-2019 02:55:00 10.7 C 96 % 10.09 C
613 18-05-2019 03:00:00 10.6 C 96 % 9.99 C
614 18-05-2019 03:05:00 10.6 C 96 % 9.99 C
615 18-05-2019 03:10:00 10.6 C 96 % 9.99 C
616 18-05-2019 03:15:00 10.6 C 96 % 9.99 C
617 18-05-2019 03:20:00 10.6 C 96 % 9.99 C
618 18-05-2019 03:25:00 10.5 C 96 % 9.89 C
619 18-05-2019 03:30:00 10.4 C 96 % 9.79 C
620 18-05-2019 03:35:00 10.4 C 95 % 9.63 C
621 18-05-2019 03:40:00 10.3 C 96 % 9.69 C
622 18-05-2019 03:45:00 10.2 C 96 % 9.59 C
623 18-05-2019 03:50:00 10.2 C 96 % 9.59 C
624 18-05-2019 03:55:00 10.2 C 96 % 9.59 C
625 18-05-2019 04:00:00 10.2 C 96 % 9.59 C
Sensor: Nr:Datum:Temp:Feuchte:Taupunkt:
Aussen-T/F 626 18-05-2019 04:05:00 10.2 C 96 % 9.59 C
627 18-05-2019 04:10:00 10.1 C 96 % 9.49 C
628 18-05-2019 04:15:00 10.1 C 96 % 9.49 C
629 18-05-2019 04:20:00 10 C 96 % 9.39 C
630 18-05-2019 04:25:00 9.9 C 96 % 9.29 C
631 18-05-2019 04:30:00 9.9 C 96 % 9.29 C
632 18-05-2019 04:35:00 9.8 C 96 % 9.19 C
633 18-05-2019 04:40:00 9.8 C 96 % 9.19 C
634 18-05-2019 04:45:00 9.8 C 96 % 9.19 C
635 18-05-2019 04:50:00 9.7 C 96 % 9.09 C
636 18-05-2019 04:55:00 9.6 C 96 % 8.99 C
637 18-05-2019 05:00:00 9.6 C 96 % 8.99 C
638 18-05-2019 05:05:00 9.5 C 96 % 8.89 C
639 18-05-2019 05:10:00 9.5 C 96 % 8.89 C
640 18-05-2019 05:15:00 9.5 C 96 % 8.89 C
641 18-05-2019 05:20:00 9.4 C 96 % 8.8 C
642 18-05-2019 05:25:00 9.4 C 96 % 8.8 C
643 18-05-2019 05:30:00 9.3 C 96 % 8.7 C
644 18-05-2019 05:35:00 9.2 C 96 % 8.6 C
645 18-05-2019 05:40:00 9.1 C 96 % 8.5 C
646 18-05-2019 05:45:00 9.1 C 96 % 8.5 C
647 18-05-2019 05:50:00 9.1 C 96 % 8.5 C
648 18-05-2019 05:55:00 9.1 C 96 % 8.5 C
649 18-05-2019 06:00:00 9.1 C 96 % 8.5 C
650 18-05-2019 06:05:00 9.1 C 96 % 8.5 C
Sensor: Nr:Datum:Temp:Feuchte:Taupunkt:
Aussen-T/F 651 18-05-2019 06:10:00 9.1 C 96 % 8.5 C
652 18-05-2019 06:15:00 9.1 C 96 % 8.5 C
653 18-05-2019 06:20:00 9.2 C 96 % 8.6 C
654 18-05-2019 06:25:00 9.2 C 96 % 8.6 C
655 18-05-2019 06:30:00 9.3 C 97 % 8.85 C
656 18-05-2019 06:35:00 9.4 C 97 % 8.95 C
657 18-05-2019 06:40:00 9.6 C 97 % 9.15 C
658 18-05-2019 06:45:00 9.7 C 97 % 9.25 C
659 18-05-2019 06:50:00 9.7 C 97 % 9.25 C
660 18-05-2019 06:55:00 9.8 C 97 % 9.35 C
661 18-05-2019 07:00:00 9.8 C 97 % 9.35 C
662 18-05-2019 07:05:00 9.9 C 97 % 9.45 C
663 18-05-2019 07:10:00 10 C 97 % 9.55 C
664 18-05-2019 07:15:00 10.1 C 97 % 9.65 C
665 18-05-2019 07:20:00 10.1 C 97 % 9.65 C
666 18-05-2019 07:25:00 10.2 C 97 % 9.75 C
667 18-05-2019 07:30:00 10.2 C 97 % 9.75 C
668 18-05-2019 07:35:00 10.3 C 97 % 9.85 C
669 18-05-2019 07:40:00 10.4 C 97 % 9.94 C
670 18-05-2019 07:45:00 10.5 C 97 % 10.04 C
671 18-05-2019 07:50:00 10.6 C 97 % 10.14 C
672 18-05-2019 07:55:00 10.7 C 97 % 10.24 C
673 18-05-2019 08:00:00 10.7 C 97 % 10.24 C
674 18-05-2019 08:05:00 10.8 C 97 % 10.34 C
675 18-05-2019 08:10:00 10.9 C 97 % 10.44 C
Sensor: Nr:Datum:Temp:Feuchte:Taupunkt:
Aussen-T/F 676 18-05-2019 08:15:00 11 C 97 % 10.54 C
677 18-05-2019 08:20:00 11.1 C 97 % 10.64 C
678 18-05-2019 08:25:00 11.2 C 97 % 10.74 C
679 18-05-2019 08:30:00 11.2 C 97 % 10.74 C
680 18-05-2019 08:35:00 11.3 C 97 % 10.84 C
681 18-05-2019 08:40:00 11.4 C 97 % 10.94 C
682 18-05-2019 08:45:00 11.6 C 97 % 11.14 C
683 18-05-2019 08:50:00 11.6 C 96 % 10.98 C
684 18-05-2019 08:55:00 11.6 C 96 % 10.98 C
685 18-05-2019 09:00:00 11.7 C 96 % 11.08 C
686 18-05-2019 09:05:00 11.7 C 96 % 11.08 C
687 18-05-2019 09:10:00 11.9 C 96 % 11.28 C
688 18-05-2019 09:15:00 11.9 C 95 % 11.13 C
689 18-05-2019 09:20:00 12.1 C 95 % 11.32 C
690 18-05-2019 09:25:00 12.2 C 95 % 11.42 C
691 18-05-2019 09:30:00 12.3 C 94 % 11.36 C
692 18-05-2019 09:35:00 12.4 C 94 % 11.46 C
693 18-05-2019 09:40:00 12.6 C 94 % 11.66 C
694 18-05-2019 09:45:00 12.7 C 94 % 11.76 C
695 18-05-2019 09:50:00 12.8 C 93 % 11.7 C
696 18-05-2019 09:55:00 13 C 94 % 12.06 C
697 18-05-2019 10:00:00 13.2 C 94 % 12.26 C
698 18-05-2019 10:05:00 13.3 C 94 % 12.36 C
699 18-05-2019 10:10:00 13.4 C 94 % 12.45 C
700 18-05-2019 10:15:00 13.6 C 93 % 12.49 C
Sensor: Nr:Datum:Temp:Feuchte:Taupunkt:
Aussen-T/F 701 18-05-2019 10:20:00 13.9 C 93 % 12.79 C
702 18-05-2019 10:25:00 14.1 C 93 % 12.99 C
703 18-05-2019 10:30:00 14.2 C 92 % 12.92 C
704 18-05-2019 10:35:00 14.4 C 93 % 13.28 C
705 18-05-2019 10:40:00 14.6 C 90 % 12.98 C
706 18-05-2019 10:45:00 14.8 C 89 % 13.01 C
707 18-05-2019 10:50:00 15.1 C 86 % 12.78 C
708 18-05-2019 10:55:00 15.4 C 85 % 12.89 C
709 18-05-2019 11:00:00 15.8 C 83 % 12.92 C
710 18-05-2019 11:05:00 16.1 C 80 % 12.65 C
711 18-05-2019 11:10:00 16.3 C 78 % 12.46 C
712 18-05-2019 11:15:00 16.6 C 79 % 12.95 C
713 18-05-2019 11:20:00 16.9 C 78 % 13.04 C
714 18-05-2019 11:25:00 17.1 C 76 % 12.84 C
715 18-05-2019 11:30:00 17.2 C 76 % 12.94 C
716 18-05-2019 11:35:00 17.2 C 75 % 12.73 C
717 18-05-2019 11:40:00 17.3 C 76 % 13.03 C
718 18-05-2019 11:45:00 17.3 C 75 % 12.83 C
719 18-05-2019 11:50:00 17.4 C 76 % 13.13 C
720 18-05-2019 11:55:00 17.6 C 75 % 13.12 C
721 18-05-2019 12:00:00 17.7 C 75 % 13.22 C
722 18-05-2019 12:05:00 17.7 C 73 % 12.8 C
723 18-05-2019 12:10:00 17.8 C 74 % 13.11 C
724 18-05-2019 12:15:00 17.9 C 71 % 12.57 C
725 18-05-2019 12:20:00 17.9 C 73 % 12.99 C
Sensor: Nr:Datum:Temp:Feuchte:Taupunkt:
Aussen-T/F 726 18-05-2019 12:25:00 18.1 C 71 % 12.76 C
727 18-05-2019 12:30:00 18.3 C 71 % 12.95 C
728 18-05-2019 12:35:00 18.4 C 69 % 12.61 C
729 18-05-2019 12:40:00 18.4 C 70 % 12.83 C
730 18-05-2019 12:45:00 18.5 C 70 % 12.93 C
731 18-05-2019 12:50:00 18.5 C 71 % 13.15 C
732 18-05-2019 12:55:00 18.5 C 70 % 12.93 C
733 18-05-2019 13:00:00 18.6 C 71 % 13.24 C
734 18-05-2019 13:05:00 18.7 C 71 % 13.34 C
735 18-05-2019 13:10:00 18.8 C 68 % 12.77 C
736 18-05-2019 13:15:00 18.8 C 69 % 13 C
737 18-05-2019 13:20:00 18.9 C 68 % 12.87 C
738 18-05-2019 13:25:00 19.1 C 66 % 12.6 C
739 18-05-2019 13:30:00 19.2 C 67 % 12.93 C
740 18-05-2019 13:35:00 19.3 C 75 % 14.76 C
741 18-05-2019 13:40:00 19.2 C 74 % 14.46 C
742 18-05-2019 13:45:00 19.1 C 70 % 13.5 C
743 18-05-2019 13:50:00 19.2 C 66 % 12.7 C
744 18-05-2019 13:55:00 19.3 C 64 % 12.32 C
745 18-05-2019 14:00:00 19.6 C 71 % 14.2 C
746 18-05-2019 14:05:00 19.7 C 69 % 13.86 C
747 18-05-2019 14:10:00 19.8 C 66 % 13.27 C
748 18-05-2019 14:15:00 20 C 63 % 12.75 C
749 18-05-2019 14:20:00 20.2 C 63 % 12.94 C
750 18-05-2019 14:25:00 20.4 C 62 % 12.88 C
Sensor: Nr:Datum:Temp:Feuchte:Taupunkt:
Aussen-T/F 751 18-05-2019 14:30:00 20.6 C 59 % 12.31 C
752 18-05-2019 14:35:00 20.7 C 61 % 12.91 C
753 18-05-2019 14:40:00 20.8 C 61 % 13.01 C
754 18-05-2019 14:45:00 20.8 C 59 % 12.5 C
755 18-05-2019 14:50:00 20.8 C 59 % 12.5 C
756 18-05-2019 14:55:00 20.7 C 57 % 11.88 C
757 18-05-2019 15:00:00 20.7 C 57 % 11.88 C
758 18-05-2019 15:05:00 20.6 C 56 % 11.52 C
759 18-05-2019 15:10:00 20.6 C 59 % 12.31 C
760 18-05-2019 15:15:00 20.6 C 58 % 12.05 C
761 18-05-2019 15:20:00 20.5 C 58 % 11.96 C
762 18-05-2019 15:25:00 20.6 C 60 % 12.57 C
763 18-05-2019 15:30:00 20.7 C 59 % 12.41 C
764 18-05-2019 15:35:00 21 C 59 % 12.69 C
765 18-05-2019 15:40:00 21.4 C 60 % 13.32 C
766 18-05-2019 15:45:00 21.7 C 58 % 13.08 C
767 18-05-2019 15:50:00 22.1 C 58 % 13.45 C
768 18-05-2019 15:55:00 22.2 C 59 % 13.81 C
769 18-05-2019 16:00:00 22.1 C 61 % 14.23 C
770 18-05-2019 16:05:00 22.2 C 59 % 13.81 C
771 18-05-2019 16:10:00 22.2 C 60 % 14.07 C
772 18-05-2019 16:15:00 22.3 C 61 % 14.42 C
773 18-05-2019 16:20:00 22.4 C 61 % 14.51 C
774 18-05-2019 16:25:00 22.6 C 59 % 14.18 C
775 18-05-2019 16:30:00 22.6 C 58 % 13.92 C
Sensor: Nr:Datum:Temp:Feuchte:Taupunkt:
Aussen-T/F 776 18-05-2019 16:35:00 22.7 C 60 % 14.54 C
777 18-05-2019 16:40:00 22.7 C 58 % 14.01 C
778 18-05-2019 16:45:00 22.7 C 61 % 14.79 C
779 18-05-2019 16:50:00 22.3 C 60 % 14.16 C
780 18-05-2019 16:55:00 22.2 C 66 % 15.55 C
781 18-05-2019 17:00:00 22 C 66 % 15.36 C
782 18-05-2019 17:05:00 21.9 C 68 % 15.73 C
783 18-05-2019 17:10:00 21.7 C 64 % 14.6 C
784 18-05-2019 17:15:00 21.4 C 66 % 14.79 C
785 18-05-2019 17:20:00 21.3 C 72 % 16.05 C
786 18-05-2019 17:25:00 21.1 C 70 % 15.42 C
787 18-05-2019 17:30:00 20.9 C 72 % 15.66 C
788 18-05-2019 17:35:00 20.7 C 74 % 15.9 C
789 18-05-2019 17:40:00 20.5 C 74 % 15.71 C
790 18-05-2019 17:45:00 20.4 C 74 % 15.61 C
791 18-05-2019 17:50:00 20.3 C 73 % 15.3 C
792 18-05-2019 17:55:00 20.3 C 74 % 15.51 C
793 18-05-2019 18:00:00 20.1 C 73 % 15.11 C
794 18-05-2019 18:05:00 19.9 C 73 % 14.92 C
795 18-05-2019 18:10:00 19.7 C 74 % 14.94 C
796 18-05-2019 18:15:00 19.5 C 76 % 15.16 C
797 18-05-2019 18:20:00 19.3 C 77 % 15.17 C
798 18-05-2019 18:25:00 18.8 C 78 % 14.88 C
799 18-05-2019 18:30:00 18.4 C 79 % 14.69 C
800 18-05-2019 18:35:00 18 C 77 % 13.91 C
Sensor: Nr:Datum:Temp:Feuchte:Taupunkt:
Aussen-T/F 801 18-05-2019 18:40:00 17.6 C 77 % 13.52 C
802 18-05-2019 18:45:00 17.3 C 77 % 13.23 C
803 18-05-2019 18:50:00 17.1 C 78 % 13.24 C
804 18-05-2019 18:55:00 16.8 C 80 % 13.33 C
805 18-05-2019 19:00:00 16.6 C 81 % 13.33 C
806 18-05-2019 19:05:00 16.4 C 83 % 13.51 C
807 18-05-2019 19:10:00 16.3 C 84 % 13.59 C
808 18-05-2019 19:15:00 16.1 C 86 % 13.76 C
809 18-05-2019 19:20:00 15.9 C 87 % 13.74 C
810 18-05-2019 19:25:00 15.8 C 87 % 13.64 C
811 18-05-2019 19:30:00 15.7 C 88 % 13.72 C
812 18-05-2019 19:35:00 15.6 C 89 % 13.79 C
813 18-05-2019 19:40:00 15.6 C 89 % 13.79 C
814 18-05-2019 19:45:00 15.5 C 89 % 13.7 C
815 18-05-2019 19:50:00 15.4 C 90 % 13.77 C
816 18-05-2019 19:55:00 15.3 C 90 % 13.67 C
817 18-05-2019 20:00:00 15.2 C 90 % 13.57 C
818 18-05-2019 20:05:00 15.2 C 90 % 13.57 C
819 18-05-2019 20:10:00 15.1 C 90 % 13.47 C
820 18-05-2019 20:15:00 15 C 90 % 13.37 C
821 18-05-2019 20:20:00 14.9 C 90 % 13.28 C
822 18-05-2019 20:25:00 14.8 C 90 % 13.18 C
823 18-05-2019 20:30:00 14.8 C 91 % 13.35 C
824 18-05-2019 20:35:00 14.7 C 90 % 13.08 C
825 18-05-2019 20:40:00 14.6 C 91 % 13.15 C
Sensor: Nr:Datum:Temp:Feuchte:Taupunkt:
Aussen-T/F 826 18-05-2019 20:45:00 14.5 C 91 % 13.05 C
827 18-05-2019 20:50:00 14.4 C 91 % 12.95 C
828 18-05-2019 20:55:00 14.3 C 91 % 12.85 C
829 18-05-2019 21:00:00 14.2 C 91 % 12.75 C
830 18-05-2019 21:05:00 14.1 C 92 % 12.82 C
831 18-05-2019 21:10:00 14 C 92 % 12.72 C
832 18-05-2019 21:15:00 13.9 C 92 % 12.62 C
833 18-05-2019 21:20:00 13.9 C 92 % 12.62 C
834 18-05-2019 21:25:00 13.8 C 92 % 12.52 C
835 18-05-2019 21:30:00 13.7 C 92 % 12.42 C
836 18-05-2019 21:35:00 13.6 C 92 % 12.33 C
837 18-05-2019 21:40:00 13.5 C 92 % 12.23 C
838 18-05-2019 21:45:00 13.4 C 92 % 12.13 C
839 18-05-2019 21:50:00 13.3 C 92 % 12.03 C
840 18-05-2019 21:55:00 13.2 C 93 % 12.09 C
841 18-05-2019 22:00:00 13.1 C 93 % 11.99 C
842 18-05-2019 22:05:00 13 C 93 % 11.9 C
843 18-05-2019 22:10:00 12.9 C 93 % 11.8 C
844 18-05-2019 22:15:00 12.8 C 93 % 11.7 C
845 18-05-2019 22:20:00 12.8 C 93 % 11.7 C
846 18-05-2019 22:25:00 12.7 C 93 % 11.6 C
847 18-05-2019 22:30:00 12.7 C 93 % 11.6 C
848 18-05-2019 22:35:00 12.7 C 93 % 11.6 C
849 18-05-2019 22:40:00 12.6 C 94 % 11.66 C
850 18-05-2019 22:45:00 12.6 C 94 % 11.66 C
Sensor: Nr:Datum:Temp:Feuchte:Taupunkt:
Aussen-T/F 851 18-05-2019 22:50:00 12.6 C 94 % 11.66 C
852 18-05-2019 22:55:00 12.5 C 94 % 11.56 C
853 18-05-2019 23:00:00 12.5 C 94 % 11.56 C
854 18-05-2019 23:05:00 12.4 C 94 % 11.46 C
855 18-05-2019 23:10:00 12.4 C 94 % 11.46 C
856 18-05-2019 23:15:00 12.4 C 94 % 11.46 C
857 18-05-2019 23:20:00 12.4 C 95 % 11.62 C
858 18-05-2019 23:25:00 12.5 C 95 % 11.72 C
859 18-05-2019 23:30:00 12.6 C 95 % 11.82 C
860 18-05-2019 23:35:00 12.6 C 95 % 11.82 C
861 18-05-2019 23:40:00 12.6 C 95 % 11.82 C
862 18-05-2019 23:45:00 12.6 C 95 % 11.82 C
863 18-05-2019 23:50:00 12.7 C 95 % 11.92 C
864 18-05-2019 23:55:00 12.7 C 95 % 11.92 C
865 19-05-2019 00:00:00 12.7 C 95 % 11.92 C
866 19-05-2019 00:05:00 12.8 C 95 % 12.02 C
867 19-05-2019 00:10:00 12.8 C 95 % 12.02 C
868 19-05-2019 00:15:00 12.8 C 95 % 12.02 C
869 19-05-2019 00:20:00 12.8 C 95 % 12.02 C
870 19-05-2019 00:25:00 12.8 C 95 % 12.02 C
871 19-05-2019 00:30:00 12.8 C 95 % 12.02 C
872 19-05-2019 00:35:00 12.8 C 95 % 12.02 C
873 19-05-2019 00:40:00 12.8 C 95 % 12.02 C
874 19-05-2019 00:45:00 12.8 C 95 % 12.02 C
875 19-05-2019 00:50:00 12.8 C 95 % 12.02 C
Sensor: Nr:Datum:Temp:Feuchte:Taupunkt:
Aussen-T/F 876 19-05-2019 00:55:00 12.8 C 95 % 12.02 C
877 19-05-2019 01:00:00 12.8 C 95 % 12.02 C
878 19-05-2019 01:05:00 12.8 C 95 % 12.02 C
879 19-05-2019 01:10:00 12.8 C 95 % 12.02 C
880 19-05-2019 01:15:00 12.8 C 95 % 12.02 C
881 19-05-2019 01:20:00 12.8 C 95 % 12.02 C
882 19-05-2019 01:25:00 12.8 C 95 % 12.02 C
883 19-05-2019 01:30:00 12.7 C 95 % 11.92 C
884 19-05-2019 01:35:00 12.7 C 95 % 11.92 C
885 19-05-2019 01:40:00 12.7 C 95 % 11.92 C
886 19-05-2019 01:45:00 12.7 C 95 % 11.92 C
887 19-05-2019 01:50:00 12.6 C 95 % 11.82 C
888 19-05-2019 01:55:00 12.6 C 95 % 11.82 C
889 19-05-2019 02:00:00 12.6 C 95 % 11.82 C
890 19-05-2019 02:05:00 12.5 C 95 % 11.72 C
891 19-05-2019 02:10:00 12.5 C 95 % 11.72 C
892 19-05-2019 02:15:00 12.4 C 95 % 11.62 C
893 19-05-2019 02:20:00 12.4 C 95 % 11.62 C
894 19-05-2019 02:25:00 12.3 C 95 % 11.52 C
895 19-05-2019 02:30:00 12.3 C 95 % 11.52 C
896 19-05-2019 02:35:00 12.2 C 95 % 11.42 C
897 19-05-2019 02:40:00 12.1 C 95 % 11.32 C
898 19-05-2019 02:45:00 12.1 C 95 % 11.32 C
899 19-05-2019 02:50:00 11.9 C 95 % 11.13 C
900 19-05-2019 02:55:00 11.9 C 95 % 11.13 C
Sensor: Nr:Datum:Temp:Feuchte:Taupunkt:
Aussen-T/F 901 19-05-2019 03:00:00 11.8 C 95 % 11.03 C
902 19-05-2019 03:05:00 11.8 C 95 % 11.03 C
903 19-05-2019 03:10:00 11.8 C 95 % 11.03 C
904 19-05-2019 03:15:00 11.8 C 95 % 11.03 C
905 19-05-2019 03:20:00 11.8 C 96 % 11.18 C
906 19-05-2019 03:25:00 11.8 C 96 % 11.18 C
907 19-05-2019 03:30:00 11.7 C 95 % 10.93 C
908 19-05-2019 03:35:00 11.7 C 95 % 10.93 C
909 19-05-2019 03:40:00 11.6 C 96 % 10.98 C
910 19-05-2019 03:45:00 11.6 C 96 % 10.98 C
911 19-05-2019 03:50:00 11.6 C 96 % 10.98 C
912 19-05-2019 03:55:00 11.6 C 96 % 10.98 C
913 19-05-2019 04:00:00 11.6 C 96 % 10.98 C
914 19-05-2019 04:05:00 11.7 C 96 % 11.08 C
915 19-05-2019 04:10:00 11.7 C 96 % 11.08 C
916 19-05-2019 04:15:00 11.8 C 96 % 11.18 C
917 19-05-2019 04:20:00 11.7 C 96 % 11.08 C
918 19-05-2019 04:25:00 11.7 C 96 % 11.08 C
919 19-05-2019 04:30:00 11.6 C 96 % 10.98 C
920 19-05-2019 04:35:00 11.6 C 96 % 10.98 C
921 19-05-2019 04:40:00 11.6 C 96 % 10.98 C
922 19-05-2019 04:45:00 11.5 C 96 % 10.88 C
923 19-05-2019 04:50:00 11.5 C 96 % 10.88 C
924 19-05-2019 04:55:00 11.5 C 96 % 10.88 C
925 19-05-2019 05:00:00 11.5 C 96 % 10.88 C
Sensor: Nr:Datum:Temp:Feuchte:Taupunkt:
Aussen-T/F 926 19-05-2019 05:05:00 11.4 C 96 % 10.79 C
927 19-05-2019 05:10:00 11.4 C 96 % 10.79 C
928 19-05-2019 05:15:00 11.4 C 96 % 10.79 C
929 19-05-2019 05:20:00 11.4 C 96 % 10.79 C
930 19-05-2019 05:25:00 11.4 C 96 % 10.79 C
931 19-05-2019 05:30:00 11.4 C 96 % 10.79 C
932 19-05-2019 05:35:00 11.4 C 96 % 10.79 C
933 19-05-2019 05:40:00 11.4 C 96 % 10.79 C
934 19-05-2019 05:45:00 11.3 C 96 % 10.69 C
935 19-05-2019 05:50:00 11.3 C 96 % 10.69 C
936 19-05-2019 05:55:00 11.3 C 96 % 10.69 C
937 19-05-2019 06:00:00 11.3 C 96 % 10.69 C
938 19-05-2019 06:05:00 11.3 C 96 % 10.69 C
939 19-05-2019 06:10:00 11.3 C 97 % 10.84 C
940 19-05-2019 06:15:00 11.3 C 97 % 10.84 C
941 19-05-2019 06:20:00 11.3 C 97 % 10.84 C
942 19-05-2019 06:25:00 11.4 C 97 % 10.94 C
943 19-05-2019 06:30:00 11.4 C 97 % 10.94 C
944 19-05-2019 06:35:00 11.6 C 97 % 11.14 C
945 19-05-2019 06:40:00 11.6 C 97 % 11.14 C
946 19-05-2019 06:45:00 11.7 C 97 % 11.24 C
947 19-05-2019 06:50:00 11.7 C 97 % 11.24 C
948 19-05-2019 06:55:00 11.8 C 97 % 11.34 C
949 19-05-2019 07:00:00 11.8 C 97 % 11.34 C
950 19-05-2019 07:05:00 11.9 C 97 % 11.44 C
Sensor: Nr:Datum:Temp:Feuchte:Taupunkt:
Aussen-T/F 951 19-05-2019 07:10:00 12 C 97 % 11.54 C
952 19-05-2019 07:15:00 12.1 C 97 % 11.64 C
953 19-05-2019 07:20:00 12.1 C 97 % 11.64 C
954 19-05-2019 07:25:00 12.2 C 97 % 11.74 C
955 19-05-2019 07:30:00 12.2 C 97 % 11.74 C
956 19-05-2019 07:35:00 12.2 C 97 % 11.74 C
957 19-05-2019 07:40:00 12.2 C 97 % 11.74 C
958 19-05-2019 07:45:00 12.3 C 97 % 11.84 C
959 19-05-2019 07:50:00 12.3 C 97 % 11.84 C
960 19-05-2019 07:55:00 12.3 C 97 % 11.84 C
961 19-05-2019 08:00:00 12.4 C 97 % 11.94 C
962 19-05-2019 08:05:00 12.6 C 97 % 12.14 C
963 19-05-2019 08:10:00 12.6 C 97 % 12.14 C
964 19-05-2019 08:15:00 12.7 C 97 % 12.24 C
965 19-05-2019 08:20:00 12.8 C 97 % 12.34 C
966 19-05-2019 08:25:00 12.8 C 97 % 12.34 C
967 19-05-2019 08:30:00 12.8 C 97 % 12.34 C
968 19-05-2019 08:35:00 12.8 C 97 % 12.34 C
969 19-05-2019 08:40:00 12.9 C 97 % 12.44 C
970 19-05-2019 08:45:00 13.1 C 97 % 12.63 C
971 19-05-2019 08:50:00 13.2 C 97 % 12.73 C
972 19-05-2019 08:55:00 13.2 C 97 % 12.73 C
973 19-05-2019 09:00:00 13.3 C 97 % 12.83 C
974 19-05-2019 09:05:00 13.3 C 97 % 12.83 C
975 19-05-2019 09:10:00 13.4 C 97 % 12.93 C
Sensor: Nr:Datum:Temp:Feuchte:Taupunkt:
Aussen-T/F 976 19-05-2019 09:15:00 13.5 C 97 % 13.03 C
977 19-05-2019 09:20:00 13.6 C 97 % 13.13 C
978 19-05-2019 09:25:00 13.6 C 97 % 13.13 C
979 19-05-2019 09:30:00 13.7 C 97 % 13.23 C
980 19-05-2019 09:35:00 13.8 C 97 % 13.33 C
981 19-05-2019 09:40:00 13.9 C 97 % 13.43 C
982 19-05-2019 09:45:00 14.1 C 97 % 13.63 C
983 19-05-2019 09:50:00 14.2 C 97 % 13.73 C
984 19-05-2019 09:55:00 14.4 C 96 % 13.77 C
985 19-05-2019 10:00:00 14.4 C 96 % 13.77 C
986 19-05-2019 10:05:00 14.6 C 96 % 13.97 C
987 19-05-2019 10:10:00 14.7 C 96 % 14.07 C
988 19-05-2019 10:15:00 14.9 C 96 % 14.27 C
989 19-05-2019 10:20:00 14.9 C 95 % 14.11 C
990 19-05-2019 10:25:00 15.1 C 95 % 14.31 C
991 19-05-2019 10:30:00 15.3 C 95 % 14.5 C
992 19-05-2019 10:35:00 15.3 C 94 % 14.34 C
993 19-05-2019 10:40:00 15.4 C 94 % 14.44 C
994 19-05-2019 10:45:00 15.6 C 94 % 14.64 C
995 19-05-2019 10:50:00 15.6 C 94 % 14.64 C
996 19-05-2019 10:55:00 15.6 C 93 % 14.47 C
997 19-05-2019 11:00:00 15.6 C 93 % 14.47 C
998 19-05-2019 11:05:00 15.6 C 92 % 14.31 C
999 19-05-2019 11:10:00 15.7 C 92 % 14.4 C
1000 19-05-2019 11:15:00 15.9 C 92 % 14.6 C
Sensor: Nr:Datum:Temp:Feuchte:Taupunkt:
Aussen-T/F 1001 19-05-2019 11:20:00 16.1 C 92 % 14.8 C
1002 19-05-2019 11:25:00 16.2 C 91 % 14.73 C
1003 19-05-2019 11:30:00 16.4 C 91 % 14.93 C
1004 19-05-2019 11:35:00 16.6 C 90 % 14.95 C
1005 19-05-2019 11:40:00 16.6 C 89 % 14.78 C
1006 19-05-2019 11:45:00 16.8 C 88 % 14.8 C
1007 19-05-2019 11:50:00 16.8 C 86 % 14.45 C
1008 19-05-2019 11:55:00 16.9 C 87 % 14.72 C
1009 19-05-2019 12:00:00 17.2 C 86 % 14.84 C
1010 19-05-2019 12:05:00 17.3 C 84 % 14.57 C
1011 19-05-2019 12:10:00 17.6 C 87 % 15.41 C
1012 19-05-2019 12:15:00 17.8 C 86 % 15.43 C
1013 19-05-2019 12:20:00 17.8 C 83 % 14.88 C
1014 19-05-2019 12:25:00 18 C 85 % 15.44 C
1015 19-05-2019 12:30:00 18.2 C 84 % 15.45 C
1016 19-05-2019 12:35:00 18.3 C 84 % 15.55 C
1017 19-05-2019 12:40:00 18.4 C 84 % 15.65 C
1018 19-05-2019 12:45:00 18.5 C 83 % 15.56 C
1019 19-05-2019 12:50:00 18.4 C 83 % 15.46 C
1020 19-05-2019 12:55:00 18.4 C 82 % 15.27 C
1021 19-05-2019 13:00:00 18.5 C 83 % 15.56 C
1022 19-05-2019 13:05:00 18.4 C 81 % 15.08 C
1023 19-05-2019 13:10:00 18.4 C 80 % 14.89 C
1024 19-05-2019 13:15:00 18.5 C 78 % 14.59 C
1025 19-05-2019 13:20:00 18.6 C 76 % 14.29 C
Sensor: Nr:Datum:Temp:Feuchte:Taupunkt:
Aussen-T/F 1026 19-05-2019 13:25:00 18.7 C 77 % 14.59 C
1027 19-05-2019 13:30:00 18.8 C 77 % 14.68 C
1028 19-05-2019 13:35:00 18.9 C 76 % 14.58 C
1029 19-05-2019 13:40:00 19 C 77 % 14.88 C
1030 19-05-2019 13:45:00 19.1 C 77 % 14.97 C
1031 19-05-2019 13:50:00 19.2 C 74 % 14.46 C
1032 19-05-2019 13:55:00 19.3 C 74 % 14.55 C
1033 19-05-2019 14:00:00 19.4 C 69 % 13.57 C
1034 19-05-2019 14:05:00 19.5 C 70 % 13.89 C
1035 19-05-2019 14:10:00 19.7 C 71 % 14.3 C
1036 19-05-2019 14:15:00 19.8 C 70 % 14.17 C
1037 19-05-2019 14:20:00 19.9 C 67 % 13.59 C
1038 19-05-2019 14:25:00 20.1 C 67 % 13.78 C
1039 19-05-2019 14:30:00 20.2 C 65 % 13.41 C
1040 19-05-2019 14:35:00 20.4 C 68 % 14.3 C
1041 19-05-2019 14:40:00 20.6 C 67 % 14.26 C
1042 19-05-2019 14:45:00 20.8 C 64 % 13.74 C
1043 19-05-2019 14:50:00 21.1 C 64 % 14.03 C
1044 19-05-2019 14:55:00 21.2 C 65 % 14.36 C
1045 19-05-2019 15:00:00 21.4 C 61 % 13.57 C
1046 19-05-2019 15:05:00 21.6 C 65 % 14.74 C
1047 19-05-2019 15:10:00 21.8 C 60 % 13.69 C
1048 19-05-2019 15:15:00 22 C 62 % 14.39 C
1049 19-05-2019 15:20:00 22.2 C 65 % 15.31 C
1050 19-05-2019 15:25:00 22.4 C 61 % 14.51 C
Sensor: Nr:Datum:Temp:Feuchte:Taupunkt:
Aussen-T/F 1051 19-05-2019 15:30:00 22.8 C 62 % 15.14 C
1052 19-05-2019 15:35:00 23.1 C 61 % 15.17 C
1053 19-05-2019 15:40:00 23.3 C 60 % 15.1 C
1054 19-05-2019 15:45:00 23.3 C 59 % 14.84 C
1055 19-05-2019 15:50:00 23.3 C 60 % 15.1 C
1056 19-05-2019 15:55:00 23.3 C 60 % 15.1 C
1057 19-05-2019 16:00:00 23.3 C 59 % 14.84 C
1058 19-05-2019 16:05:00 23.1 C 59 % 14.65 C
1059 19-05-2019 16:10:00 22.8 C 61 % 14.89 C
1060 19-05-2019 16:15:00 22.9 C 62 % 15.23 C
1061 19-05-2019 16:20:00 23.2 C 60 % 15.01 C
1062 19-05-2019 16:25:00 23.5 C 61 % 15.55 C
1063 19-05-2019 16:30:00 23.8 C 58 % 15.04 C
1064 19-05-2019 16:35:00 24.2 C 57 % 15.14 C
1065 19-05-2019 16:40:00 24.4 C 59 % 15.87 C
1066 19-05-2019 16:45:00 24.2 C 55 % 14.59 C
1067 19-05-2019 16:50:00 23.3 C 56 % 14.03 C
1068 19-05-2019 16:55:00 22.1 C 54 % 12.36 C
1069 19-05-2019 17:00:00 20.9 C 55 % 11.53 C
1070 19-05-2019 17:05:00 20.3 C 57 % 11.51 C
1071 19-05-2019 17:10:00 20 C 60 % 12 C
1072 19-05-2019 17:15:00 19.6 C 61 % 11.88 C
1073 19-05-2019 17:20:00 19.3 C 63 % 12.09 C
1074 19-05-2019 17:25:00 19.1 C 63 % 11.9 C
1075 19-05-2019 17:30:00 18.8 C 65 % 12.09 C
Sensor: Nr:Datum:Temp:Feuchte:Taupunkt:
Aussen-T/F 1076 19-05-2019 17:35:00 18.7 C 66 % 12.22 C
1077 19-05-2019 17:40:00 18.6 C 67 % 12.36 C
1078 19-05-2019 17:45:00 18.5 C 68 % 12.49 C
1079 19-05-2019 17:50:00 18.6 C 68 % 12.58 C
1080 19-05-2019 17:55:00 18.7 C 67 % 12.45 C
1081 19-05-2019 18:00:00 18.8 C 68 % 12.77 C
1082 19-05-2019 18:05:00 18.9 C 68 % 12.87 C
1083 19-05-2019 18:10:00 19.2 C 67 % 12.93 C
1084 19-05-2019 18:15:00 19.7 C 67 % 13.4 C
1085 19-05-2019 18:20:00 20.1 C 64 % 13.08 C
1086 19-05-2019 18:25:00 20.2 C 64 % 13.18 C
1087 19-05-2019 18:30:00 20.4 C 64 % 13.37 C
1088 19-05-2019 18:35:00 20.7 C 64 % 13.65 C
1089 19-05-2019 18:40:00 20.7 C 63 % 13.41 C
1090 19-05-2019 18:45:00 20.4 C 63 % 13.12 C
1091 19-05-2019 18:50:00 20.2 C 65 % 13.41 C
1092 19-05-2019 18:55:00 20.3 C 65 % 13.51 C
1093 19-05-2019 19:00:00 20.3 C 64 % 13.27 C
1094 19-05-2019 19:05:00 20.4 C 65 % 13.6 C
1095 19-05-2019 19:10:00 20.6 C 63 % 13.31 C
1096 19-05-2019 19:15:00 20.7 C 63 % 13.41 C
1097 19-05-2019 19:20:00 20.8 C 62 % 13.26 C
1098 19-05-2019 19:25:00 20.8 C 63 % 13.5 C
1099 19-05-2019 19:30:00 20.7 C 60 % 12.66 C
1100 19-05-2019 19:35:00 20.5 C 62 % 12.97 C
Sensor: Nr:Datum:Temp:Feuchte:Taupunkt:
Aussen-T/F 1101 19-05-2019 19:40:00 20.4 C 64 % 13.37 C
1102 19-05-2019 19:45:00 20.3 C 64 % 13.27 C
1103 19-05-2019 19:50:00 20.2 C 64 % 13.18 C
1104 19-05-2019 19:55:00 20 C 64 % 12.99 C
1105 19-05-2019 20:00:00 19.9 C 64 % 12.89 C
1106 19-05-2019 20:05:00 19.7 C 64 % 12.7 C
1107 19-05-2019 20:10:00 19.6 C 65 % 12.84 C
1108 19-05-2019 20:15:00 19.5 C 64 % 12.51 C
1109 19-05-2019 20:20:00 19.4 C 67 % 13.12 C
1110 19-05-2019 20:25:00 19.4 C 69 % 13.57 C
1111 19-05-2019 20:30:00 19.2 C 70 % 13.6 C
1112 19-05-2019 20:35:00 18.9 C 70 % 13.31 C
1113 19-05-2019 20:40:00 18.6 C 71 % 13.24 C
1114 19-05-2019 20:45:00 18.2 C 72 % 13.07 C
1115 19-05-2019 20:50:00 17.8 C 73 % 12.9 C
1116 19-05-2019 20:55:00 17.4 C 74 % 12.72 C
1117 19-05-2019 21:00:00 17.1 C 76 % 12.84 C
1118 19-05-2019 21:05:00 16.8 C 76 % 12.55 C
1119 19-05-2019 21:10:00 16.5 C 77 % 12.46 C
1120 19-05-2019 21:15:00 16.2 C 78 % 12.36 C
1121 19-05-2019 21:20:00 15.9 C 80 % 12.46 C
1122 19-05-2019 21:25:00 15.7 C 81 % 12.45 C
1123 19-05-2019 21:30:00 15.4 C 82 % 12.35 C
1124 19-05-2019 21:35:00 15.2 C 83 % 12.33 C
1125 19-05-2019 21:40:00 15.1 C 83 % 12.24 C
Sensor: Nr:Datum:Temp:Feuchte:Taupunkt:
Aussen-T/F 1126 19-05-2019 21:45:00 14.9 C 84 % 12.22 C
1127 19-05-2019 21:50:00 14.8 C 85 % 12.3 C
1128 19-05-2019 21:55:00 14.8 C 85 % 12.3 C
1129 19-05-2019 22:00:00 14.7 C 85 % 12.21 C
1130 19-05-2019 22:05:00 14.6 C 85 % 12.11 C
1131 19-05-2019 22:10:00 14.5 C 85 % 12.01 C
1132 19-05-2019 22:15:00 14.5 C 86 % 12.19 C
1133 19-05-2019 22:20:00 14.4 C 87 % 12.27 C
1134 19-05-2019 22:25:00 14.4 C 87 % 12.27 C
1135 19-05-2019 22:30:00 14.5 C 87 % 12.36 C
1136 19-05-2019 22:35:00 14.5 C 87 % 12.36 C
1137 19-05-2019 22:40:00 14.5 C 87 % 12.36 C
1138 19-05-2019 22:45:00 14.6 C 86 % 12.29 C
1139 19-05-2019 22:50:00 14.6 C 86 % 12.29 C
1140 19-05-2019 22:55:00 14.6 C 86 % 12.29 C
1141 19-05-2019 23:00:00 14.6 C 86 % 12.29 C
1142 19-05-2019 23:05:00 14.6 C 86 % 12.29 C
1143 19-05-2019 23:10:00 14.8 C 84 % 12.12 C
1144 19-05-2019 23:15:00 14.8 C 83 % 11.94 C
1145 19-05-2019 23:20:00 14.9 C 84 % 12.22 C
1146 19-05-2019 23:25:00 14.8 C 84 % 12.12 C
1147 19-05-2019 23:30:00 14.8 C 84 % 12.12 C
1148 19-05-2019 23:35:00 14.7 C 84 % 12.03 C
1149 19-05-2019 23:40:00 14.6 C 85 % 12.11 C
1150 19-05-2019 23:45:00 14.5 C 85 % 12.01 C
Sensor: Nr:Datum:Temp:Feuchte:Taupunkt:
Aussen-T/F 1151 19-05-2019 23:50:00 14.4 C 86 % 12.09 C
1152 19-05-2019 23:55:00 14.4 C 86 % 12.09 C
1153 20-05-2019 00:00:00 14.6 C 85 % 12.11 C
1154 20-05-2019 00:05:00 14.7 C 85 % 12.21 C
1155 20-05-2019 00:10:00 14.7 C 85 % 12.21 C
1156 20-05-2019 00:15:00 14.8 C 85 % 12.3 C
1157 20-05-2019 00:20:00 14.7 C 85 % 12.21 C
1158 20-05-2019 00:25:00 14.7 C 85 % 12.21 C
1159 20-05-2019 00:30:00 14.5 C 85 % 12.01 C
1160 20-05-2019 00:35:00 14.4 C 86 % 12.09 C
1161 20-05-2019 00:40:00 14.3 C 86 % 11.99 C
1162 20-05-2019 00:45:00 14.2 C 86 % 11.89 C
1163 20-05-2019 00:50:00 14.1 C 87 % 11.97 C
1164 20-05-2019 00:55:00 14.1 C 88 % 12.14 C
1165 20-05-2019 01:00:00 13.9 C 88 % 11.95 C
1166 20-05-2019 01:05:00 13.9 C 88 % 11.95 C
1167 20-05-2019 01:10:00 13.8 C 89 % 12.02 C
1168 20-05-2019 01:15:00 13.7 C 89 % 11.92 C
1169 20-05-2019 01:20:00 13.6 C 89 % 11.82 C
1170 20-05-2019 01:25:00 13.4 C 89 % 11.63 C
1171 20-05-2019 01:30:00 13.4 C 90 % 11.79 C
1172 20-05-2019 01:35:00 13.3 C 90 % 11.7 C
1173 20-05-2019 01:40:00 13.2 C 90 % 11.6 C
1174 20-05-2019 01:45:00 13 C 90 % 11.4 C
1175 20-05-2019 01:50:00 12.9 C 90 % 11.3 C
Sensor: Nr:Datum:Temp:Feuchte:Taupunkt:
Aussen-T/F 1176 20-05-2019 01:55:00 12.8 C 90 % 11.2 C
1177 20-05-2019 02:00:00 12.8 C 91 % 11.37 C
1178 20-05-2019 02:05:00 12.8 C 91 % 11.37 C
1179 20-05-2019 02:10:00 12.7 C 91 % 11.27 C
1180 20-05-2019 02:15:00 12.7 C 91 % 11.27 C
1181 20-05-2019 02:20:00 12.6 C 91 % 11.17 C
1182 20-05-2019 02:25:00 12.5 C 91 % 11.07 C
1183 20-05-2019 02:30:00 12.4 C 92 % 11.14 C
1184 20-05-2019 02:35:00 12.3 C 92 % 11.04 C
1185 20-05-2019 02:40:00 12.3 C 92 % 11.04 C
1186 20-05-2019 02:45:00 12.2 C 92 % 10.94 C
1187 20-05-2019 02:50:00 12.1 C 92 % 10.84 C
1188 20-05-2019 02:55:00 12.2 C 93 % 11.1 C
1189 20-05-2019 03:00:00 12.2 C 93 % 11.1 C
1190 20-05-2019 03:05:00 12.2 C 93 % 11.1 C
1191 20-05-2019 03:10:00 12.3 C 93 % 11.2 C
1192 20-05-2019 03:15:00 12.3 C 93 % 11.2 C
1193 20-05-2019 03:20:00 12.3 C 93 % 11.2 C
1194 20-05-2019 03:25:00 12.3 C 93 % 11.2 C
1195 20-05-2019 03:30:00 12.2 C 93 % 11.1 C
1196 20-05-2019 03:35:00 12.2 C 93 % 11.1 C
1197 20-05-2019 03:40:00 12.2 C 93 % 11.1 C
1198 20-05-2019 03:45:00 12.1 C 93 % 11 C
1199 20-05-2019 03:50:00 12.2 C 94 % 11.26 C
1200 20-05-2019 03:55:00 12.3 C 94 % 11.36 C
Sensor: Nr:Datum:Temp:Feuchte:Taupunkt:
Aussen-T/F 1201 20-05-2019 04:00:00 12.3 C 94 % 11.36 C
1202 20-05-2019 04:05:00 12.4 C 94 % 11.46 C
1203 20-05-2019 04:10:00 12.5 C 94 % 11.56 C
1204 20-05-2019 04:15:00 12.6 C 94 % 11.66 C
1205 20-05-2019 04:20:00 12.7 C 94 % 11.76 C
1206 20-05-2019 04:25:00 12.7 C 94 % 11.76 C
1207 20-05-2019 04:30:00 12.8 C 94 % 11.86 C
1208 20-05-2019 04:35:00 12.8 C 94 % 11.86 C
1209 20-05-2019 04:40:00 12.8 C 94 % 11.86 C
1210 20-05-2019 04:45:00 12.9 C 94 % 11.96 C
1211 20-05-2019 04:50:00 12.9 C 94 % 11.96 C
1212 20-05-2019 04:55:00 13 C 94 % 12.06 C
1213 20-05-2019 05:00:00 13.1 C 94 % 12.16 C
1214 20-05-2019 05:05:00 13.1 C 93 % 11.99 C
1215 20-05-2019 05:10:00 13.1 C 93 % 11.99 C
1216 20-05-2019 05:15:00 13.1 C 93 % 11.99 C
1217 20-05-2019 05:20:00 13.1 C 93 % 11.99 C
1218 20-05-2019 05:25:00 13.1 C 93 % 11.99 C
1219 20-05-2019 05:30:00 13.1 C 93 % 11.99 C
1220 20-05-2019 05:35:00 13.1 C 93 % 11.99 C
1221 20-05-2019 05:40:00 13.2 C 93 % 12.09 C
1222 20-05-2019 05:45:00 13.2 C 93 % 12.09 C
1223 20-05-2019 05:50:00 13.2 C 93 % 12.09 C
1224 20-05-2019 05:55:00 13.2 C 92 % 11.93 C
1225 20-05-2019 06:00:00 13.2 C 92 % 11.93 C
Sensor: Nr:Datum:Temp:Feuchte:Taupunkt:
Aussen-T/F 1226 20-05-2019 06:05:00 13.2 C 92 % 11.93 C
1227 20-05-2019 06:10:00 13.2 C 92 % 11.93 C
1228 20-05-2019 06:15:00 13.2 C 92 % 11.93 C
1229 20-05-2019 06:20:00 13.2 C 92 % 11.93 C
1230 20-05-2019 06:25:00 13.2 C 92 % 11.93 C
1231 20-05-2019 06:30:00 13.1 C 92 % 11.83 C
1232 20-05-2019 06:35:00 13.1 C 92 % 11.83 C
1233 20-05-2019 06:40:00 13.1 C 92 % 11.83 C
1234 20-05-2019 06:45:00 13.1 C 92 % 11.83 C
1235 20-05-2019 06:50:00 13.1 C 92 % 11.83 C
1236 20-05-2019 06:55:00 13.1 C 92 % 11.83 C
1237 20-05-2019 07:00:00 13.1 C 92 % 11.83 C
1238 20-05-2019 07:05:00 13.1 C 92 % 11.83 C
1239 20-05-2019 07:10:00 13.1 C 92 % 11.83 C
1240 20-05-2019 07:15:00 13.1 C 92 % 11.83 C
1241 20-05-2019 07:20:00 13.1 C 92 % 11.83 C
1242 20-05-2019 07:25:00 13.2 C 92 % 11.93 C
1243 20-05-2019 07:30:00 13.2 C 92 % 11.93 C
1244 20-05-2019 07:35:00 13.2 C 92 % 11.93 C
1245 20-05-2019 07:40:00 13.2 C 92 % 11.93 C
1246 20-05-2019 07:45:00 13.2 C 92 % 11.93 C
1247 20-05-2019 07:50:00 13.2 C 92 % 11.93 C
1248 20-05-2019 07:55:00 13.3 C 92 % 12.03 C
1249 20-05-2019 08:00:00 13.3 C 92 % 12.03 C
1250 20-05-2019 08:05:00 13.3 C 92 % 12.03 C
Sensor: Nr:Datum:Temp:Feuchte:Taupunkt:
Aussen-T/F 1251 20-05-2019 08:10:00 13.3 C 92 % 12.03 C
1252 20-05-2019 08:15:00 13.4 C 92 % 12.13 C
1253 20-05-2019 08:20:00 13.4 C 92 % 12.13 C
1254 20-05-2019 08:25:00 13.4 C 92 % 12.13 C
1255 20-05-2019 08:30:00 13.5 C 92 % 12.23 C
1256 20-05-2019 08:35:00 13.6 C 92 % 12.33 C
1257 20-05-2019 08:40:00 13.6 C 92 % 12.33 C
1258 20-05-2019 08:45:00 13.6 C 91 % 12.16 C
1259 20-05-2019 08:50:00 13.6 C 91 % 12.16 C
1260 20-05-2019 08:55:00 13.7 C 91 % 12.26 C
1261 20-05-2019 09:00:00 13.7 C 91 % 12.26 C
1262 20-05-2019 09:05:00 13.8 C 91 % 12.36 C
1263 20-05-2019 09:10:00 13.8 C 91 % 12.36 C
1264 20-05-2019 09:15:00 13.8 C 90 % 12.19 C
1265 20-05-2019 09:20:00 13.9 C 90 % 12.29 C
1266 20-05-2019 09:25:00 13.9 C 90 % 12.29 C
1267 20-05-2019 09:30:00 14 C 90 % 12.39 C
1268 20-05-2019 09:35:00 14.1 C 90 % 12.49 C
1269 20-05-2019 09:40:00 14.1 C 89 % 12.32 C
1270 20-05-2019 09:45:00 14.1 C 89 % 12.32 C
1271 20-05-2019 09:50:00 14.1 C 89 % 12.32 C
1272 20-05-2019 09:55:00 14.1 C 89 % 12.32 C
1273 20-05-2019 10:00:00 14.2 C 89 % 12.41 C
1274 20-05-2019 10:05:00 14.2 C 89 % 12.41 C
1275 20-05-2019 10:10:00 14.2 C 89 % 12.41 C
Sensor: Nr:Datum:Temp:Feuchte:Taupunkt:
Aussen-T/F 1276 20-05-2019 10:15:00 14.2 C 89 % 12.41 C
1277 20-05-2019 10:20:00 14.2 C 88 % 12.24 C
1278 20-05-2019 10:25:00 14.3 C 89 % 12.51 C
1279 20-05-2019 10:30:00 14.3 C 89 % 12.51 C
1280 20-05-2019 10:35:00 14.3 C 89 % 12.51 C
1281 20-05-2019 10:40:00 14.3 C 89 % 12.51 C
1282 20-05-2019 10:45:00 14.3 C 89 % 12.51 C
1283 20-05-2019 10:50:00 14.3 C 90 % 12.68 C
1284 20-05-2019 10:55:00 14.3 C 90 % 12.68 C
1285 20-05-2019 11:00:00 14.3 C 90 % 12.68 C
1286 20-05-2019 11:05:00 14.2 C 91 % 12.75 C
1287 20-05-2019 11:10:00 14.2 C 91 % 12.75 C
1288 20-05-2019 11:15:00 14.1 C 92 % 12.82 C
1289 20-05-2019 11:20:00 14.1 C 92 % 12.82 C
1290 20-05-2019 11:25:00 14.1 C 92 % 12.82 C
1291 20-05-2019 11:30:00 14.1 C 93 % 12.99 C
1292 20-05-2019 11:35:00 14.2 C 93 % 13.08 C
1293 20-05-2019 11:40:00 14.1 C 92 % 12.82 C
1294 20-05-2019 11:45:00 14 C 92 % 12.72 C
1295 20-05-2019 11:50:00 14 C 92 % 12.72 C
1296 20-05-2019 11:55:00 14.1 C 93 % 12.99 C
1297 20-05-2019 12:00:00 14.1 C 93 % 12.99 C
1298 20-05-2019 12:05:00 14 C 92 % 12.72 C
1299 20-05-2019 12:10:00 14 C 92 % 12.72 C
1300 20-05-2019 12:15:00 14 C 92 % 12.72 C
Sensor: Nr:Datum:Temp:Feuchte:Taupunkt:
Aussen-T/F 1301 20-05-2019 12:20:00 14 C 92 % 12.72 C
1302 20-05-2019 12:25:00 14.1 C 92 % 12.82 C
1303 20-05-2019 12:30:00 14 C 92 % 12.72 C
1304 20-05-2019 12:35:00 14.1 C 92 % 12.82 C
1305 20-05-2019 12:40:00 14.1 C 92 % 12.82 C
1306 20-05-2019 12:45:00 14.2 C 92 % 12.92 C
1307 20-05-2019 12:50:00 14.2 C 92 % 12.92 C
1308 20-05-2019 12:55:00 14.2 C 92 % 12.92 C
1309 20-05-2019 13:00:00 14.1 C 91 % 12.65 C
1310 20-05-2019 13:05:00 14 C 92 % 12.72 C
1311 20-05-2019 13:10:00 13.9 C 92 % 12.62 C
1312 20-05-2019 13:15:00 13.8 C 92 % 12.52 C
1313 20-05-2019 13:20:00 13.8 C 92 % 12.52 C
1314 20-05-2019 13:25:00 13.8 C 92 % 12.52 C
1315 20-05-2019 13:30:00 13.8 C 92 % 12.52 C
1316 20-05-2019 13:35:00 13.8 C 92 % 12.52 C
1317 20-05-2019 13:40:00 13.8 C 92 % 12.52 C
1318 20-05-2019 13:45:00 13.8 C 93 % 12.69 C
1319 20-05-2019 13:50:00 13.8 C 92 % 12.52 C
1320 20-05-2019 13:55:00 13.9 C 92 % 12.62 C
1321 20-05-2019 14:00:00 14 C 92 % 12.72 C
1322 20-05-2019 14:05:00 14.1 C 92 % 12.82 C
1323 20-05-2019 14:10:00 14.1 C 92 % 12.82 C
1324 20-05-2019 14:15:00 14.2 C 92 % 12.92 C
1325 20-05-2019 14:20:00 14.3 C 92 % 13.02 C
Sensor: Nr:Datum:Temp:Feuchte:Taupunkt:
Aussen-T/F 1326 20-05-2019 14:25:00 14.3 C 91 % 12.85 C
1327 20-05-2019 14:30:00 14.4 C 91 % 12.95 C
1328 20-05-2019 14:35:00 14.4 C 91 % 12.95 C
1329 20-05-2019 14:40:00 14.4 C 91 % 12.95 C
1330 20-05-2019 14:45:00 14.4 C 91 % 12.95 C
1331 20-05-2019 14:50:00 14.4 C 91 % 12.95 C
1332 20-05-2019 14:55:00 14.5 C 91 % 13.05 C
1333 20-05-2019 15:00:00 14.6 C 90 % 12.98 C
1334 20-05-2019 15:05:00 14.6 C 89 % 12.81 C
1335 20-05-2019 15:10:00 14.6 C 89 % 12.81 C
1336 20-05-2019 15:15:00 14.6 C 89 % 12.81 C
1337 20-05-2019 15:20:00 14.6 C 90 % 12.98 C
1338 20-05-2019 15:25:00 14.6 C 90 % 12.98 C
1339 20-05-2019 15:30:00 14.6 C 90 % 12.98 C
1340 20-05-2019 15:35:00 14.6 C 89 % 12.81 C
1341 20-05-2019 15:40:00 14.6 C 89 % 12.81 C
1342 20-05-2019 15:45:00 14.6 C 89 % 12.81 C
1343 20-05-2019 15:50:00 14.6 C 88 % 12.64 C
1344 20-05-2019 15:55:00 14.6 C 89 % 12.81 C
1345 20-05-2019 16:00:00 14.7 C 88 % 12.73 C
1346 20-05-2019 16:05:00 14.7 C 88 % 12.73 C
1347 20-05-2019 16:10:00 14.7 C 89 % 12.91 C
1348 20-05-2019 16:15:00 14.8 C 88 % 12.83 C
1349 20-05-2019 16:20:00 14.8 C 89 % 13.01 C
1350 20-05-2019 16:25:00 14.8 C 88 % 12.83 C
Sensor: Nr:Datum:Temp:Feuchte:Taupunkt:
Aussen-T/F 1351 20-05-2019 16:30:00 14.9 C 88 % 12.93 C
1352 20-05-2019 16:35:00 14.9 C 87 % 12.76 C
1353 20-05-2019 16:40:00 14.9 C 87 % 12.76 C
1354 20-05-2019 16:45:00 14.9 C 87 % 12.76 C
1355 20-05-2019 16:50:00 15 C 87 % 12.86 C
1356 20-05-2019 16:55:00 15 C 87 % 12.86 C
1357 20-05-2019 17:00:00 15 C 87 % 12.86 C
1358 20-05-2019 17:05:00 15 C 87 % 12.86 C
1359 20-05-2019 17:10:00 15 C 87 % 12.86 C
1360 20-05-2019 17:15:00 15 C 87 % 12.86 C
1361 20-05-2019 17:20:00 14.9 C 87 % 12.76 C
1362 20-05-2019 17:25:00 14.9 C 87 % 12.76 C
1363 20-05-2019 17:30:00 14.9 C 87 % 12.76 C
1364 20-05-2019 17:35:00 14.9 C 87 % 12.76 C
1365 20-05-2019 17:40:00 14.9 C 87 % 12.76 C
1366 20-05-2019 17:45:00 14.9 C 87 % 12.76 C
1367 20-05-2019 17:50:00 14.9 C 87 % 12.76 C
1368 20-05-2019 17:55:00 14.9 C 87 % 12.76 C
1369 20-05-2019 18:00:00 14.9 C 87 % 12.76 C
1370 20-05-2019 18:05:00 14.9 C 86 % 12.58 C
1371 20-05-2019 18:10:00 14.9 C 86 % 12.58 C
1372 20-05-2019 18:15:00 14.9 C 86 % 12.58 C
1373 20-05-2019 18:20:00 14.9 C 86 % 12.58 C
1374 20-05-2019 18:25:00 14.9 C 86 % 12.58 C
1375 20-05-2019 18:30:00 14.9 C 86 % 12.58 C
Sensor: Nr:Datum:Temp:Feuchte:Taupunkt:
Aussen-T/F 1376 20-05-2019 18:35:00 14.9 C 86 % 12.58 C
1377 20-05-2019 18:40:00 14.8 C 86 % 12.48 C
1378 20-05-2019 18:45:00 14.8 C 86 % 12.48 C
1379 20-05-2019 18:50:00 14.8 C 86 % 12.48 C
1380 20-05-2019 18:55:00 14.8 C 86 % 12.48 C
1381 20-05-2019 19:00:00 14.7 C 86 % 12.38 C
1382 20-05-2019 19:05:00 14.7 C 86 % 12.38 C
1383 20-05-2019 19:10:00 14.7 C 86 % 12.38 C
1384 20-05-2019 19:15:00 14.7 C 86 % 12.38 C
1385 20-05-2019 19:20:00 14.7 C 87 % 12.56 C
1386 20-05-2019 19:25:00 14.7 C 87 % 12.56 C
1387 20-05-2019 19:30:00 14.6 C 87 % 12.46 C
1388 20-05-2019 19:35:00 14.6 C 87 % 12.46 C
1389 20-05-2019 19:40:00 14.6 C 87 % 12.46 C
1390 20-05-2019 19:45:00 14.6 C 87 % 12.46 C
1391 20-05-2019 19:50:00 14.6 C 87 % 12.46 C
1392 20-05-2019 19:55:00 14.6 C 87 % 12.46 C
1393 20-05-2019 20:00:00 14.6 C 87 % 12.46 C
1394 20-05-2019 20:05:00 14.6 C 87 % 12.46 C
1395 20-05-2019 20:10:00 14.6 C 87 % 12.46 C
1396 20-05-2019 20:15:00 14.6 C 87 % 12.46 C
1397 20-05-2019 20:20:00 14.6 C 87 % 12.46 C
1398 20-05-2019 20:25:00 14.5 C 87 % 12.36 C
1399 20-05-2019 20:30:00 14.5 C 87 % 12.36 C
1400 20-05-2019 20:35:00 14.5 C 87 % 12.36 C
Sensor: Nr:Datum:Temp:Feuchte:Taupunkt:
Aussen-T/F 1401 20-05-2019 20:40:00 14.4 C 87 % 12.27 C
1402 20-05-2019 20:45:00 14.4 C 88 % 12.44 C
1403 20-05-2019 20:50:00 14.4 C 88 % 12.44 C
1404 20-05-2019 20:55:00 14.3 C 88 % 12.34 C
1405 20-05-2019 21:00:00 14.3 C 88 % 12.34 C
1406 20-05-2019 21:05:00 14.2 C 88 % 12.24 C
1407 20-05-2019 21:10:00 14.2 C 88 % 12.24 C
1408 20-05-2019 21:15:00 14.2 C 88 % 12.24 C
1409 20-05-2019 21:20:00 14.2 C 88 % 12.24 C
1410 20-05-2019 21:25:00 14.2 C 88 % 12.24 C
1411 20-05-2019 21:30:00 14.2 C 88 % 12.24 C
1412 20-05-2019 21:35:00 14.2 C 88 % 12.24 C
1413 20-05-2019 21:40:00 14.2 C 88 % 12.24 C
1414 20-05-2019 21:45:00 14.2 C 88 % 12.24 C
1415 20-05-2019 21:50:00 14.1 C 88 % 12.14 C
1416 20-05-2019 21:55:00 14.1 C 88 % 12.14 C
1417 20-05-2019 22:00:00 14.1 C 88 % 12.14 C
1418 20-05-2019 22:05:00 14.1 C 88 % 12.14 C
1419 20-05-2019 22:10:00 14.1 C 88 % 12.14 C
1420 20-05-2019 22:15:00 14.1 C 88 % 12.14 C
1421 20-05-2019 22:20:00 14.1 C 88 % 12.14 C
1422 20-05-2019 22:25:00 14.1 C 88 % 12.14 C
1423 20-05-2019 22:30:00 14.1 C 88 % 12.14 C
1424 20-05-2019 22:35:00 14.1 C 88 % 12.14 C
1425 20-05-2019 22:40:00 14.1 C 88 % 12.14 C
Sensor: Nr:Datum:Temp:Feuchte:Taupunkt:
Aussen-T/F 1426 20-05-2019 22:45:00 14.1 C 88 % 12.14 C
1427 20-05-2019 22:50:00 14.1 C 88 % 12.14 C
1428 20-05-2019 22:55:00 14.1 C 88 % 12.14 C
1429 20-05-2019 23:00:00 14.1 C 88 % 12.14 C
1430 20-05-2019 23:05:00 14.1 C 88 % 12.14 C
1431 20-05-2019 23:10:00 14.1 C 87 % 11.97 C
1432 20-05-2019 23:15:00 14.1 C 88 % 12.14 C
1433 20-05-2019 23:20:00 14.1 C 87 % 11.97 C
1434 20-05-2019 23:25:00 14.2 C 86 % 11.89 C
1435 20-05-2019 23:30:00 14.2 C 86 % 11.89 C
1436 20-05-2019 23:35:00 14.3 C 86 % 11.99 C
1437 20-05-2019 23:40:00 14.3 C 86 % 11.99 C
1438 20-05-2019 23:45:00 14.3 C 86 % 11.99 C
1439 20-05-2019 23:50:00 14.4 C 86 % 12.09 C
1440 20-05-2019 23:55:00 14.4 C 85 % 11.91 C
1441 21-05-2019 00:00:00 14.4 C 85 % 11.91 C
1442 21-05-2019 00:05:00 14.4 C 86 % 12.09 C
1443 21-05-2019 00:10:00 14.3 C 86 % 11.99 C
1444 21-05-2019 00:15:00 14.3 C 86 % 11.99 C
1445 21-05-2019 00:20:00 14.3 C 86 % 11.99 C
1446 21-05-2019 00:25:00 14.3 C 86 % 11.99 C
1447 21-05-2019 00:30:00 14.2 C 87 % 12.07 C
1448 21-05-2019 00:35:00 14.2 C 87 % 12.07 C
1449 21-05-2019 00:40:00 14.2 C 87 % 12.07 C
1450 21-05-2019 00:45:00 14.1 C 88 % 12.14 C
Sensor: Nr:Datum:Temp:Feuchte:Taupunkt:
Aussen-T/F 1451 21-05-2019 00:50:00 14.1 C 88 % 12.14 C
1452 21-05-2019 00:55:00 14 C 88 % 12.05 C
1453 21-05-2019 01:00:00 13.9 C 89 % 12.12 C
1454 21-05-2019 01:05:00 13.9 C 89 % 12.12 C
1455 21-05-2019 01:10:00 13.9 C 89 % 12.12 C
1456 21-05-2019 01:15:00 13.8 C 89 % 12.02 C
1457 21-05-2019 01:20:00 13.8 C 89 % 12.02 C
1458 21-05-2019 01:25:00 13.8 C 89 % 12.02 C
1459 21-05-2019 01:30:00 13.8 C 90 % 12.19 C
1460 21-05-2019 01:35:00 13.8 C 90 % 12.19 C
1461 21-05-2019 01:40:00 13.8 C 90 % 12.19 C
1462 21-05-2019 01:45:00 13.7 C 90 % 12.09 C
1463 21-05-2019 01:50:00 13.7 C 90 % 12.09 C
1464 21-05-2019 01:55:00 13.7 C 90 % 12.09 C
1465 21-05-2019 02:00:00 13.7 C 91 % 12.26 C
1466 21-05-2019 02:05:00 13.6 C 91 % 12.16 C
1467 21-05-2019 02:10:00 13.6 C 91 % 12.16 C
1468 21-05-2019 02:15:00 13.6 C 90 % 11.99 C
1469 21-05-2019 02:20:00 13.6 C 90 % 11.99 C
1470 21-05-2019 02:25:00 13.6 C 90 % 11.99 C
1471 21-05-2019 02:30:00 13.6 C 90 % 11.99 C
1472 21-05-2019 02:35:00 13.6 C 91 % 12.16 C
1473 21-05-2019 02:40:00 13.6 C 91 % 12.16 C
1474 21-05-2019 02:45:00 13.5 C 91 % 12.06 C
1475 21-05-2019 02:50:00 13.4 C 91 % 11.96 C
Sensor: Nr:Datum:Temp:Feuchte:Taupunkt:
Aussen-T/F 1476 21-05-2019 02:55:00 13.4 C 91 % 11.96 C
1477 21-05-2019 03:00:00 13.4 C 91 % 11.96 C
1478 21-05-2019 03:05:00 13.4 C 92 % 12.13 C
1479 21-05-2019 03:10:00 13.3 C 91 % 11.86 C
1480 21-05-2019 03:15:00 13.3 C 91 % 11.86 C
1481 21-05-2019 03:20:00 13.3 C 91 % 11.86 C
1482 21-05-2019 03:25:00 13.3 C 92 % 12.03 C
1483 21-05-2019 03:30:00 13.3 C 91 % 11.86 C
1484 21-05-2019 03:35:00 13.2 C 92 % 11.93 C
1485 21-05-2019 03:40:00 13.2 C 92 % 11.93 C
1486 21-05-2019 03:45:00 13.2 C 92 % 11.93 C
1487 21-05-2019 03:50:00 13.2 C 91 % 11.76 C
1488 21-05-2019 03:55:00 13.2 C 92 % 11.93 C
1489 21-05-2019 04:00:00 13.2 C 92 % 11.93 C
1490 21-05-2019 04:05:00 13.2 C 92 % 11.93 C
1491 21-05-2019 04:10:00 13.1 C 92 % 11.83 C
1492 21-05-2019 04:15:00 13.1 C 91 % 11.67 C
1493 21-05-2019 04:20:00 13.1 C 91 % 11.67 C
1494 21-05-2019 04:25:00 13.1 C 91 % 11.67 C
1495 21-05-2019 04:30:00 13.1 C 91 % 11.67 C
1496 21-05-2019 04:35:00 13.1 C 91 % 11.67 C
1497 21-05-2019 04:40:00 13.1 C 91 % 11.67 C
1498 21-05-2019 04:45:00 13.1 C 90 % 11.5 C
1499 21-05-2019 04:50:00 13.1 C 90 % 11.5 C
1500 21-05-2019 04:55:00 13.1 C 90 % 11.5 C
Sensor: Nr:Datum:Temp:Feuchte:Taupunkt:
Aussen-T/F 1501 21-05-2019 05:00:00 13.1 C 90 % 11.5 C
1502 21-05-2019 05:05:00 13.1 C 90 % 11.5 C
1503 21-05-2019 05:10:00 13 C 90 % 11.4 C
1504 21-05-2019 05:15:00 12.9 C 91 % 11.47 C
1505 21-05-2019 05:20:00 12.8 C 91 % 11.37 C
1506 21-05-2019 05:25:00 12.8 C 92 % 11.53 C
1507 21-05-2019 05:30:00 12.7 C 92 % 11.43 C
1508 21-05-2019 05:35:00 12.6 C 92 % 11.34 C
1509 21-05-2019 05:40:00 12.5 C 92 % 11.24 C
1510 21-05-2019 05:45:00 12.4 C 93 % 11.3 C
1511 21-05-2019 05:50:00 12.4 C 93 % 11.3 C
1512 21-05-2019 05:55:00 12.3 C 93 % 11.2 C
1513 21-05-2019 06:00:00 12.3 C 93 % 11.2 C
1514 21-05-2019 06:05:00 12.3 C 94 % 11.36 C
1515 21-05-2019 06:10:00 12.3 C 94 % 11.36 C
1516 21-05-2019 06:15:00 12.2 C 93 % 11.1 C
1517 21-05-2019 06:20:00 12.2 C 93 % 11.1 C
1518 21-05-2019 06:25:00 12.2 C 94 % 11.26 C
1519 21-05-2019 06:30:00 12.2 C 94 % 11.26 C
1520 21-05-2019 06:35:00 12.2 C 94 % 11.26 C
1521 21-05-2019 06:40:00 12.2 C 94 % 11.26 C
1522 21-05-2019 06:45:00 12.1 C 94 % 11.16 C
1523 21-05-2019 06:50:00 12.2 C 94 % 11.26 C
1524 21-05-2019 06:55:00 12.2 C 94 % 11.26 C
1525 21-05-2019 07:00:00 12.2 C 94 % 11.26 C
Sensor: Nr:Datum:Temp:Feuchte:Taupunkt:
Aussen-T/F 1526 21-05-2019 07:05:00 12.2 C 94 % 11.26 C
1527 21-05-2019 07:10:00 12.2 C 94 % 11.26 C
1528 21-05-2019 07:15:00 12.2 C 94 % 11.26 C
1529 21-05-2019 07:20:00 12.2 C 94 % 11.26 C
1530 21-05-2019 07:25:00 12.2 C 94 % 11.26 C
1531 21-05-2019 07:30:00 12.2 C 94 % 11.26 C
1532 21-05-2019 07:35:00 12.2 C 94 % 11.26 C
1533 21-05-2019 07:40:00 12.3 C 94 % 11.36 C
1534 21-05-2019 07:45:00 12.3 C 94 % 11.36 C
1535 21-05-2019 07:50:00 12.3 C 94 % 11.36 C
1536 21-05-2019 07:55:00 12.3 C 94 % 11.36 C
1537 21-05-2019 08:00:00 12.3 C 93 % 11.2 C
1538 21-05-2019 08:05:00 12.3 C 93 % 11.2 C
1539 21-05-2019 08:10:00 12.3 C 94 % 11.36 C
1540 21-05-2019 08:15:00 12.3 C 93 % 11.2 C
1541 21-05-2019 08:20:00 12.3 C 93 % 11.2 C
1542 21-05-2019 08:25:00 12.3 C 93 % 11.2 C
1543 21-05-2019 08:30:00 12.3 C 94 % 11.36 C
1544 21-05-2019 08:35:00 12.3 C 94 % 11.36 C
1545 21-05-2019 08:40:00 12.3 C 94 % 11.36 C
1546 21-05-2019 08:45:00 12.3 C 94 % 11.36 C
1547 21-05-2019 08:50:00 12.3 C 94 % 11.36 C
1548 21-05-2019 08:55:00 12.3 C 94 % 11.36 C
1549 21-05-2019 09:00:00 12.3 C 94 % 11.36 C
1550 21-05-2019 09:05:00 12.3 C 94 % 11.36 C
Sensor: Nr:Datum:Temp:Feuchte:Taupunkt:
Aussen-T/F 1551 21-05-2019 09:10:00 12.3 C 94 % 11.36 C
1552 21-05-2019 09:15:00 12.3 C 93 % 11.2 C
1553 21-05-2019 09:20:00 12.3 C 94 % 11.36 C
1554 21-05-2019 09:25:00 12.3 C 93 % 11.2 C
1555 21-05-2019 09:30:00 12.3 C 93 % 11.2 C
1556 21-05-2019 09:35:00 12.3 C 94 % 11.36 C
1557 21-05-2019 09:40:00 12.3 C 93 % 11.2 C
1558 21-05-2019 09:45:00 12.3 C 93 % 11.2 C
1559 21-05-2019 09:50:00 12.3 C 94 % 11.36 C
1560 21-05-2019 09:55:00 12.3 C 94 % 11.36 C
1561 21-05-2019 10:00:00 12.3 C 94 % 11.36 C
1562 21-05-2019 10:05:00 12.3 C 94 % 11.36 C
1563 21-05-2019 10:10:00 12.3 C 94 % 11.36 C
1564 21-05-2019 10:15:00 12.2 C 94 % 11.26 C
1565 21-05-2019 10:20:00 12.2 C 94 % 11.26 C
1566 21-05-2019 10:25:00 12.2 C 93 % 11.1 C
1567 21-05-2019 10:30:00 12.2 C 93 % 11.1 C
1568 21-05-2019 10:35:00 12.2 C 93 % 11.1 C
1569 21-05-2019 10:40:00 12.2 C 93 % 11.1 C
1570 21-05-2019 10:45:00 12.2 C 94 % 11.26 C
1571 21-05-2019 10:50:00 12.2 C 94 % 11.26 C
1572 21-05-2019 10:55:00 12.3 C 94 % 11.36 C
1573 21-05-2019 11:00:00 12.2 C 94 % 11.26 C
1574 21-05-2019 11:05:00 12.2 C 93 % 11.1 C
1575 21-05-2019 11:10:00 12.2 C 93 % 11.1 C
Sensor: Nr:Datum:Temp:Feuchte:Taupunkt:
Aussen-T/F 1576 21-05-2019 11:15:00 12.2 C 93 % 11.1 C
1577 21-05-2019 11:20:00 12.2 C 93 % 11.1 C
1578 21-05-2019 11:25:00 12.2 C 93 % 11.1 C
1579 21-05-2019 11:30:00 12.1 C 93 % 11 C
1580 21-05-2019 11:35:00 12.1 C 93 % 11 C
1581 21-05-2019 11:40:00 12.1 C 93 % 11 C
1582 21-05-2019 11:45:00 12.1 C 93 % 11 C
1583 21-05-2019 11:50:00 12.1 C 93 % 11 C
1584 21-05-2019 11:55:00 12.1 C 93 % 11 C
1585 21-05-2019 12:00:00 12.1 C 93 % 11 C
1586 21-05-2019 12:05:00 12.1 C 94 % 11.16 C
1587 21-05-2019 12:10:00 12.1 C 94 % 11.16 C
1588 21-05-2019 12:15:00 12.1 C 94 % 11.16 C
1589 21-05-2019 12:20:00 12.1 C 94 % 11.16 C
1590 21-05-2019 12:25:00 12.1 C 94 % 11.16 C
1591 21-05-2019 12:30:00 12.1 C 94 % 11.16 C
1592 21-05-2019 12:35:00 12.1 C 94 % 11.16 C
1593 21-05-2019 12:40:00 12.2 C 94 % 11.26 C
1594 21-05-2019 12:45:00 12.2 C 94 % 11.26 C
1595 21-05-2019 12:50:00 12.1 C 93 % 11 C
1596 21-05-2019 12:55:00 12.1 C 94 % 11.16 C
1597 21-05-2019 13:00:00 12.1 C 94 % 11.16 C
1598 21-05-2019 13:05:00 12.2 C 94 % 11.26 C
1599 21-05-2019 13:10:00 12.2 C 94 % 11.26 C
1600 21-05-2019 13:15:00 12.2 C 94 % 11.26 C
Sensor: Nr:Datum:Temp:Feuchte:Taupunkt:
Aussen-T/F 1601 21-05-2019 13:20:00 12.2 C 94 % 11.26 C
1602 21-05-2019 13:25:00 12.3 C 94 % 11.36 C
1603 21-05-2019 13:30:00 12.2 C 94 % 11.26 C
1604 21-05-2019 13:35:00 12.2 C 94 % 11.26 C
1605 21-05-2019 13:40:00 12.3 C 94 % 11.36 C
1606 21-05-2019 13:45:00 12.3 C 94 % 11.36 C
1607 21-05-2019 13:50:00 12.3 C 94 % 11.36 C
1608 21-05-2019 13:55:00 12.2 C 94 % 11.26 C
1609 21-05-2019 14:00:00 12.2 C 94 % 11.26 C
1610 21-05-2019 14:05:00 12.2 C 94 % 11.26 C
1611 21-05-2019 14:10:00 12.2 C 94 % 11.26 C
1612 21-05-2019 14:15:00 12.2 C 94 % 11.26 C
1613 21-05-2019 14:20:00 12.2 C 94 % 11.26 C
1614 21-05-2019 14:25:00 12.1 C 94 % 11.16 C
1615 21-05-2019 14:30:00 12.1 C 94 % 11.16 C
1616 21-05-2019 14:35:00 12.1 C 93 % 11 C
1617 21-05-2019 14:40:00 12.2 C 94 % 11.26 C
1618 21-05-2019 14:45:00 12.1 C 93 % 11 C
1619 21-05-2019 14:50:00 12.1 C 93 % 11 C
1620 21-05-2019 14:55:00 12.1 C 93 % 11 C
1621 21-05-2019 15:00:00 12.1 C 93 % 11 C
1622 21-05-2019 15:05:00 12.1 C 93 % 11 C
1623 21-05-2019 15:10:00 12.1 C 93 % 11 C
1624 21-05-2019 15:15:00 12.1 C 93 % 11 C
1625 21-05-2019 15:20:00 12.1 C 93 % 11 C
Sensor: Nr:Datum:Temp:Feuchte:Taupunkt:
Aussen-T/F 1626 21-05-2019 15:25:00 12.2 C 93 % 11.1 C
1627 21-05-2019 15:30:00 12.2 C 93 % 11.1 C
1628 21-05-2019 15:35:00 12.2 C 93 % 11.1 C
1629 21-05-2019 15:40:00 12.2 C 93 % 11.1 C
1630 21-05-2019 15:45:00 12.2 C 93 % 11.1 C
1631 21-05-2019 15:50:00 12.2 C 93 % 11.1 C
1632 21-05-2019 15:55:00 12.2 C 94 % 11.26 C
1633 21-05-2019 16:00:00 12.2 C 94 % 11.26 C
1634 21-05-2019 16:05:00 12.1 C 93 % 11 C
1635 21-05-2019 16:10:00 12.1 C 94 % 11.16 C
1636 21-05-2019 16:15:00 12.1 C 94 % 11.16 C
1637 21-05-2019 16:20:00 12.1 C 94 % 11.16 C
1638 21-05-2019 16:25:00 12.1 C 94 % 11.16 C
1639 21-05-2019 16:30:00 12.1 C 94 % 11.16 C
1640 21-05-2019 16:35:00 12.1 C 94 % 11.16 C
1641 21-05-2019 16:40:00 12 C 94 % 11.07 C
1642 21-05-2019 16:45:00 12 C 94 % 11.07 C
1643 21-05-2019 16:50:00 12.1 C 94 % 11.16 C
1644 21-05-2019 16:55:00 12.1 C 94 % 11.16 C
1645 21-05-2019 17:00:00 12.1 C 95 % 11.32 C
1646 21-05-2019 17:05:00 12.2 C 94 % 11.26 C
1647 21-05-2019 17:10:00 12.2 C 94 % 11.26 C
1648 21-05-2019 17:15:00 12.1 C 94 % 11.16 C
1649 21-05-2019 17:20:00 12.2 C 94 % 11.26 C
1650 21-05-2019 17:25:00 12.2 C 94 % 11.26 C
Sensor: Nr:Datum:Temp:Feuchte:Taupunkt:
Aussen-T/F 1651 21-05-2019 17:30:00 12.2 C 94 % 11.26 C
1652 21-05-2019 17:35:00 12.2 C 94 % 11.26 C
1653 21-05-2019 17:40:00 12.2 C 94 % 11.26 C
1654 21-05-2019 17:45:00 12.2 C 94 % 11.26 C
1655 21-05-2019 17:50:00 12.2 C 94 % 11.26 C
1656 21-05-2019 17:55:00 12.2 C 94 % 11.26 C
1657 21-05-2019 18:00:00 12.2 C 94 % 11.26 C
1658 21-05-2019 18:05:00 12.2 C 94 % 11.26 C
1659 21-05-2019 18:10:00 12.2 C 94 % 11.26 C
1660 21-05-2019 18:15:00 12.2 C 94 % 11.26 C
1661 21-05-2019 18:20:00 12.3 C 94 % 11.36 C
1662 21-05-2019 18:25:00 12.3 C 94 % 11.36 C
1663 21-05-2019 18:30:00 12.3 C 94 % 11.36 C
1664 21-05-2019 18:35:00 12.4 C 95 % 11.62 C
1665 21-05-2019 18:40:00 12.3 C 94 % 11.36 C
1666 21-05-2019 18:45:00 12.3 C 94 % 11.36 C
1667 21-05-2019 18:50:00 12.3 C 94 % 11.36 C
1668 21-05-2019 18:55:00 12.3 C 94 % 11.36 C
1669 21-05-2019 19:00:00 12.4 C 94 % 11.46 C
1670 21-05-2019 19:05:00 12.4 C 94 % 11.46 C
1671 21-05-2019 19:10:00 12.4 C 94 % 11.46 C
1672 21-05-2019 19:15:00 12.4 C 93 % 11.3 C
1673 21-05-2019 19:20:00 12.4 C 93 % 11.3 C
1674 21-05-2019 19:25:00 12.4 C 93 % 11.3 C
1675 21-05-2019 19:30:00 12.4 C 93 % 11.3 C
Sensor: Nr:Datum:Temp:Feuchte:Taupunkt:
Aussen-T/F 1676 21-05-2019 19:35:00 12.4 C 94 % 11.46 C
1677 21-05-2019 19:40:00 12.4 C 94 % 11.46 C
1678 21-05-2019 19:45:00 12.3 C 94 % 11.36 C
1679 21-05-2019 19:50:00 12.3 C 94 % 11.36 C
1680 21-05-2019 19:55:00 12.3 C 94 % 11.36 C
1681 21-05-2019 20:00:00 12.3 C 94 % 11.36 C
1682 21-05-2019 20:05:00 12.3 C 94 % 11.36 C
1683 21-05-2019 20:10:00 12.3 C 95 % 11.52 C
1684 21-05-2019 20:15:00 12.3 C 95 % 11.52 C
1685 21-05-2019 20:20:00 12.2 C 95 % 11.42 C
1686 21-05-2019 20:25:00 12.2 C 95 % 11.42 C
1687 21-05-2019 20:30:00 12.2 C 95 % 11.42 C
1688 21-05-2019 20:35:00 12.2 C 95 % 11.42 C
1689 21-05-2019 20:40:00 12.2 C 95 % 11.42 C
1690 21-05-2019 20:45:00 12.2 C 95 % 11.42 C
1691 21-05-2019 20:50:00 12.1 C 95 % 11.32 C
1692 21-05-2019 20:55:00 12.1 C 95 % 11.32 C
1693 21-05-2019 21:00:00 12.1 C 95 % 11.32 C
1694 21-05-2019 21:05:00 12.1 C 95 % 11.32 C
1695 21-05-2019 21:10:00 12.1 C 95 % 11.32 C
1696 21-05-2019 21:15:00 12.1 C 95 % 11.32 C
1697 21-05-2019 21:20:00 12.1 C 95 % 11.32 C
1698 21-05-2019 21:25:00 12.1 C 95 % 11.32 C
1699 21-05-2019 21:30:00 12.1 C 95 % 11.32 C
1700 21-05-2019 21:35:00 12.1 C 95 % 11.32 C
Sensor: Nr:Datum:Temp:Feuchte:Taupunkt:
Aussen-T/F 1701 21-05-2019 21:40:00 12.1 C 95 % 11.32 C
1702 21-05-2019 21:45:00 12.1 C 95 % 11.32 C
1703 21-05-2019 21:50:00 12.1 C 95 % 11.32 C
1704 21-05-2019 21:55:00 12.1 C 95 % 11.32 C
1705 21-05-2019 22:00:00 12.1 C 95 % 11.32 C
1706 21-05-2019 22:05:00 12.1 C 95 % 11.32 C
1707 21-05-2019 22:10:00 12 C 95 % 11.22 C
1708 21-05-2019 22:15:00 12.1 C 95 % 11.32 C
1709 21-05-2019 22:20:00 12.1 C 95 % 11.32 C
1710 21-05-2019 22:25:00 12.1 C 95 % 11.32 C
1711 21-05-2019 22:30:00 12.1 C 95 % 11.32 C
1712 21-05-2019 22:35:00 12 C 95 % 11.22 C
1713 21-05-2019 22:40:00 12 C 96 % 11.38 C
1714 21-05-2019 22:45:00 12 C 96 % 11.38 C
1715 21-05-2019 22:50:00 12 C 96 % 11.38 C
1716 21-05-2019 22:55:00 11.9 C 96 % 11.28 C
1717 21-05-2019 23:00:00 11.9 C 96 % 11.28 C
1718 21-05-2019 23:05:00 11.9 C 96 % 11.28 C
1719 21-05-2019 23:10:00 11.9 C 96 % 11.28 C
1720 21-05-2019 23:15:00 11.9 C 96 % 11.28 C
1721 21-05-2019 23:20:00 11.9 C 96 % 11.28 C
1722 21-05-2019 23:25:00 11.9 C 96 % 11.28 C
1723 21-05-2019 23:30:00 11.9 C 96 % 11.28 C
1724 21-05-2019 23:35:00 11.8 C 96 % 11.18 C
1725 21-05-2019 23:40:00 11.8 C 96 % 11.18 C
Sensor: Nr:Datum:Temp:Feuchte:Taupunkt:
Aussen-T/F 1726 21-05-2019 23:45:00 11.8 C 96 % 11.18 C
1727 21-05-2019 23:50:00 11.8 C 96 % 11.18 C
1728 21-05-2019 23:55:00 11.8 C 96 % 11.18 C
1729 22-05-2019 00:00:00 11.8 C 96 % 11.18 C
1730 22-05-2019 00:05:00 11.8 C 96 % 11.18 C
1731 22-05-2019 00:10:00 11.8 C 96 % 11.18 C
1732 22-05-2019 00:15:00 11.8 C 96 % 11.18 C
1733 22-05-2019 00:20:00 11.8 C 96 % 11.18 C
1734 22-05-2019 00:25:00 11.8 C 96 % 11.18 C
1735 22-05-2019 00:30:00 11.8 C 96 % 11.18 C
1736 22-05-2019 00:35:00 11.8 C 96 % 11.18 C
1737 22-05-2019 00:40:00 11.8 C 96 % 11.18 C
1738 22-05-2019 00:45:00 11.8 C 96 % 11.18 C
1739 22-05-2019 00:50:00 11.8 C 96 % 11.18 C
1740 22-05-2019 00:55:00 11.8 C 96 % 11.18 C
1741 22-05-2019 01:00:00 11.8 C 96 % 11.18 C
1742 22-05-2019 01:05:00 11.8 C 96 % 11.18 C
1743 22-05-2019 01:10:00 11.8 C 96 % 11.18 C
1744 22-05-2019 01:15:00 11.8 C 96 % 11.18 C
1745 22-05-2019 01:20:00 11.8 C 96 % 11.18 C
1746 22-05-2019 01:25:00 11.8 C 96 % 11.18 C
1747 22-05-2019 01:30:00 11.8 C 96 % 11.18 C
1748 22-05-2019 01:35:00 11.7 C 96 % 11.08 C
1749 22-05-2019 01:40:00 11.7 C 96 % 11.08 C
1750 22-05-2019 01:45:00 11.7 C 96 % 11.08 C
Sensor: Nr:Datum:Temp:Feuchte:Taupunkt:
Aussen-T/F 1751 22-05-2019 01:50:00 11.7 C 96 % 11.08 C
1752 22-05-2019 01:55:00 11.6 C 96 % 10.98 C
1753 22-05-2019 02:00:00 11.6 C 96 % 10.98 C
1754 22-05-2019 02:05:00 11.6 C 96 % 10.98 C
1755 22-05-2019 02:10:00 11.6 C 96 % 10.98 C
1756 22-05-2019 02:15:00 11.6 C 96 % 10.98 C
1757 22-05-2019 02:20:00 11.6 C 96 % 10.98 C
1758 22-05-2019 02:25:00 11.5 C 96 % 10.88 C
1759 22-05-2019 02:30:00 11.6 C 96 % 10.98 C
1760 22-05-2019 02:35:00 11.6 C 96 % 10.98 C
1761 22-05-2019 02:40:00 11.6 C 96 % 10.98 C
1762 22-05-2019 02:45:00 11.5 C 96 % 10.88 C
1763 22-05-2019 02:50:00 11.5 C 96 % 10.88 C
1764 22-05-2019 02:55:00 11.5 C 96 % 10.88 C
1765 22-05-2019 03:00:00 11.5 C 96 % 10.88 C
1766 22-05-2019 03:05:00 11.5 C 96 % 10.88 C
1767 22-05-2019 03:10:00 11.5 C 96 % 10.88 C
1768 22-05-2019 03:15:00 11.6 C 96 % 10.98 C
1769 22-05-2019 03:20:00 11.6 C 96 % 10.98 C
1770 22-05-2019 03:25:00 11.6 C 96 % 10.98 C
1771 22-05-2019 03:30:00 11.6 C 96 % 10.98 C
1772 22-05-2019 03:35:00 11.6 C 96 % 10.98 C
1773 22-05-2019 03:40:00 11.6 C 96 % 10.98 C
1774 22-05-2019 03:45:00 11.6 C 96 % 10.98 C
1775 22-05-2019 03:50:00 11.6 C 96 % 10.98 C
Sensor: Nr:Datum:Temp:Feuchte:Taupunkt:
Aussen-T/F 1776 22-05-2019 03:55:00 11.6 C 96 % 10.98 C
1777 22-05-2019 04:00:00 11.6 C 96 % 10.98 C
1778 22-05-2019 04:05:00 11.5 C 96 % 10.88 C
1779 22-05-2019 04:10:00 11.5 C 96 % 10.88 C
1780 22-05-2019 04:15:00 11.5 C 95 % 10.73 C
1781 22-05-2019 04:20:00 11.4 C 95 % 10.63 C
1782 22-05-2019 04:25:00 11.4 C 95 % 10.63 C
1783 22-05-2019 04:30:00 11.4 C 95 % 10.63 C
1784 22-05-2019 04:35:00 11.4 C 95 % 10.63 C
1785 22-05-2019 04:40:00 11.4 C 95 % 10.63 C
1786 22-05-2019 04:45:00 11.4 C 95 % 10.63 C
1787 22-05-2019 04:50:00 11.4 C 95 % 10.63 C
1788 22-05-2019 04:55:00 11.4 C 95 % 10.63 C
1789 22-05-2019 05:00:00 11.4 C 95 % 10.63 C
1790 22-05-2019 05:05:00 11.4 C 95 % 10.63 C
1791 22-05-2019 05:10:00 11.4 C 95 % 10.63 C
1792 22-05-2019 05:15:00 11.4 C 95 % 10.63 C
1793 22-05-2019 05:20:00 11.4 C 95 % 10.63 C
1794 22-05-2019 05:25:00 11.3 C 95 % 10.53 C
1795 22-05-2019 05:30:00 11.3 C 95 % 10.53 C
1796 22-05-2019 05:35:00 11.3 C 95 % 10.53 C
1797 22-05-2019 05:40:00 11.3 C 95 % 10.53 C
1798 22-05-2019 05:45:00 11.3 C 95 % 10.53 C
1799 22-05-2019 05:50:00 11.3 C 95 % 10.53 C
1800 22-05-2019 05:55:00 11.2 C 95 % 10.43 C
Sensor: Nr:Datum:Temp:Feuchte:Taupunkt:
Aussen-T/F 1801 22-05-2019 06:00:00 11.2 C 94 % 10.27 C
1802 22-05-2019 06:05:00 11.2 C 94 % 10.27 C
1803 22-05-2019 06:10:00 11.2 C 94 % 10.27 C
1804 22-05-2019 06:15:00 11.1 C 94 % 10.17 C
1805 22-05-2019 06:20:00 11.1 C 94 % 10.17 C
1806 22-05-2019 06:25:00 11.1 C 94 % 10.17 C
1807 22-05-2019 06:30:00 11.1 C 94 % 10.17 C
1808 22-05-2019 06:35:00 11 C 94 % 10.07 C
1809 22-05-2019 06:40:00 11 C 94 % 10.07 C
1810 22-05-2019 06:45:00 10.9 C 94 % 9.97 C
1811 22-05-2019 06:50:00 10.9 C 94 % 9.97 C
1812 22-05-2019 06:55:00 10.8 C 94 % 9.87 C
1813 22-05-2019 07:00:00 10.8 C 94 % 9.87 C
1814 22-05-2019 07:05:00 10.8 C 94 % 9.87 C
1815 22-05-2019 07:10:00 10.8 C 94 % 9.87 C
1816 22-05-2019 07:15:00 10.8 C 94 % 9.87 C
1817 22-05-2019 07:20:00 10.7 C 93 % 9.62 C
1818 22-05-2019 07:25:00 10.7 C 93 % 9.62 C
1819 22-05-2019 07:30:00 10.7 C 93 % 9.62 C
1820 22-05-2019 07:35:00 10.6 C 93 % 9.52 C
1821 22-05-2019 07:40:00 10.6 C 93 % 9.52 C
1822 22-05-2019 07:45:00 10.5 C 93 % 9.42 C
1823 22-05-2019 07:50:00 10.5 C 93 % 9.42 C
1824 22-05-2019 07:55:00 10.5 C 93 % 9.42 C
1825 22-05-2019 08:00:00 10.4 C 93 % 9.32 C
Sensor: Nr:Datum:Temp:Feuchte:Taupunkt:
Aussen-T/F 1826 22-05-2019 08:05:00 10.4 C 93 % 9.32 C
1827 22-05-2019 08:10:00 10.3 C 93 % 9.22 C
1828 22-05-2019 08:15:00 10.3 C 93 % 9.22 C
1829 22-05-2019 08:20:00 10.3 C 92 % 9.06 C
1830 22-05-2019 08:25:00 10.3 C 92 % 9.06 C
1831 22-05-2019 08:30:00 10.3 C 92 % 9.06 C
1832 22-05-2019 08:35:00 10.3 C 92 % 9.06 C
1833 22-05-2019 08:40:00 10.3 C 91 % 8.9 C
1834 22-05-2019 08:45:00 10.3 C 91 % 8.9 C
1835 22-05-2019 08:50:00 10.4 C 91 % 9 C
1836 22-05-2019 08:55:00 10.4 C 90 % 8.83 C
1837 22-05-2019 09:00:00 10.4 C 89 % 8.67 C
1838 22-05-2019 09:05:00 10.4 C 89 % 8.67 C
1839 22-05-2019 09:10:00 10.4 C 88 % 8.5 C
1840 22-05-2019 09:15:00 10.4 C 89 % 8.67 C
1841 22-05-2019 09:20:00 10.4 C 87 % 8.33 C
1842 22-05-2019 09:25:00 10.4 C 87 % 8.33 C
1843 22-05-2019 09:30:00 10.4 C 87 % 8.33 C
1844 22-05-2019 09:35:00 10.5 C 87 % 8.43 C
1845 22-05-2019 09:40:00 10.6 C 87 % 8.53 C
1846 22-05-2019 09:45:00 10.6 C 86 % 8.36 C
1847 22-05-2019 09:50:00 10.6 C 85 % 8.19 C
1848 22-05-2019 09:55:00 10.6 C 86 % 8.36 C
1849 22-05-2019 10:00:00 10.6 C 86 % 8.36 C
1850 22-05-2019 10:05:00 10.7 C 86 % 8.46 C
Sensor: Nr:Datum:Temp:Feuchte:Taupunkt:
Aussen-T/F 1851 22-05-2019 10:10:00 10.7 C 85 % 8.28 C
1852 22-05-2019 10:15:00 10.8 C 84 % 8.21 C
1853 22-05-2019 10:20:00 10.8 C 83 % 8.03 C
1854 22-05-2019 10:25:00 10.9 C 83 % 8.13 C
1855 22-05-2019 10:30:00 10.9 C 82 % 7.95 C
1856 22-05-2019 10:35:00 11 C 83 % 8.23 C
1857 22-05-2019 10:40:00 11 C 82 % 8.05 C
1858 22-05-2019 10:45:00 11 C 82 % 8.05 C
1859 22-05-2019 10:50:00 11.1 C 83 % 8.33 C
1860 22-05-2019 10:55:00 11.1 C 82 % 8.15 C
1861 22-05-2019 11:00:00 11.2 C 83 % 8.42 C
1862 22-05-2019 11:05:00 11.2 C 83 % 8.42 C
1863 22-05-2019 11:10:00 11.3 C 83 % 8.52 C
1864 22-05-2019 11:15:00 11.3 C 83 % 8.52 C
1865 22-05-2019 11:20:00 11.3 C 82 % 8.34 C
1866 22-05-2019 11:25:00 11.3 C 83 % 8.52 C
1867 22-05-2019 11:30:00 11.4 C 83 % 8.62 C
1868 22-05-2019 11:35:00 11.6 C 82 % 8.64 C
1869 22-05-2019 11:40:00 11.7 C 83 % 8.91 C
1870 22-05-2019 11:45:00 11.8 C 82 % 8.83 C
1871 22-05-2019 11:50:00 12 C 81 % 8.84 C
1872 22-05-2019 11:55:00 12.1 C 80 % 8.76 C
1873 22-05-2019 12:00:00 12.3 C 80 % 8.95 C
1874 22-05-2019 12:05:00 12.4 C 79 % 8.86 C
1875 22-05-2019 12:10:00 12.6 C 79 % 9.06 C
Sensor: Nr:Datum:Temp:Feuchte:Taupunkt:
Aussen-T/F 1876 22-05-2019 12:15:00 12.6 C 78 % 8.87 C
1877 22-05-2019 12:20:00 12.7 C 77 % 8.78 C
1878 22-05-2019 12:25:00 12.8 C 75 % 8.48 C
1879 22-05-2019 12:30:00 12.9 C 76 % 8.78 C
1880 22-05-2019 12:35:00 13.1 C 76 % 8.97 C
1881 22-05-2019 12:40:00 13.2 C 74 % 8.67 C
1882 22-05-2019 12:45:00 13.2 C 75 % 8.87 C
1883 22-05-2019 12:50:00 13.2 C 76 % 9.07 C
1884 22-05-2019 12:55:00 13.2 C 75 % 8.87 C
1885 22-05-2019 13:00:00 13.2 C 73 % 8.47 C
1886 22-05-2019 13:05:00 13.2 C 74 % 8.67 C
1887 22-05-2019 13:10:00 13.3 C 76 % 9.16 C
1888 22-05-2019 13:15:00 13.4 C 75 % 9.06 C
1889 22-05-2019 13:20:00 13.3 C 73 % 8.57 C
1890 22-05-2019 13:25:00 13.4 C 75 % 9.06 C
1891 22-05-2019 13:30:00 13.7 C 74 % 9.15 C
1892 22-05-2019 13:35:00 14 C 73 % 9.24 C
1893 22-05-2019 13:40:00 14.1 C 72 % 9.13 C
1894 22-05-2019 13:45:00 13.9 C 72 % 8.94 C
1895 22-05-2019 13:50:00 14.1 C 75 % 9.74 C
1896 22-05-2019 13:55:00 14.3 C 71 % 9.12 C
1897 22-05-2019 14:00:00 14.5 C 72 % 9.52 C
1898 22-05-2019 14:05:00 14.6 C 72 % 9.61 C
1899 22-05-2019 14:10:00 14.7 C 72 % 9.71 C
1900 22-05-2019 14:15:00 14.7 C 69 % 9.08 C
Sensor: Nr:Datum:Temp:Feuchte:Taupunkt:
Aussen-T/F 1901 22-05-2019 14:20:00 14.8 C 70 % 9.39 C
1902 22-05-2019 14:25:00 15 C 70 % 9.58 C
1903 22-05-2019 14:30:00 15 C 69 % 9.36 C
1904 22-05-2019 14:35:00 15.1 C 71 % 9.89 C
1905 22-05-2019 14:40:00 15.2 C 70 % 9.77 C
1906 22-05-2019 14:45:00 15.3 C 67 % 9.21 C
1907 22-05-2019 14:50:00 15.6 C 67 % 9.5 C
1908 22-05-2019 14:55:00 15.7 C 67 % 9.6 C
1909 22-05-2019 15:00:00 15.9 C 66 % 9.56 C
1910 22-05-2019 15:05:00 16.1 C 65 % 9.53 C
1911 22-05-2019 15:10:00 16.2 C 64 % 9.39 C
1912 22-05-2019 15:15:00 16.3 C 66 % 9.94 C
1913 22-05-2019 15:20:00 16.6 C 65 % 10 C
1914 22-05-2019 15:25:00 16.7 C 68 % 10.77 C
1915 22-05-2019 15:30:00 17 C 64 % 10.15 C
1916 22-05-2019 15:35:00 17.6 C 62 % 10.24 C
1917 22-05-2019 15:40:00 17.9 C 62 % 10.52 C
1918 22-05-2019 15:45:00 18.1 C 60 % 10.22 C
1919 22-05-2019 15:50:00 18.2 C 63 % 11.05 C
1920 22-05-2019 15:55:00 18.4 C 60 % 10.5 C
1921 22-05-2019 16:00:00 18.6 C 60 % 10.69 C
1922 22-05-2019 16:05:00 18.8 C 60 % 10.88 C
1923 22-05-2019 16:10:00 19.1 C 59 % 10.91 C
1924 22-05-2019 16:15:00 19.3 C 59 % 11.09 C
1925 22-05-2019 16:20:00 19.2 C 56 % 10.22 C
Sensor: Nr:Datum:Temp:Feuchte:Taupunkt:
Aussen-T/F 1926 22-05-2019 16:25:00 18.9 C 57 % 10.2 C
1927 22-05-2019 16:30:00 18.6 C 61 % 10.94 C
1928 22-05-2019 16:35:00 18.2 C 59 % 10.06 C
1929 22-05-2019 16:40:00 18.1 C 59 % 9.97 C
1930 22-05-2019 16:45:00 18.2 C 59 % 10.06 C
1931 22-05-2019 16:50:00 18.3 C 60 % 10.41 C
1932 22-05-2019 16:55:00 18.2 C 59 % 10.06 C
1933 22-05-2019 17:00:00 18.1 C 59 % 9.97 C
1934 22-05-2019 17:05:00 18.2 C 58 % 9.81 C
1935 22-05-2019 17:10:00 18.3 C 58 % 9.9 C
1936 22-05-2019 17:15:00 18.1 C 61 % 10.47 C
1937 22-05-2019 17:20:00 18.1 C 60 % 10.22 C
1938 22-05-2019 17:25:00 18.1 C 60 % 10.22 C
1939 22-05-2019 17:30:00 17.9 C 60 % 10.03 C
1940 22-05-2019 17:35:00 17.9 C 60 % 10.03 C
1941 22-05-2019 17:40:00 18.3 C 59 % 10.16 C
1942 22-05-2019 17:45:00 18.4 C 57 % 9.74 C
1943 22-05-2019 17:50:00 18.6 C 56 % 9.66 C
1944 22-05-2019 17:55:00 18.9 C 57 % 10.2 C
1945 22-05-2019 18:00:00 19.1 C 54 % 9.58 C
1946 22-05-2019 18:05:00 19.1 C 56 % 10.12 C
1947 22-05-2019 18:10:00 19.2 C 55 % 9.95 C
1948 22-05-2019 18:15:00 19.3 C 57 % 10.58 C
1949 22-05-2019 18:20:00 19.5 C 54 % 9.95 C
1950 22-05-2019 18:25:00 19.6 C 55 % 10.32 C
Sensor: Nr:Datum:Temp:Feuchte:Taupunkt:
Aussen-T/F 1951 22-05-2019 18:30:00 19.6 C 54 % 10.05 C
1952 22-05-2019 18:35:00 19.6 C 54 % 10.05 C
1953 22-05-2019 18:40:00 19.6 C 52 % 9.48 C
1954 22-05-2019 18:45:00 19.6 C 53 % 9.77 C
1955 22-05-2019 18:50:00 19.7 C 52 % 9.58 C
1956 22-05-2019 18:55:00 19.7 C 53 % 9.86 C
1957 22-05-2019 19:00:00 19.6 C 51 % 9.2 C
1958 22-05-2019 19:05:00 19.4 C 51 % 9.01 C
1959 22-05-2019 19:10:00 19.3 C 52 % 9.21 C
1960 22-05-2019 19:15:00 19.2 C 53 % 9.4 C
1961 22-05-2019 19:20:00 19.1 C 52 % 9.02 C
1962 22-05-2019 19:25:00 19 C 54 % 9.49 C
1963 22-05-2019 19:30:00 18.8 C 54 % 9.3 C
1964 22-05-2019 19:35:00 18.8 C 53 % 9.03 C
1965 22-05-2019 19:40:00 18.8 C 62 % 11.37 C
1966 22-05-2019 19:45:00 18.8 C 62 % 11.37 C
1967 22-05-2019 19:50:00 18.8 C 63 % 11.61 C
1968 22-05-2019 19:55:00 18.7 C 66 % 12.22 C
1969 22-05-2019 20:00:00 18.6 C 68 % 12.58 C
1970 22-05-2019 20:05:00 18.4 C 69 % 12.61 C
1971 22-05-2019 20:10:00 18.2 C 70 % 12.64 C
1972 22-05-2019 20:15:00 18 C 71 % 12.67 C
1973 22-05-2019 20:20:00 17.8 C 71 % 12.47 C
1974 22-05-2019 20:25:00 17.5 C 71 % 12.19 C
1975 22-05-2019 20:30:00 17.3 C 72 % 12.21 C
Sensor: Nr:Datum:Temp:Feuchte:Taupunkt:
Aussen-T/F 1976 22-05-2019 20:35:00 17 C 72 % 11.92 C
1977 22-05-2019 20:40:00 16.7 C 72 % 11.63 C
1978 22-05-2019 20:45:00 16.3 C 71 % 11.04 C
1979 22-05-2019 20:50:00 15.8 C 72 % 10.77 C
1980 22-05-2019 20:55:00 15.3 C 72 % 10.29 C
1981 22-05-2019 21:00:00 15 C 73 % 10.2 C
1982 22-05-2019 21:05:00 14.7 C 74 % 10.12 C
1983 22-05-2019 21:10:00 14.3 C 74 % 9.73 C
1984 22-05-2019 21:15:00 14.1 C 74 % 9.54 C
1985 22-05-2019 21:20:00 13.9 C 75 % 9.55 C
1986 22-05-2019 21:25:00 13.7 C 76 % 9.55 C
1987 22-05-2019 21:30:00 13.6 C 76 % 9.45 C
1988 22-05-2019 21:35:00 13.4 C 77 % 9.45 C
1989 22-05-2019 21:40:00 13.3 C 79 % 9.74 C
1990 22-05-2019 21:45:00 13.1 C 80 % 9.73 C
1991 22-05-2019 21:50:00 12.9 C 80 % 9.54 C
1992 22-05-2019 21:55:00 12.8 C 81 % 9.62 C
1993 22-05-2019 22:00:00 12.7 C 82 % 9.71 C
1994 22-05-2019 22:05:00 12.5 C 82 % 9.51 C
1995 22-05-2019 22:10:00 12.3 C 83 % 9.5 C
1996 22-05-2019 22:15:00 12.1 C 84 % 9.48 C
1997 22-05-2019 22:20:00 11.8 C 85 % 9.36 C
1998 22-05-2019 22:25:00 11.6 C 86 % 9.34 C
1999 22-05-2019 22:30:00 11.4 C 87 % 9.32 C
2000 22-05-2019 22:35:00 11.3 C 87 % 9.22 C
Sensor: Nr:Datum:Temp:Feuchte:Taupunkt:
Aussen-T/F 2001 22-05-2019 22:40:00 11.2 C 87 % 9.12 C
2002 22-05-2019 22:45:00 11.1 C 88 % 9.19 C
2003 22-05-2019 22:50:00 10.9 C 88 % 8.99 C
2004 22-05-2019 22:55:00 10.8 C 88 % 8.89 C
2005 22-05-2019 23:00:00 10.7 C 89 % 8.96 C
2006 22-05-2019 23:05:00 10.7 C 89 % 8.96 C
2007 22-05-2019 23:10:00 10.6 C 89 % 8.86 C
2008 22-05-2019 23:15:00 10.5 C 89 % 8.77 C
2009 22-05-2019 23:20:00 10.4 C 90 % 8.83 C
2010 22-05-2019 23:25:00 10.4 C 90 % 8.83 C
2011 22-05-2019 23:30:00 10.3 C 90 % 8.73 C
2012 22-05-2019 23:35:00 10.2 C 90 % 8.64 C
2013 22-05-2019 23:40:00 10.2 C 90 % 8.64 C
2014 22-05-2019 23:45:00 10.1 C 90 % 8.54 C
2015 22-05-2019 23:50:00 10 C 90 % 8.44 C
2016 22-05-2019 23:55:00 9.9 C 90 % 8.34 C
2017 23-05-2019 00:00:00 9.8 C 91 % 8.4 C
2018 23-05-2019 00:05:00 9.7 C 91 % 8.3 C
2019 23-05-2019 00:10:00 9.7 C 91 % 8.3 C
2020 23-05-2019 00:15:00 9.6 C 91 % 8.21 C
2021 23-05-2019 00:20:00 9.6 C 91 % 8.21 C
2022 23-05-2019 00:25:00 9.5 C 92 % 8.27 C
2023 23-05-2019 00:30:00 9.5 C 92 % 8.27 C
2024 23-05-2019 00:35:00 9.4 C 92 % 8.17 C
2025 23-05-2019 00:40:00 9.4 C 92 % 8.17 C
Sensor: Nr:Datum:Temp:Feuchte:Taupunkt:
Aussen-T/F 2026 23-05-2019 00:45:00 9.3 C 92 % 8.07 C
2027 23-05-2019 00:50:00 9.3 C 92 % 8.07 C
2028 23-05-2019 00:55:00 9.2 C 93 % 8.13 C
2029 23-05-2019 01:00:00 9.2 C 93 % 8.13 C
2030 23-05-2019 01:05:00 9.2 C 93 % 8.13 C
2031 23-05-2019 01:10:00 9.1 C 92 % 7.87 C
2032 23-05-2019 01:15:00 9.1 C 93 % 8.03 C
2033 23-05-2019 01:20:00 9 C 93 % 7.93 C
2034 23-05-2019 01:25:00 9 C 93 % 7.93 C
2035 23-05-2019 01:30:00 8.9 C 93 % 7.83 C
2036 23-05-2019 01:35:00 8.9 C 93 % 7.83 C
2037 23-05-2019 01:40:00 8.9 C 93 % 7.83 C
2038 23-05-2019 01:45:00 8.8 C 93 % 7.73 C
2039 23-05-2019 01:50:00 8.8 C 93 % 7.73 C
2040 23-05-2019 01:55:00 8.8 C 93 % 7.73 C
2041 23-05-2019 02:00:00 8.8 C 93 % 7.73 C
2042 23-05-2019 02:05:00 8.7 C 93 % 7.63 C
2043 23-05-2019 02:10:00 8.7 C 93 % 7.63 C
2044 23-05-2019 02:15:00 8.6 C 93 % 7.53 C
2045 23-05-2019 02:20:00 8.6 C 94 % 7.69 C
2046 23-05-2019 02:25:00 8.5 C 94 % 7.59 C
2047 23-05-2019 02:30:00 8.5 C 94 % 7.59 C
2048 23-05-2019 02:35:00 8.5 C 94 % 7.59 C
2049 23-05-2019 02:40:00 8.4 C 94 % 7.49 C
2050 23-05-2019 02:45:00 8.4 C 94 % 7.49 C
Sensor: Nr:Datum:Temp:Feuchte:Taupunkt:
Aussen-T/F 2051 23-05-2019 02:50:00 8.4 C 94 % 7.49 C
2052 23-05-2019 02:55:00 8.4 C 94 % 7.49 C
2053 23-05-2019 03:00:00 8.4 C 94 % 7.49 C
2054 23-05-2019 03:05:00 8.4 C 95 % 7.65 C
2055 23-05-2019 03:10:00 8.5 C 95 % 7.75 C
2056 23-05-2019 03:15:00 8.5 C 95 % 7.75 C
2057 23-05-2019 03:20:00 8.5 C 95 % 7.75 C
2058 23-05-2019 03:25:00 8.4 C 94 % 7.49 C
2059 23-05-2019 03:30:00 8.4 C 95 % 7.65 C
2060 23-05-2019 03:35:00 8.3 C 95 % 7.55 C
2061 23-05-2019 03:40:00 8.3 C 95 % 7.55 C
2062 23-05-2019 03:45:00 8.2 C 95 % 7.45 C
2063 23-05-2019 03:50:00 8.2 C 95 % 7.45 C
2064 23-05-2019 03:55:00 8.2 C 95 % 7.45 C
2065 23-05-2019 04:00:00 8.2 C 95 % 7.45 C
2066 23-05-2019 04:05:00 8.1 C 95 % 7.35 C
2067 23-05-2019 04:10:00 8.1 C 95 % 7.35 C
2068 23-05-2019 04:15:00 8 C 95 % 7.25 C
2069 23-05-2019 04:20:00 7.9 C 95 % 7.15 C
2070 23-05-2019 04:25:00 7.9 C 95 % 7.15 C
2071 23-05-2019 04:30:00 7.9 C 95 % 7.15 C
2072 23-05-2019 04:35:00 7.9 C 95 % 7.15 C
2073 23-05-2019 04:40:00 7.8 C 95 % 7.05 C
2074 23-05-2019 04:45:00 7.8 C 95 % 7.05 C
2075 23-05-2019 04:50:00 7.8 C 95 % 7.05 C
Sensor: Nr:Datum:Temp:Feuchte:Taupunkt:
Aussen-T/F 2076 23-05-2019 04:55:00 7.8 C 95 % 7.05 C
2077 23-05-2019 05:00:00 7.8 C 95 % 7.05 C
2078 23-05-2019 05:05:00 7.8 C 95 % 7.05 C
2079 23-05-2019 05:10:00 7.7 C 95 % 6.95 C
2080 23-05-2019 05:15:00 7.7 C 95 % 6.95 C
2081 23-05-2019 05:20:00 7.8 C 96 % 7.2 C
2082 23-05-2019 05:25:00 7.8 C 96 % 7.2 C
2083 23-05-2019 05:30:00 7.8 C 96 % 7.2 C
2084 23-05-2019 05:35:00 7.7 C 95 % 6.95 C
2085 23-05-2019 05:40:00 7.7 C 95 % 6.95 C
2086 23-05-2019 05:45:00 7.6 C 95 % 6.85 C
2087 23-05-2019 05:50:00 7.6 C 95 % 6.85 C
2088 23-05-2019 05:55:00 7.6 C 95 % 6.85 C
2089 23-05-2019 06:00:00 7.6 C 96 % 7 C
2090 23-05-2019 06:05:00 7.7 C 96 % 7.1 C
2091 23-05-2019 06:10:00 7.7 C 96 % 7.1 C
2092 23-05-2019 06:15:00 7.7 C 96 % 7.1 C
2093 23-05-2019 06:20:00 7.7 C 96 % 7.1 C
2094 23-05-2019 06:25:00 7.8 C 96 % 7.2 C
2095 23-05-2019 06:30:00 7.9 C 96 % 7.3 C
2096 23-05-2019 06:35:00 8 C 96 % 7.4 C
2097 23-05-2019 06:40:00 8.1 C 96 % 7.5 C
2098 23-05-2019 06:45:00 8.1 C 96 % 7.5 C
2099 23-05-2019 06:50:00 8.2 C 96 % 7.6 C
2100 23-05-2019 06:55:00 8.3 C 96 % 7.7 C
Sensor: Nr:Datum:Temp:Feuchte:Taupunkt:
Aussen-T/F 2101 23-05-2019 07:00:00 8.4 C 96 % 7.8 C
2102 23-05-2019 07:05:00 8.4 C 96 % 7.8 C
2103 23-05-2019 07:10:00 8.5 C 96 % 7.9 C
2104 23-05-2019 07:15:00 8.6 C 96 % 8 C
2105 23-05-2019 07:20:00 8.7 C 96 % 8.1 C
2106 23-05-2019 07:25:00 8.7 C 96 % 8.1 C
2107 23-05-2019 07:30:00 8.7 C 96 % 8.1 C
2108 23-05-2019 07:35:00 8.7 C 96 % 8.1 C
2109 23-05-2019 07:40:00 8.8 C 96 % 8.2 C
2110 23-05-2019 07:45:00 8.8 C 96 % 8.2 C
2111 23-05-2019 07:50:00 8.9 C 96 % 8.3 C
2112 23-05-2019 07:55:00 8.9 C 96 % 8.3 C
2113 23-05-2019 08:00:00 9.1 C 96 % 8.5 C
2114 23-05-2019 08:05:00 9.1 C 96 % 8.5 C
2115 23-05-2019 08:10:00 9.2 C 96 % 8.6 C
2116 23-05-2019 08:15:00 9.3 C 96 % 8.7 C
2117 23-05-2019 08:20:00 9.4 C 96 % 8.8 C
2118 23-05-2019 08:25:00 9.6 C 96 % 8.99 C
2119 23-05-2019 08:30:00 9.6 C 96 % 8.99 C
2120 23-05-2019 08:35:00 9.8 C 96 % 9.19 C
2121 23-05-2019 08:40:00 9.8 C 96 % 9.19 C
2122 23-05-2019 08:45:00 9.9 C 96 % 9.29 C
2123 23-05-2019 08:50:00 10.1 C 95 % 9.34 C
2124 23-05-2019 08:55:00 10.2 C 95 % 9.44 C
2125 23-05-2019 09:00:00 10.3 C 95 % 9.54 C
Sensor: Nr:Datum:Temp:Feuchte:Taupunkt:
Aussen-T/F 2126 23-05-2019 09:05:00 10.4 C 95 % 9.63 C
2127 23-05-2019 09:10:00 10.5 C 95 % 9.73 C
2128 23-05-2019 09:15:00 10.6 C 94 % 9.68 C
2129 23-05-2019 09:20:00 10.8 C 94 % 9.87 C
2130 23-05-2019 09:25:00 11 C 94 % 10.07 C
2131 23-05-2019 09:30:00 11.1 C 94 % 10.17 C
2132 23-05-2019 09:35:00 11.3 C 94 % 10.37 C
2133 23-05-2019 09:40:00 11.4 C 93 % 10.31 C
2134 23-05-2019 09:45:00 11.6 C 94 % 10.67 C
2135 23-05-2019 09:50:00 11.8 C 93 % 10.71 C
2136 23-05-2019 09:55:00 11.9 C 93 % 10.81 C
2137 23-05-2019 10:00:00 12.1 C 93 % 11 C
2138 23-05-2019 10:05:00 12.3 C 92 % 11.04 C
2139 23-05-2019 10:10:00 12.5 C 91 % 11.07 C
2140 23-05-2019 10:15:00 12.8 C 91 % 11.37 C
2141 23-05-2019 10:20:00 13.1 C 91 % 11.67 C
2142 23-05-2019 10:25:00 13.4 C 91 % 11.96 C
2143 23-05-2019 10:30:00 13.8 C 90 % 12.19 C
2144 23-05-2019 10:35:00 14.1 C 89 % 12.32 C
2145 23-05-2019 10:40:00 14.5 C 85 % 12.01 C
2146 23-05-2019 10:45:00 14.9 C 81 % 11.67 C
2147 23-05-2019 10:50:00 15.5 C 79 % 11.88 C
2148 23-05-2019 10:55:00 16 C 76 % 11.77 C
2149 23-05-2019 11:00:00 16.4 C 75 % 11.96 C
2150 23-05-2019 11:05:00 16.7 C 71 % 11.42 C
Sensor: Nr:Datum:Temp:Feuchte:Taupunkt:
Aussen-T/F 2151 23-05-2019 11:10:00 16.9 C 72 % 11.82 C
2152 23-05-2019 11:15:00 17.1 C 67 % 10.93 C
2153 23-05-2019 11:20:00 17.3 C 64 % 10.43 C
2154 23-05-2019 11:25:00 17.6 C 64 % 10.72 C
2155 23-05-2019 11:30:00 17.7 C 65 % 11.04 C
2156 23-05-2019 11:35:00 17.8 C 62 % 10.43 C
2157 23-05-2019 11:40:00 18.1 C 64 % 11.19 C
2158 23-05-2019 11:45:00 18.1 C 64 % 11.19 C
2159 23-05-2019 11:50:00 18.1 C 61 % 10.47 C
2160 23-05-2019 11:55:00 18.1 C 62 % 10.71 C
2161 23-05-2019 12:00:00 18.2 C 62 % 10.81 C
2162 23-05-2019 12:05:00 18.2 C 62 % 10.81 C
2163 23-05-2019 12:10:00 18.3 C 61 % 10.66 C
2164 23-05-2019 12:15:00 18.4 C 59 % 10.25 C
2165 23-05-2019 12:20:00 18.6 C 56 % 9.66 C
2166 23-05-2019 12:25:00 18.7 C 54 % 9.21 C
2167 23-05-2019 12:30:00 18.9 C 55 % 9.67 C
2168 23-05-2019 12:35:00 19.2 C 56 % 10.22 C
2169 23-05-2019 12:40:00 19.4 C 57 % 10.67 C
2170 23-05-2019 12:45:00 19.4 C 56 % 10.4 C
2171 23-05-2019 12:50:00 19.4 C 56 % 10.4 C
2172 23-05-2019 12:55:00 19.4 C 60 % 11.44 C
2173 23-05-2019 13:00:00 19.4 C 66 % 12.89 C
2174 23-05-2019 13:05:00 19.3 C 69 % 13.47 C
2175 23-05-2019 13:10:00 19.2 C 61 % 11.5 C
Sensor: Nr:Datum:Temp:Feuchte:Taupunkt:
Aussen-T/F 2176 23-05-2019 13:15:00 19.2 C 58 % 10.74 C
2177 23-05-2019 13:20:00 19.3 C 58 % 10.84 C
2178 23-05-2019 13:25:00 19.6 C 55 % 10.32 C
2179 23-05-2019 13:30:00 19.9 C 53 % 10.04 C
2180 23-05-2019 13:35:00 20.1 C 53 % 10.23 C
2181 23-05-2019 13:40:00 20.2 C 53 % 10.32 C
2182 23-05-2019 13:45:00 20.4 C 50 % 9.64 C
2183 23-05-2019 13:50:00 20.6 C 50 % 9.82 C
2184 23-05-2019 13:55:00 20.8 C 51 % 10.3 C
2185 23-05-2019 14:00:00 20.8 C 50 % 10 C
2186 23-05-2019 14:05:00 20.8 C 51 % 10.3 C
2187 23-05-2019 14:10:00 21 C 48 % 9.58 C
2188 23-05-2019 14:15:00 21.1 C 46 % 9.04 C
2189 23-05-2019 14:20:00 21.2 C 50 % 10.37 C
2190 23-05-2019 14:25:00 21.3 C 52 % 11.05 C
2191 23-05-2019 14:30:00 21.4 C 48 % 9.94 C
2192 23-05-2019 14:35:00 21.4 C 50 % 10.55 C
2193 23-05-2019 14:40:00 21.4 C 48 % 9.94 C
2194 23-05-2019 14:45:00 21.4 C 45 % 8.99 C
2195 23-05-2019 14:50:00 21.6 C 51 % 11.04 C
2196 23-05-2019 14:55:00 21.7 C 47 % 9.9 C
2197 23-05-2019 15:00:00 21.7 C 47 % 9.9 C
2198 23-05-2019 15:05:00 21.8 C 51 % 11.22 C
2199 23-05-2019 15:10:00 21.9 C 45 % 9.44 C
2200 23-05-2019 15:15:00 21.8 C 44 % 9.01 C
Sensor: Nr:Datum:Temp:Feuchte:Taupunkt:
Aussen-T/F 2201 23-05-2019 15:20:00 21.8 C 52 % 11.51 C
2202 23-05-2019 15:25:00 21.8 C 52 % 11.51 C
2203 23-05-2019 15:30:00 21.9 C 53 % 11.89 C
2204 23-05-2019 15:35:00 22.4 C 43 % 9.22 C
2205 23-05-2019 15:40:00 22.7 C 41 % 8.78 C
2206 23-05-2019 15:45:00 23.2 C 42 % 9.59 C
2207 23-05-2019 15:50:00 23.6 C 41 % 9.59 C
2208 23-05-2019 15:55:00 24 C 42 % 10.3 C
2209 23-05-2019 16:00:00 24 C 41 % 9.94 C
2210 23-05-2019 16:05:00 23.9 C 41 % 9.85 C
2211 23-05-2019 16:10:00 24 C 41 % 9.94 C
2212 23-05-2019 16:15:00 24.1 C 39 % 9.29 C
2213 23-05-2019 16:20:00 24.3 C 38 % 9.08 C
2214 23-05-2019 16:25:00 24.3 C 38 % 9.08 C
2215 23-05-2019 16:30:00 24.3 C 38 % 9.08 C
2216 23-05-2019 16:35:00 24.5 C 43 % 11.11 C
2217 23-05-2019 16:40:00 24.8 C 35 % 8.31 C
2218 23-05-2019 16:45:00 24.8 C 42 % 11.02 C
2219 23-05-2019 16:50:00 24.9 C 38 % 9.61 C
2220 23-05-2019 16:55:00 24.8 C 37 % 9.13 C
2221 23-05-2019 17:00:00 24.7 C 37 % 9.04 C
2222 23-05-2019 17:05:00 24.7 C 37 % 9.04 C
2223 23-05-2019 17:10:00 24.7 C 38 % 9.44 C
2224 23-05-2019 17:15:00 24.7 C 36 % 8.64 C
2225 23-05-2019 17:20:00 24.5 C 39 % 9.65 C
Sensor: Nr:Datum:Temp:Feuchte:Taupunkt:
Aussen-T/F 2226 23-05-2019 17:25:00 24.6 C 37 % 8.95 C
2227 23-05-2019 17:30:00 24.9 C 37 % 9.22 C
2228 23-05-2019 17:35:00 25.1 C 36 % 8.99 C
2229 23-05-2019 17:40:00 24.9 C 37 % 9.22 C
2230 23-05-2019 17:45:00 24.9 C 40 % 10.38 C
2231 23-05-2019 17:50:00 24.9 C 38 % 9.61 C
2232 23-05-2019 17:55:00 24.8 C 39 % 9.91 C
2233 23-05-2019 18:00:00 24.8 C 38 % 9.53 C
2234 23-05-2019 18:05:00 24.8 C 40 % 10.29 C
2235 23-05-2019 18:10:00 25 C 37 % 9.31 C
2236 23-05-2019 18:15:00 25.2 C 37 % 9.48 C
2237 23-05-2019 18:20:00 25.2 C 37 % 9.48 C
2238 23-05-2019 18:25:00 25.4 C 40 % 10.83 C
2239 23-05-2019 18:30:00 25.4 C 37 % 9.66 C
2240 23-05-2019 18:35:00 25.3 C 36 % 9.16 C
2241 23-05-2019 18:40:00 24.9 C 36 % 8.81 C
2242 23-05-2019 18:45:00 24.7 C 37 % 9.04 C
2243 23-05-2019 18:50:00 24.5 C 38 % 9.26 C
2244 23-05-2019 18:55:00 24.4 C 37 % 8.78 C
2245 23-05-2019 19:00:00 24.3 C 38 % 9.08 C
2246 23-05-2019 19:05:00 23.8 C 40 % 9.4 C
2247 23-05-2019 19:10:00 23.4 C 41 % 9.41 C
2248 23-05-2019 19:15:00 23.2 C 41 % 9.23 C
2249 23-05-2019 19:20:00 23.1 C 55 % 13.57 C
2250 23-05-2019 19:25:00 22.8 C 57 % 13.84 C
Sensor: Nr:Datum:Temp:Feuchte:Taupunkt:
Aussen-T/F 2251 23-05-2019 19:30:00 22.6 C 58 % 13.92 C
2252 23-05-2019 19:35:00 22.4 C 61 % 14.51 C
2253 23-05-2019 19:40:00 22.3 C 60 % 14.16 C
2254 23-05-2019 19:45:00 22.2 C 60 % 14.07 C
2255 23-05-2019 19:50:00 21.9 C 60 % 13.79 C
2256 23-05-2019 19:55:00 21.7 C 61 % 13.85 C
2257 23-05-2019 20:00:00 21.3 C 61 % 13.48 C
2258 23-05-2019 20:05:00 20.8 C 61 % 13.01 C
2259 23-05-2019 20:10:00 20.3 C 61 % 12.54 C
2260 23-05-2019 20:15:00 19.9 C 63 % 12.65 C
2261 23-05-2019 20:20:00 19.7 C 64 % 12.7 C
2262 23-05-2019 20:25:00 19.3 C 65 % 12.56 C
2263 23-05-2019 20:30:00 19.1 C 66 % 12.6 C
2264 23-05-2019 20:35:00 18.8 C 67 % 12.55 C
2265 23-05-2019 20:40:00 18.6 C 67 % 12.36 C
2266 23-05-2019 20:45:00 18.3 C 67 % 12.07 C
2267 23-05-2019 20:50:00 18.1 C 67 % 11.88 C
2268 23-05-2019 20:55:00 17.8 C 69 % 12.04 C
2269 23-05-2019 21:00:00 17.7 C 69 % 11.95 C
2270 23-05-2019 21:05:00 17.3 C 70 % 11.78 C
2271 23-05-2019 21:10:00 17.1 C 71 % 11.8 C
2272 23-05-2019 21:15:00 16.8 C 72 % 11.73 C
2273 23-05-2019 21:20:00 16.6 C 73 % 11.74 C
2274 23-05-2019 21:25:00 16.4 C 74 % 11.76 C
2275 23-05-2019 21:30:00 16.3 C 75 % 11.86 C
Sensor: Nr:Datum:Temp:Feuchte:Taupunkt:
Aussen-T/F 2276 23-05-2019 21:35:00 16.1 C 75 % 11.67 C
2277 23-05-2019 21:40:00 15.9 C 76 % 11.68 C
2278 23-05-2019 21:45:00 15.7 C 77 % 11.68 C
2279 23-05-2019 21:50:00 15.6 C 78 % 11.78 C
2280 23-05-2019 21:55:00 15.4 C 79 % 11.78 C
2281 23-05-2019 22:00:00 15.2 C 80 % 11.78 C
2282 23-05-2019 22:05:00 15.1 C 81 % 11.87 C
2283 23-05-2019 22:10:00 14.9 C 81 % 11.67 C
2284 23-05-2019 22:15:00 14.8 C 82 % 11.76 C
2285 23-05-2019 22:20:00 14.7 C 82 % 11.66 C
2286 23-05-2019 22:25:00 14.7 C 82 % 11.66 C
2287 23-05-2019 22:30:00 14.7 C 82 % 11.66 C
2288 23-05-2019 22:35:00 14.6 C 83 % 11.75 C
2289 23-05-2019 22:40:00 14.6 C 83 % 11.75 C
2290 23-05-2019 22:45:00 14.4 C 82 % 11.37 C
2291 23-05-2019 22:50:00 14.3 C 83 % 11.45 C
2292 23-05-2019 22:55:00 14.2 C 83 % 11.36 C
2293 23-05-2019 23:00:00 14.1 C 84 % 11.44 C
2294 23-05-2019 23:05:00 13.9 C 84 % 11.24 C
2295 23-05-2019 23:10:00 13.9 C 83 % 11.06 C
2296 23-05-2019 23:15:00 13.9 C 83 % 11.06 C
2297 23-05-2019 23:20:00 13.9 C 83 % 11.06 C
2298 23-05-2019 23:25:00 13.8 C 83 % 10.97 C
2299 23-05-2019 23:30:00 13.7 C 84 % 11.05 C
2300 23-05-2019 23:35:00 13.6 C 84 % 10.95 C
Sensor: Nr:Datum:Temp:Feuchte:Taupunkt:
Aussen-T/F 2301 23-05-2019 23:40:00 13.5 C 84 % 10.85 C
2302 23-05-2019 23:45:00 13.3 C 84 % 10.66 C
2303 23-05-2019 23:50:00 13.2 C 84 % 10.56 C
2304 23-05-2019 23:55:00 13.2 C 85 % 10.74 C
2305 24-05-2019 00:00:00 13.1 C 85 % 10.64 C
2306 24-05-2019 00:05:00 13.1 C 86 % 10.81 C
2307 24-05-2019 00:10:00 13 C 86 % 10.72 C
2308 24-05-2019 00:15:00 12.9 C 87 % 10.79 C
2309 24-05-2019 00:20:00 12.9 C 86 % 10.62 C
2310 24-05-2019 00:25:00 12.9 C 87 % 10.79 C
2311 24-05-2019 00:30:00 12.8 C 86 % 10.52 C
2312 24-05-2019 00:35:00 12.8 C 86 % 10.52 C
2313 24-05-2019 00:40:00 12.7 C 87 % 10.59 C
2314 24-05-2019 00:45:00 12.6 C 87 % 10.5 C
2315 24-05-2019 00:50:00 12.6 C 86 % 10.32 C
2316 24-05-2019 00:55:00 12.7 C 87 % 10.59 C
2317 24-05-2019 01:00:00 12.6 C 87 % 10.5 C
2318 24-05-2019 01:05:00 12.6 C 87 % 10.5 C
2319 24-05-2019 01:10:00 12.5 C 87 % 10.4 C
2320 24-05-2019 01:15:00 12.4 C 87 % 10.3 C
2321 24-05-2019 01:20:00 12.3 C 88 % 10.37 C
2322 24-05-2019 01:25:00 12.3 C 88 % 10.37 C
2323 24-05-2019 01:30:00 12.3 C 88 % 10.37 C
2324 24-05-2019 01:35:00 12.3 C 88 % 10.37 C
2325 24-05-2019 01:40:00 12.3 C 88 % 10.37 C
Sensor: Nr:Datum:Temp:Feuchte:Taupunkt:
Aussen-T/F 2326 24-05-2019 01:45:00 12.3 C 88 % 10.37 C
2327 24-05-2019 01:50:00 12.3 C 87 % 10.2 C
2328 24-05-2019 01:55:00 12.2 C 88 % 10.27 C
2329 24-05-2019 02:00:00 12.1 C 88 % 10.17 C
2330 24-05-2019 02:05:00 12 C 88 % 10.08 C
2331 24-05-2019 02:10:00 11.9 C 88 % 9.98 C
2332 24-05-2019 02:15:00 11.9 C 89 % 10.15 C
2333 24-05-2019 02:20:00 11.8 C 89 % 10.05 C
2334 24-05-2019 02:25:00 11.8 C 89 % 10.05 C
2335 24-05-2019 02:30:00 11.8 C 90 % 10.21 C
2336 24-05-2019 02:35:00 11.8 C 90 % 10.21 C
2337 24-05-2019 02:40:00 11.8 C 90 % 10.21 C
2338 24-05-2019 02:45:00 11.7 C 90 % 10.12 C
2339 24-05-2019 02:50:00 11.7 C 90 % 10.12 C
2340 24-05-2019 02:55:00 11.7 C 90 % 10.12 C
2341 24-05-2019 03:00:00 11.6 C 90 % 10.02 C
2342 24-05-2019 03:05:00 11.6 C 90 % 10.02 C
2343 24-05-2019 03:10:00 11.6 C 91 % 10.18 C
2344 24-05-2019 03:15:00 11.5 C 91 % 10.08 C
2345 24-05-2019 03:20:00 11.4 C 91 % 9.98 C
2346 24-05-2019 03:25:00 11.4 C 91 % 9.98 C
2347 24-05-2019 03:30:00 11.3 C 91 % 9.89 C
2348 24-05-2019 03:35:00 11.3 C 91 % 9.89 C
2349 24-05-2019 03:40:00 11.3 C 91 % 9.89 C
2350 24-05-2019 03:45:00 11.3 C 91 % 9.89 C
Sensor: Nr:Datum:Temp:Feuchte:Taupunkt:
Aussen-T/F 2351 24-05-2019 03:50:00 11.3 C 92 % 10.05 C
2352 24-05-2019 03:55:00 11.3 C 92 % 10.05 C
2353 24-05-2019 04:00:00 11.3 C 92 % 10.05 C
2354 24-05-2019 04:05:00 11.3 C 92 % 10.05 C
2355 24-05-2019 04:10:00 11.3 C 92 % 10.05 C
2356 24-05-2019 04:15:00 11.3 C 92 % 10.05 C
2357 24-05-2019 04:20:00 11.3 C 92 % 10.05 C
2358 24-05-2019 04:25:00 11.2 C 92 % 9.95 C
2359 24-05-2019 04:30:00 11.2 C 92 % 9.95 C
2360 24-05-2019 04:35:00 11.2 C 92 % 9.95 C
2361 24-05-2019 04:40:00 11.2 C 92 % 9.95 C
2362 24-05-2019 04:45:00 11.2 C 92 % 9.95 C
2363 24-05-2019 04:50:00 11.2 C 92 % 9.95 C
2364 24-05-2019 04:55:00 11.3 C 92 % 10.05 C
2365 24-05-2019 05:00:00 11.3 C 92 % 10.05 C
2366 24-05-2019 05:05:00 11.3 C 92 % 10.05 C
2367 24-05-2019 05:10:00 11.3 C 92 % 10.05 C
2368 24-05-2019 05:15:00 11.3 C 92 % 10.05 C
2369 24-05-2019 05:20:00 11.2 C 92 % 9.95 C
2370 24-05-2019 05:25:00 11.2 C 92 % 9.95 C
2371 24-05-2019 05:30:00 11.2 C 92 % 9.95 C
2372 24-05-2019 05:35:00 11.1 C 92 % 9.85 C
2373 24-05-2019 05:40:00 11.1 C 92 % 9.85 C
2374 24-05-2019 05:45:00 11.1 C 92 % 9.85 C
2375 24-05-2019 05:50:00 11 C 92 % 9.75 C
Sensor: Nr:Datum:Temp:Feuchte:Taupunkt:
Aussen-T/F 2376 24-05-2019 05:55:00 10.9 C 92 % 9.65 C
2377 24-05-2019 06:00:00 10.9 C 92 % 9.65 C
2378 24-05-2019 06:05:00 10.8 C 92 % 9.55 C
2379 24-05-2019 06:10:00 10.8 C 92 % 9.55 C
2380 24-05-2019 06:15:00 10.8 C 93 % 9.71 C
2381 24-05-2019 06:20:00 10.9 C 93 % 9.81 C
2382 24-05-2019 06:25:00 10.9 C 93 % 9.81 C
2383 24-05-2019 06:30:00 11 C 93 % 9.91 C
2384 24-05-2019 06:35:00 11.1 C 93 % 10.01 C
2385 24-05-2019 06:40:00 11.1 C 93 % 10.01 C
2386 24-05-2019 06:45:00 11.2 C 93 % 10.11 C
2387 24-05-2019 06:50:00 11.2 C 94 % 10.27 C
2388 24-05-2019 06:55:00 11.3 C 94 % 10.37 C
2389 24-05-2019 07:00:00 11.3 C 94 % 10.37 C
2390 24-05-2019 07:05:00 11.4 C 94 % 10.47 C
2391 24-05-2019 07:10:00 11.4 C 93 % 10.31 C
2392 24-05-2019 07:15:00 11.5 C 93 % 10.41 C
2393 24-05-2019 07:20:00 11.6 C 93 % 10.51 C
2394 24-05-2019 07:25:00 11.7 C 93 % 10.61 C
2395 24-05-2019 07:30:00 11.8 C 93 % 10.71 C
2396 24-05-2019 07:35:00 11.8 C 92 % 10.54 C
2397 24-05-2019 07:40:00 11.9 C 92 % 10.64 C
2398 24-05-2019 07:45:00 12 C 92 % 10.74 C
2399 24-05-2019 07:50:00 12.1 C 92 % 10.84 C
2400 24-05-2019 07:55:00 12.1 C 92 % 10.84 C
Sensor: Nr:Datum:Temp:Feuchte:Taupunkt:
Aussen-T/F 2401 24-05-2019 08:00:00 12.2 C 92 % 10.94 C
2402 24-05-2019 08:05:00 12.4 C 92 % 11.14 C
2403 24-05-2019 08:10:00 12.6 C 91 % 11.17 C
2404 24-05-2019 08:15:00 12.8 C 92 % 11.53 C
2405 24-05-2019 08:20:00 13 C 90 % 11.4 C
2406 24-05-2019 08:25:00 13.2 C 88 % 11.26 C
2407 24-05-2019 08:30:00 13.4 C 87 % 11.28 C
2408 24-05-2019 08:35:00 13.6 C 86 % 11.3 C
2409 24-05-2019 08:40:00 13.8 C 85 % 11.32 C
2410 24-05-2019 08:45:00 13.9 C 85 % 11.42 C
2411 24-05-2019 08:50:00 14.2 C 86 % 11.89 C
2412 24-05-2019 08:55:00 14.4 C 85 % 11.91 C
2413 24-05-2019 09:00:00 14.7 C 84 % 12.03 C
2414 24-05-2019 09:05:00 14.8 C 82 % 11.76 C
2415 24-05-2019 09:10:00 14.9 C 81 % 11.67 C
2416 24-05-2019 09:15:00 15.1 C 80 % 11.68 C
2417 24-05-2019 09:20:00 15.2 C 81 % 11.96 C
2418 24-05-2019 09:25:00 15.3 C 77 % 11.3 C
2419 24-05-2019 09:30:00 15.3 C 77 % 11.3 C
2420 24-05-2019 09:35:00 15.4 C 80 % 11.97 C
2421 24-05-2019 09:40:00 15.6 C 79 % 11.97 C
2422 24-05-2019 09:45:00 15.7 C 81 % 12.45 C
2423 24-05-2019 09:50:00 15.7 C 80 % 12.26 C
2424 24-05-2019 09:55:00 15.7 C 81 % 12.45 C
2425 24-05-2019 10:00:00 15.8 C 81 % 12.55 C
Sensor: Nr:Datum:Temp:Feuchte:Taupunkt:
Aussen-T/F 2426 24-05-2019 10:05:00 15.8 C 80 % 12.36 C
2427 24-05-2019 10:10:00 16 C 78 % 12.17 C
2428 24-05-2019 10:15:00 16.2 C 77 % 12.17 C
2429 24-05-2019 10:20:00 16.4 C 77 % 12.36 C
2430 24-05-2019 10:25:00 16.7 C 76 % 12.45 C
2431 24-05-2019 10:30:00 16.9 C 76 % 12.65 C
2432 24-05-2019 10:35:00 17.2 C 77 % 13.14 C
2433 24-05-2019 10:40:00 17.4 C 74 % 12.72 C
2434 24-05-2019 10:45:00 17.6 C 74 % 12.91 C
2435 24-05-2019 10:50:00 17.8 C 75 % 13.31 C
2436 24-05-2019 10:55:00 17.9 C 71 % 12.57 C
2437 24-05-2019 11:00:00 18.1 C 72 % 12.98 C
2438 24-05-2019 11:05:00 18.2 C 71 % 12.86 C
2439 24-05-2019 11:10:00 18.3 C 71 % 12.95 C
2440 24-05-2019 11:15:00 18.5 C 71 % 13.15 C
2441 24-05-2019 11:20:00 18.7 C 71 % 13.34 C
2442 24-05-2019 11:25:00 18.9 C 67 % 12.64 C
2443 24-05-2019 11:30:00 19 C 66 % 12.51 C
2444 24-05-2019 11:35:00 19.1 C 66 % 12.6 C
2445 24-05-2019 11:40:00 19.3 C 66 % 12.79 C
2446 24-05-2019 11:45:00 19.5 C 66 % 12.98 C
2447 24-05-2019 11:50:00 19.7 C 64 % 12.7 C
2448 24-05-2019 11:55:00 19.8 C 67 % 13.5 C
2449 24-05-2019 12:00:00 19.9 C 65 % 13.13 C
2450 24-05-2019 12:05:00 20.1 C 64 % 13.08 C
Sensor: Nr:Datum:Temp:Feuchte:Taupunkt:
Aussen-T/F 2451 24-05-2019 12:10:00 20.2 C 62 % 12.69 C
2452 24-05-2019 12:15:00 20.3 C 61 % 12.54 C
2453 24-05-2019 12:20:00 20.4 C 61 % 12.63 C
2454 24-05-2019 12:25:00 20.7 C 59 % 12.41 C
2455 24-05-2019 12:30:00 20.9 C 57 % 12.07 C
2456 24-05-2019 12:35:00 21 C 57 % 12.16 C
2457 24-05-2019 12:40:00 21.1 C 56 % 11.99 C
2458 24-05-2019 12:45:00 21.3 C 53 % 11.34 C
2459 24-05-2019 12:50:00 21.5 C 46 % 9.4 C
2460 24-05-2019 12:55:00 21.7 C 47 % 9.9 C
2461 24-05-2019 13:00:00 21.8 C 50 % 10.92 C
2462 24-05-2019 13:05:00 21.8 C 49 % 10.62 C
2463 24-05-2019 13:10:00 21.8 C 48 % 10.31 C
2464 24-05-2019 13:15:00 21.8 C 49 % 10.62 C
2465 24-05-2019 13:20:00 21.8 C 46 % 9.67 C
2466 24-05-2019 13:25:00 21.9 C 47 % 10.09 C
2467 24-05-2019 13:30:00 22 C 46 % 9.86 C
2468 24-05-2019 13:35:00 22.1 C 45 % 9.62 C
2469 24-05-2019 13:40:00 22.3 C 48 % 10.77 C
2470 24-05-2019 13:45:00 22.4 C 47 % 10.54 C
2471 24-05-2019 13:50:00 22.6 C 43 % 9.4 C
2472 24-05-2019 13:55:00 22.8 C 44 % 9.92 C
2473 24-05-2019 14:00:00 22.9 C 43 % 9.67 C
2474 24-05-2019 14:05:00 22.9 C 42 % 9.32 C
2475 24-05-2019 14:10:00 22.9 C 46 % 10.67 C
Sensor: Nr:Datum:Temp:Feuchte:Taupunkt:
Aussen-T/F 2476 24-05-2019 14:15:00 22.9 C 46 % 10.67 C
2477 24-05-2019 14:20:00 22.9 C 43 % 9.67 C
2478 24-05-2019 14:25:00 22.9 C 43 % 9.67 C
2479 24-05-2019 14:30:00 22.9 C 44 % 10.01 C
2480 24-05-2019 14:35:00 23 C 44 % 10.1 C
2481 24-05-2019 14:40:00 23 C 43 % 9.76 C
2482 24-05-2019 14:45:00 23.1 C 41 % 9.14 C
2483 24-05-2019 14:50:00 23.1 C 41 % 9.14 C
2484 24-05-2019 14:55:00 23.3 C 43 % 10.03 C
2485 24-05-2019 15:00:00 23.6 C 42 % 9.94 C
2486 24-05-2019 15:05:00 23.7 C 41 % 9.68 C
2487 24-05-2019 15:10:00 23.7 C 40 % 9.31 C
2488 24-05-2019 15:15:00 23.6 C 39 % 8.84 C
2489 24-05-2019 15:20:00 23.4 C 39 % 8.67 C
2490 24-05-2019 15:25:00 23.3 C 42 % 9.68 C
2491 24-05-2019 15:30:00 23.3 C 41 % 9.32 C
2492 24-05-2019 15:35:00 23.4 C 40 % 9.04 C
2493 24-05-2019 15:40:00 23.4 C 40 % 9.04 C
2494 24-05-2019 15:45:00 23.4 C 42 % 9.77 C
2495 24-05-2019 15:50:00 23.3 C 39 % 8.58 C
2496 24-05-2019 15:55:00 23.3 C 41 % 9.32 C
2497 24-05-2019 16:00:00 23.3 C 41 % 9.32 C
2498 24-05-2019 16:05:00 23.4 C 45 % 10.8 C
2499 24-05-2019 16:10:00 23.7 C 41 % 9.68 C
2500 24-05-2019 16:15:00 23.9 C 39 % 9.11 C
Sensor: Nr:Datum:Temp:Feuchte:Taupunkt:
Aussen-T/F 2501 24-05-2019 16:20:00 24 C 40 % 9.58 C
2502 24-05-2019 16:25:00 23.9 C 40 % 9.49 C
2503 24-05-2019 16:30:00 23.8 C 46 % 11.49 C
2504 24-05-2019 16:35:00 23.8 C 39 % 9.02 C
2505 24-05-2019 16:40:00 24.1 C 40 % 9.67 C
2506 24-05-2019 16:45:00 24.2 C 40 % 9.75 C
2507 24-05-2019 16:50:00 24.3 C 39 % 9.47 C
2508 24-05-2019 16:55:00 24.2 C 38 % 8.99 C
2509 24-05-2019 17:00:00 24.1 C 38 % 8.9 C
2510 24-05-2019 17:05:00 23.9 C 37 % 8.33 C
2511 24-05-2019 17:10:00 23.9 C 39 % 9.11 C
2512 24-05-2019 17:15:00 23.9 C 39 % 9.11 C
2513 24-05-2019 17:20:00 23.9 C 41 % 9.85 C
2514 24-05-2019 17:25:00 23.9 C 56 % 14.59 C
2515 24-05-2019 17:30:00 23.9 C 46 % 11.58 C
2516 24-05-2019 17:35:00 24.1 C 51 % 13.34 C
2517 24-05-2019 17:40:00 24.4 C 40 % 9.93 C
2518 24-05-2019 17:45:00 24.8 C 40 % 10.29 C
2519 24-05-2019 17:50:00 25.1 C 39 % 10.18 C
2520 24-05-2019 17:55:00 25.3 C 43 % 11.83 C
2521 24-05-2019 18:00:00 25.4 C 37 % 9.66 C
2522 24-05-2019 18:05:00 25.4 C 37 % 9.66 C
2523 24-05-2019 18:10:00 25.3 C 49 % 13.82 C
2524 24-05-2019 18:15:00 25 C 38 % 9.7 C
2525 24-05-2019 18:20:00 24.7 C 38 % 9.44 C
Sensor: Nr:Datum:Temp:Feuchte:Taupunkt:
Aussen-T/F 2526 24-05-2019 18:25:00 24.3 C 41 % 10.21 C
2527 24-05-2019 18:30:00 24.3 C 42 % 10.57 C
2528 24-05-2019 18:35:00 24.3 C 40 % 9.84 C
2529 24-05-2019 18:40:00 24 C 40 % 9.58 C
2530 24-05-2019 18:45:00 23.7 C 42 % 10.03 C
2531 24-05-2019 18:50:00 23.4 C 44 % 10.46 C
2532 24-05-2019 18:55:00 23.1 C 45 % 10.53 C
2533 24-05-2019 19:00:00 22.8 C 55 % 13.29 C
2534 24-05-2019 19:05:00 22.4 C 59 % 14 C
2535 24-05-2019 19:10:00 21.9 C 58 % 13.27 C
2536 24-05-2019 19:15:00 21.5 C 61 % 13.67 C
2537 24-05-2019 19:20:00 21 C 59 % 12.69 C
2538 24-05-2019 19:25:00 20.7 C 62 % 13.16 C
2539 24-05-2019 19:30:00 20.3 C 62 % 12.79 C
2540 24-05-2019 19:35:00 20.2 C 55 % 10.88 C
2541 24-05-2019 19:40:00 20.3 C 54 % 10.69 C
2542 24-05-2019 19:45:00 20.4 C 52 % 10.22 C
2543 24-05-2019 19:50:00 20.4 C 51 % 9.93 C
2544 24-05-2019 19:55:00 20.6 C 50 % 9.82 C
2545 24-05-2019 20:00:00 20.4 C 51 % 9.93 C
2546 24-05-2019 20:05:00 20.3 C 53 % 10.41 C
2547 24-05-2019 20:10:00 20.2 C 58 % 11.68 C
2548 24-05-2019 20:15:00 20.1 C 60 % 12.1 C
2549 24-05-2019 20:20:00 19.8 C 58 % 11.3 C
2550 24-05-2019 20:25:00 19.6 C 59 % 11.37 C
Sensor: Nr:Datum:Temp:Feuchte:Taupunkt:
Aussen-T/F 2551 24-05-2019 20:30:00 19.4 C 64 % 12.42 C
2552 24-05-2019 20:35:00 19.3 C 65 % 12.56 C
2553 24-05-2019 20:40:00 19.1 C 67 % 12.83 C
2554 24-05-2019 20:45:00 18.8 C 68 % 12.77 C
2555 24-05-2019 20:50:00 18.5 C 69 % 12.71 C
2556 24-05-2019 20:55:00 18.2 C 69 % 12.42 C
2557 24-05-2019 21:00:00 17.9 C 70 % 12.35 C
2558 24-05-2019 21:05:00 17.7 C 70 % 12.16 C
2559 24-05-2019 21:10:00 17.5 C 71 % 12.19 C
2560 24-05-2019 21:15:00 17.3 C 70 % 11.78 C
2561 24-05-2019 21:20:00 17.1 C 70 % 11.59 C
2562 24-05-2019 21:25:00 16.9 C 70 % 11.4 C
2563 24-05-2019 21:30:00 16.9 C 72 % 11.82 C
2564 24-05-2019 21:35:00 16.7 C 70 % 11.21 C
2565 24-05-2019 21:40:00 16.6 C 73 % 11.74 C
2566 24-05-2019 21:45:00 16.5 C 73 % 11.65 C
2567 24-05-2019 21:50:00 16.3 C 75 % 11.86 C
2568 24-05-2019 21:55:00 16.2 C 74 % 11.56 C
2569 24-05-2019 22:00:00 16 C 76 % 11.77 C
2570 24-05-2019 22:05:00 15.8 C 77 % 11.78 C
2571 24-05-2019 22:10:00 15.6 C 78 % 11.78 C
2572 24-05-2019 22:15:00 15.4 C 79 % 11.78 C
2573 24-05-2019 22:20:00 15.3 C 80 % 11.87 C
2574 24-05-2019 22:25:00 15.2 C 80 % 11.78 C
2575 24-05-2019 22:30:00 15 C 80 % 11.58 C
Sensor: Nr:Datum:Temp:Feuchte:Taupunkt:
Aussen-T/F 2576 24-05-2019 22:35:00 14.9 C 80 % 11.48 C
2577 24-05-2019 22:40:00 14.8 C 80 % 11.39 C
2578 24-05-2019 22:45:00 14.7 C 81 % 11.48 C
2579 24-05-2019 22:50:00 14.6 C 82 % 11.56 C
2580 24-05-2019 22:55:00 14.4 C 82 % 11.37 C
2581 24-05-2019 23:00:00 14.3 C 83 % 11.45 C
2582 24-05-2019 23:05:00 14.1 C 83 % 11.26 C
2583 24-05-2019 23:10:00 14 C 84 % 11.34 C
2584 24-05-2019 23:15:00 13.9 C 84 % 11.24 C
2585 24-05-2019 23:20:00 13.8 C 85 % 11.32 C
2586 24-05-2019 23:25:00 13.8 C 85 % 11.32 C
2587 24-05-2019 23:30:00 13.9 C 85 % 11.42 C
2588 24-05-2019 23:35:00 14 C 85 % 11.52 C
2589 24-05-2019 23:40:00 14.1 C 85 % 11.62 C
2590 24-05-2019 23:45:00 14.2 C 84 % 11.54 C
2591 24-05-2019 23:50:00 14.3 C 83 % 11.45 C
2592 24-05-2019 23:55:00 14.4 C 82 % 11.37 C
2593 25-05-2019 00:00:00 14.6 C 81 % 11.38 C
2594 25-05-2019 00:05:00 14.7 C 80 % 11.29 C
2595 25-05-2019 00:10:00 14.8 C 80 % 11.39 C
2596 25-05-2019 00:15:00 14.9 C 79 % 11.29 C
2597 25-05-2019 00:20:00 14.9 C 79 % 11.29 C
2598 25-05-2019 00:25:00 14.9 C 80 % 11.48 C
2599 25-05-2019 00:30:00 14.9 C 77 % 10.91 C
2600 25-05-2019 00:35:00 14.8 C 77 % 10.81 C
Sensor: Nr:Datum:Temp:Feuchte:Taupunkt:
Aussen-T/F 2601 25-05-2019 00:40:00 14.8 C 78 % 11 C
2602 25-05-2019 00:45:00 14.7 C 77 % 10.71 C
2603 25-05-2019 00:50:00 14.6 C 78 % 10.81 C
2604 25-05-2019 00:55:00 14.5 C 78 % 10.71 C
2605 25-05-2019 01:00:00 14.4 C 78 % 10.62 C
2606 25-05-2019 01:05:00 14.3 C 78 % 10.52 C
2607 25-05-2019 01:10:00 14.2 C 78 % 10.42 C
2608 25-05-2019 01:15:00 14.1 C 78 % 10.33 C
2609 25-05-2019 01:20:00 13.9 C 77 % 9.94 C
2610 25-05-2019 01:25:00 13.9 C 77 % 9.94 C
2611 25-05-2019 01:30:00 13.8 C 78 % 10.03 C
2612 25-05-2019 01:35:00 13.7 C 78 % 9.94 C
2613 25-05-2019 01:40:00 13.7 C 78 % 9.94 C
2614 25-05-2019 01:45:00 13.6 C 78 % 9.84 C
2615 25-05-2019 01:50:00 13.5 C 78 % 9.74 C
2616 25-05-2019 01:55:00 13.4 C 77 % 9.45 C
2617 25-05-2019 02:00:00 13.4 C 78 % 9.65 C
2618 25-05-2019 02:05:00 13.3 C 78 % 9.55 C
2619 25-05-2019 02:10:00 13.2 C 78 % 9.45 C
2620 25-05-2019 02:15:00 13.1 C 78 % 9.36 C
2621 25-05-2019 02:20:00 13 C 78 % 9.26 C
2622 25-05-2019 02:25:00 13 C 76 % 8.87 C
2623 25-05-2019 02:30:00 13.1 C 75 % 8.77 C
2624 25-05-2019 02:35:00 13.1 C 74 % 8.58 C
2625 25-05-2019 02:40:00 13.2 C 75 % 8.87 C
Sensor: Nr:Datum:Temp:Feuchte:Taupunkt:
Aussen-T/F 2626 25-05-2019 02:45:00 13.1 C 74 % 8.58 C
2627 25-05-2019 02:50:00 13.1 C 74 % 8.58 C
2628 25-05-2019 02:55:00 12.9 C 74 % 8.38 C
2629 25-05-2019 03:00:00 12.9 C 75 % 8.58 C
2630 25-05-2019 03:05:00 12.7 C 77 % 8.78 C
2631 25-05-2019 03:10:00 12.7 C 77 % 8.78 C
2632 25-05-2019 03:15:00 12.5 C 77 % 8.58 C
2633 25-05-2019 03:20:00 12.4 C 76 % 8.29 C
2634 25-05-2019 03:25:00 12.3 C 77 % 8.39 C
2635 25-05-2019 03:30:00 12.1 C 76 % 8 C
2636 25-05-2019 03:35:00 11.9 C 76 % 7.81 C
2637 25-05-2019 03:40:00 11.8 C 75 % 7.52 C
2638 25-05-2019 03:45:00 11.7 C 76 % 7.62 C
2639 25-05-2019 03:50:00 11.6 C 76 % 7.52 C
2640 25-05-2019 03:55:00 11.4 C 75 % 7.13 C
2641 25-05-2019 04:00:00 11.3 C 77 % 7.42 C
2642 25-05-2019 04:05:00 11.1 C 74 % 6.65 C
2643 25-05-2019 04:10:00 11.1 C 76 % 7.04 C
2644 25-05-2019 04:15:00 11 C 75 % 6.75 C
2645 25-05-2019 04:20:00 10.9 C 75 % 6.65 C
2646 25-05-2019 04:25:00 10.9 C 75 % 6.65 C
2647 25-05-2019 04:30:00 10.8 C 76 % 6.75 C
2648 25-05-2019 04:35:00 10.7 C 75 % 6.46 C
2649 25-05-2019 04:40:00 10.7 C 77 % 6.84 C
2650 25-05-2019 04:45:00 10.6 C 76 % 6.55 C
Sensor: Nr:Datum:Temp:Feuchte:Taupunkt:
Aussen-T/F 2651 25-05-2019 04:50:00 10.5 C 75 % 6.26 C
2652 25-05-2019 04:55:00 10.5 C 75 % 6.26 C
2653 25-05-2019 05:00:00 10.4 C 75 % 6.17 C
2654 25-05-2019 05:05:00 10.4 C 74 % 5.97 C
2655 25-05-2019 05:10:00 10.3 C 75 % 6.07 C
2656 25-05-2019 05:15:00 10.3 C 75 % 6.07 C
2657 25-05-2019 05:20:00 10.3 C 77 % 6.45 C
2658 25-05-2019 05:25:00 10.3 C 77 % 6.45 C
2659 25-05-2019 05:30:00 10.2 C 77 % 6.35 C
2660 25-05-2019 05:35:00 10.2 C 78 % 6.54 C
2661 25-05-2019 05:40:00 10.1 C 78 % 6.44 C
2662 25-05-2019 05:45:00 10.1 C 80 % 6.81 C
2663 25-05-2019 05:50:00 9.9 C 80 % 6.62 C
2664 25-05-2019 05:55:00 9.9 C 81 % 6.8 C
2665 25-05-2019 06:00:00 9.8 C 81 % 6.7 C
2666 25-05-2019 06:05:00 9.7 C 82 % 6.78 C
2667 25-05-2019 06:10:00 9.7 C 82 % 6.78 C
2668 25-05-2019 06:15:00 9.6 C 82 % 6.68 C
2669 25-05-2019 06:20:00 9.6 C 83 % 6.86 C
2670 25-05-2019 06:25:00 9.6 C 84 % 7.03 C
2671 25-05-2019 06:30:00 9.5 C 84 % 6.94 C
2672 25-05-2019 06:35:00 9.4 C 84 % 6.84 C
2673 25-05-2019 06:40:00 9.4 C 85 % 7.01 C
2674 25-05-2019 06:45:00 9.4 C 85 % 7.01 C
2675 25-05-2019 06:50:00 9.3 C 85 % 6.91 C
Sensor: Nr:Datum:Temp:Feuchte:Taupunkt:
Aussen-T/F 2676 25-05-2019 06:55:00 9.3 C 86 % 7.08 C
2677 25-05-2019 07:00:00 9.4 C 86 % 7.18 C
2678 25-05-2019 07:05:00 9.4 C 87 % 7.35 C
2679 25-05-2019 07:10:00 9.6 C 86 % 7.38 C
2680 25-05-2019 07:15:00 9.8 C 85 % 7.4 C
2681 25-05-2019 07:20:00 10.1 C 84 % 7.52 C
2682 25-05-2019 07:25:00 10.3 C 80 % 7.01 C
2683 25-05-2019 07:30:00 10.7 C 79 % 7.21 C
2684 25-05-2019 07:35:00 11.1 C 78 % 7.41 C
2685 25-05-2019 07:40:00 11.5 C 77 % 7.61 C
2686 25-05-2019 07:45:00 11.8 C 75 % 7.52 C
2687 25-05-2019 07:50:00 12.1 C 74 % 7.61 C
2688 25-05-2019 07:55:00 12.3 C 73 % 7.61 C
2689 25-05-2019 08:00:00 12.6 C 73 % 7.89 C
2690 25-05-2019 08:05:00 12.7 C 74 % 8.19 C
2691 25-05-2019 08:10:00 12.8 C 72 % 7.88 C
2692 25-05-2019 08:15:00 12.8 C 71 % 7.68 C
2693 25-05-2019 08:20:00 12.9 C 72 % 7.98 C
2694 25-05-2019 08:25:00 13.1 C 72 % 8.17 C
2695 25-05-2019 08:30:00 13.2 C 72 % 8.27 C
2696 25-05-2019 08:35:00 13.2 C 72 % 8.27 C
2697 25-05-2019 08:40:00 13.2 C 71 % 8.06 C
2698 25-05-2019 08:45:00 13.3 C 72 % 8.36 C
2699 25-05-2019 08:50:00 13.3 C 72 % 8.36 C
2700 25-05-2019 08:55:00 13.4 C 73 % 8.66 C
Sensor: Nr:Datum:Temp:Feuchte:Taupunkt:
Aussen-T/F 2701 25-05-2019 09:00:00 13.5 C 72 % 8.56 C
2702 25-05-2019 09:05:00 13.6 C 73 % 8.86 C
2703 25-05-2019 09:10:00 13.6 C 72 % 8.65 C
2704 25-05-2019 09:15:00 13.7 C 72 % 8.75 C
2705 25-05-2019 09:20:00 13.7 C 72 % 8.75 C
2706 25-05-2019 09:25:00 13.8 C 74 % 9.25 C
2707 25-05-2019 09:30:00 13.9 C 73 % 9.15 C
2708 25-05-2019 09:35:00 14.2 C 72 % 9.23 C
2709 25-05-2019 09:40:00 14.4 C 71 % 9.21 C
2710 25-05-2019 09:45:00 14.6 C 70 % 9.2 C
2711 25-05-2019 09:50:00 14.6 C 69 % 8.98 C
2712 25-05-2019 09:55:00 14.7 C 70 % 9.29 C
2713 25-05-2019 10:00:00 14.7 C 70 % 9.29 C
2714 25-05-2019 10:05:00 14.7 C 69 % 9.08 C
2715 25-05-2019 10:10:00 14.7 C 70 % 9.29 C
2716 25-05-2019 10:15:00 14.8 C 71 % 9.6 C
2717 25-05-2019 10:20:00 14.9 C 71 % 9.69 C
2718 25-05-2019 10:25:00 15.2 C 71 % 9.98 C
2719 25-05-2019 10:30:00 15.6 C 68 % 9.72 C
2720 25-05-2019 10:35:00 15.7 C 67 % 9.6 C
2721 25-05-2019 10:40:00 15.8 C 67 % 9.69 C
2722 25-05-2019 10:45:00 15.8 C 66 % 9.47 C
2723 25-05-2019 10:50:00 15.9 C 65 % 9.34 C
2724 25-05-2019 10:55:00 15.8 C 64 % 9.01 C
2725 25-05-2019 11:00:00 15.7 C 65 % 9.15 C
Sensor: Nr:Datum:Temp:Feuchte:Taupunkt:
Aussen-T/F 2726 25-05-2019 11:05:00 15.8 C 67 % 9.69 C
2727 25-05-2019 11:10:00 15.9 C 67 % 9.79 C
2728 25-05-2019 11:15:00 15.9 C 65 % 9.34 C
2729 25-05-2019 11:20:00 15.9 C 65 % 9.34 C
2730 25-05-2019 11:25:00 15.9 C 64 % 9.11 C
2731 25-05-2019 11:30:00 16.2 C 65 % 9.62 C
2732 25-05-2019 11:35:00 16.5 C 62 % 9.2 C
2733 25-05-2019 11:40:00 16.8 C 61 % 9.24 C
2734 25-05-2019 11:45:00 16.9 C 59 % 8.84 C
2735 25-05-2019 11:50:00 16.8 C 60 % 9 C
2736 25-05-2019 11:55:00 16.7 C 62 % 9.39 C
2737 25-05-2019 12:00:00 16.7 C 63 % 9.63 C
2738 25-05-2019 12:05:00 16.6 C 64 % 9.77 C
2739 25-05-2019 12:10:00 16.6 C 63 % 9.53 C
2740 25-05-2019 12:15:00 16.4 C 65 % 9.81 C
2741 25-05-2019 12:20:00 16.5 C 66 % 10.13 C
2742 25-05-2019 12:25:00 16.6 C 66 % 10.23 C
2743 25-05-2019 12:30:00 16.9 C 65 % 10.28 C
2744 25-05-2019 12:35:00 17.2 C 64 % 10.34 C
2745 25-05-2019 12:40:00 17.3 C 64 % 10.43 C
2746 25-05-2019 12:45:00 17.4 C 64 % 10.53 C
2747 25-05-2019 12:50:00 17.6 C 65 % 10.95 C
2748 25-05-2019 12:55:00 17.7 C 64 % 10.81 C
2749 25-05-2019 13:00:00 17.9 C 62 % 10.52 C
2750 25-05-2019 13:05:00 17.9 C 62 % 10.52 C
Sensor: Nr:Datum:Temp:Feuchte:Taupunkt:
Aussen-T/F 2751 25-05-2019 13:10:00 17.9 C 63 % 10.76 C
2752 25-05-2019 13:15:00 18.3 C 62 % 10.9 C
2753 25-05-2019 13:20:00 18.6 C 60 % 10.69 C
2754 25-05-2019 13:25:00 18.6 C 60 % 10.69 C
2755 25-05-2019 13:30:00 18.6 C 62 % 11.18 C
2756 25-05-2019 13:35:00 18.7 C 62 % 11.28 C
2757 25-05-2019 13:40:00 18.8 C 58 % 10.37 C
2758 25-05-2019 13:45:00 18.7 C 58 % 10.28 C
2759 25-05-2019 13:50:00 18.7 C 56 % 9.75 C
2760 25-05-2019 13:55:00 18.7 C 57 % 10.02 C
2761 25-05-2019 14:00:00 18.9 C 58 % 10.46 C
2762 25-05-2019 14:05:00 19.1 C 56 % 10.12 C
2763 25-05-2019 14:10:00 19.2 C 55 % 9.95 C
2764 25-05-2019 14:15:00 19.2 C 54 % 9.67 C
2765 25-05-2019 14:20:00 19.2 C 56 % 10.22 C
2766 25-05-2019 14:25:00 19.2 C 55 % 9.95 C
2767 25-05-2019 14:30:00 19.3 C 54 % 9.77 C
2768 25-05-2019 14:35:00 19.5 C 56 % 10.5 C
2769 25-05-2019 14:40:00 19.5 C 56 % 10.5 C
2770 25-05-2019 14:45:00 19.6 C 54 % 10.05 C
2771 25-05-2019 14:50:00 19.7 C 56 % 10.68 C
2772 25-05-2019 14:55:00 19.9 C 51 % 9.47 C
2773 25-05-2019 15:00:00 19.9 C 53 % 10.04 C
2774 25-05-2019 15:05:00 20.2 C 54 % 10.6 C
2775 25-05-2019 15:10:00 20.3 C 52 % 10.13 C
Sensor: Nr:Datum:Temp:Feuchte:Taupunkt:
Aussen-T/F 2776 25-05-2019 15:15:00 20.6 C 51 % 10.12 C
2777 25-05-2019 15:20:00 20.8 C 51 % 10.3 C
2778 25-05-2019 15:25:00 21.2 C 53 % 11.25 C
2779 25-05-2019 15:30:00 21.2 C 49 % 10.07 C
2780 25-05-2019 15:35:00 21.5 C 49 % 10.34 C
2781 25-05-2019 15:40:00 21.6 C 50 % 10.74 C
2782 25-05-2019 15:45:00 21.6 C 48 % 10.13 C
2783 25-05-2019 15:50:00 21.6 C 50 % 10.74 C
2784 25-05-2019 15:55:00 21.7 C 49 % 10.53 C
2785 25-05-2019 16:00:00 21.6 C 47 % 9.81 C
2786 25-05-2019 16:05:00 21.5 C 49 % 10.34 C
2787 25-05-2019 16:10:00 21.8 C 50 % 10.92 C
2788 25-05-2019 16:15:00 22.2 C 45 % 9.71 C
2789 25-05-2019 16:20:00 22.3 C 48 % 10.77 C
2790 25-05-2019 16:25:00 22.5 C 45 % 9.98 C
2791 25-05-2019 16:30:00 22.4 C 46 % 10.22 C
2792 25-05-2019 16:35:00 22.4 C 45 % 9.89 C
2793 25-05-2019 16:40:00 22.1 C 46 % 9.95 C
2794 25-05-2019 16:45:00 22 C 47 % 10.18 C
2795 25-05-2019 16:50:00 21.9 C 46 % 9.77 C
2796 25-05-2019 16:55:00 22.1 C 46 % 9.95 C
2797 25-05-2019 17:00:00 22.2 C 47 % 10.36 C
2798 25-05-2019 17:05:00 22.5 C 46 % 10.31 C
2799 25-05-2019 17:10:00 22.7 C 45 % 10.16 C
2800 25-05-2019 17:15:00 22.4 C 44 % 9.56 C
Sensor: Nr:Datum:Temp:Feuchte:Taupunkt:
Aussen-T/F 2801 25-05-2019 17:20:00 21.8 C 45 % 9.35 C
2802 25-05-2019 17:25:00 21.7 C 47 % 9.9 C
2803 25-05-2019 17:30:00 21.7 C 45 % 9.26 C
2804 25-05-2019 17:35:00 21.3 C 47 % 9.54 C
2805 25-05-2019 17:40:00 21.2 C 46 % 9.13 C
2806 25-05-2019 17:45:00 21.1 C 47 % 9.36 C
2807 25-05-2019 17:50:00 21.1 C 47 % 9.36 C
2808 25-05-2019 17:55:00 21.1 C 46 % 9.04 C
2809 25-05-2019 18:00:00 20.8 C 45 % 8.44 C
2810 25-05-2019 18:05:00 20.4 C 47 % 8.72 C
2811 25-05-2019 18:10:00 20.3 C 47 % 8.63 C
2812 25-05-2019 18:15:00 20.2 C 47 % 8.54 C
2813 25-05-2019 18:20:00 20.1 C 48 % 8.76 C
2814 25-05-2019 18:25:00 19.9 C 49 % 8.88 C
2815 25-05-2019 18:30:00 19.8 C 48 % 8.48 C
2816 25-05-2019 18:35:00 19.8 C 50 % 9.09 C
2817 25-05-2019 18:40:00 19.6 C 51 % 9.2 C
2818 25-05-2019 18:45:00 19.6 C 52 % 9.48 C
2819 25-05-2019 18:50:00 19.5 C 52 % 9.39 C
2820 25-05-2019 18:55:00 19.4 C 52 % 9.3 C
2821 25-05-2019 19:00:00 19.3 C 51 % 8.92 C
2822 25-05-2019 19:05:00 19.2 C 51 % 8.83 C
2823 25-05-2019 19:10:00 19 C 52 % 8.93 C
2824 25-05-2019 19:15:00 18.9 C 53 % 9.12 C
2825 25-05-2019 19:20:00 18.9 C 54 % 9.4 C
Sensor: Nr:Datum:Temp:Feuchte:Taupunkt:
Aussen-T/F 2826 25-05-2019 19:25:00 18.8 C 54 % 9.3 C
2827 25-05-2019 19:30:00 18.8 C 53 % 9.03 C
2828 25-05-2019 19:35:00 18.8 C 56 % 9.84 C
2829 25-05-2019 19:40:00 18.7 C 56 % 9.75 C
2830 25-05-2019 19:45:00 18.7 C 59 % 10.53 C
2831 25-05-2019 19:50:00 18.7 C 58 % 10.28 C
2832 25-05-2019 19:55:00 18.7 C 58 % 10.28 C
2833 25-05-2019 20:00:00 18.6 C 60 % 10.69 C
2834 25-05-2019 20:05:00 18.6 C 59 % 10.44 C
2835 25-05-2019 20:10:00 18.5 C 64 % 11.57 C
2836 25-05-2019 20:15:00 18.4 C 65 % 11.71 C
2837 25-05-2019 20:20:00 18.2 C 65 % 11.52 C
2838 25-05-2019 20:25:00 18 C 65 % 11.33 C
2839 25-05-2019 20:30:00 17.8 C 64 % 10.9 C
2840 25-05-2019 20:35:00 17.8 C 64 % 10.9 C
2841 25-05-2019 20:40:00 17.7 C 63 % 10.57 C
2842 25-05-2019 20:45:00 17.6 C 66 % 11.18 C
2843 25-05-2019 20:50:00 17.4 C 68 % 11.44 C
2844 25-05-2019 20:55:00 17.2 C 67 % 11.02 C
2845 25-05-2019 21:00:00 17 C 68 % 11.06 C
2846 25-05-2019 21:05:00 16.8 C 69 % 11.09 C
2847 25-05-2019 21:10:00 16.6 C 69 % 10.89 C
2848 25-05-2019 21:15:00 16.4 C 70 % 10.92 C
2849 25-05-2019 21:20:00 16.2 C 70 % 10.73 C
2850 25-05-2019 21:25:00 16 C 72 % 10.96 C
Sensor: Nr:Datum:Temp:Feuchte:Taupunkt:
Aussen-T/F 2851 25-05-2019 21:30:00 15.8 C 72 % 10.77 C
2852 25-05-2019 21:35:00 15.7 C 72 % 10.67 C
2853 25-05-2019 21:40:00 15.6 C 73 % 10.78 C
2854 25-05-2019 21:45:00 15.5 C 73 % 10.69 C
2855 25-05-2019 21:50:00 15.4 C 74 % 10.79 C
2856 25-05-2019 21:55:00 15.4 C 75 % 11 C
2857 25-05-2019 22:00:00 15.3 C 75 % 10.9 C
2858 25-05-2019 22:05:00 15.2 C 74 % 10.6 C
2859 25-05-2019 22:10:00 15.1 C 74 % 10.5 C
2860 25-05-2019 22:15:00 15 C 75 % 10.61 C
2861 25-05-2019 22:20:00 14.9 C 75 % 10.51 C
2862 25-05-2019 22:25:00 14.9 C 75 % 10.51 C
2863 25-05-2019 22:30:00 14.8 C 75 % 10.42 C
2864 25-05-2019 22:35:00 14.7 C 76 % 10.52 C
2865 25-05-2019 22:40:00 14.7 C 76 % 10.52 C
2866 25-05-2019 22:45:00 14.5 C 75 % 10.13 C
2867 25-05-2019 22:50:00 14.4 C 76 % 10.23 C
2868 25-05-2019 22:55:00 14.3 C 77 % 10.33 C
2869 25-05-2019 23:00:00 14.1 C 77 % 10.13 C
2870 25-05-2019 23:05:00 14 C 77 % 10.04 C
2871 25-05-2019 23:10:00 13.9 C 79 % 10.32 C
2872 25-05-2019 23:15:00 13.7 C 79 % 10.13 C
2873 25-05-2019 23:20:00 13.6 C 79 % 10.03 C
2874 25-05-2019 23:25:00 13.4 C 80 % 10.02 C
2875 25-05-2019 23:30:00 13.3 C 80 % 9.93 C
Sensor: Nr:Datum:Temp:Feuchte:Taupunkt:
Aussen-T/F 2876 25-05-2019 23:35:00 13.2 C 80 % 9.83 C
2877 25-05-2019 23:40:00 13 C 81 % 9.82 C
2878 25-05-2019 23:45:00 12.9 C 81 % 9.72 C
2879 25-05-2019 23:50:00 12.8 C 82 % 9.81 C
2880 25-05-2019 23:55:00 12.7 C 82 % 9.71 C
2881 26-05-2019 00:00:00 12.6 C 82 % 9.61 C
2882 26-05-2019 00:05:00 12.4 C 83 % 9.6 C
2883 26-05-2019 00:10:00 12.3 C 84 % 9.68 C
2884 26-05-2019 00:15:00 12.2 C 84 % 9.58 C
2885 26-05-2019 00:20:00 12.1 C 84 % 9.48 C
2886 26-05-2019 00:25:00 11.9 C 85 % 9.46 C
2887 26-05-2019 00:30:00 11.7 C 85 % 9.27 C
2888 26-05-2019 00:35:00 11.6 C 86 % 9.34 C
2889 26-05-2019 00:40:00 11.5 C 86 % 9.24 C
2890 26-05-2019 00:45:00 11.4 C 87 % 9.32 C
2891 26-05-2019 00:50:00 11.3 C 87 % 9.22 C
2892 26-05-2019 00:55:00 11.2 C 87 % 9.12 C
2893 26-05-2019 01:00:00 11.2 C 88 % 9.29 C
2894 26-05-2019 01:05:00 11.1 C 88 % 9.19 C
2895 26-05-2019 01:10:00 11 C 88 % 9.09 C
2896 26-05-2019 01:15:00 10.9 C 88 % 8.99 C
2897 26-05-2019 01:20:00 10.8 C 88 % 8.89 C
2898 26-05-2019 01:25:00 10.8 C 89 % 9.06 C
2899 26-05-2019 01:30:00 10.7 C 89 % 8.96 C
2900 26-05-2019 01:35:00 10.7 C 89 % 8.96 C
Sensor: Nr:Datum:Temp:Feuchte:Taupunkt:
Aussen-T/F 2901 26-05-2019 01:40:00 10.6 C 89 % 8.86 C
2902 26-05-2019 01:45:00 10.6 C 90 % 9.03 C
2903 26-05-2019 01:50:00 10.5 C 90 % 8.93 C
2904 26-05-2019 01:55:00 10.4 C 90 % 8.83 C
2905 26-05-2019 02:00:00 10.4 C 90 % 8.83 C
2906 26-05-2019 02:05:00 10.4 C 90 % 8.83 C
2907 26-05-2019 02:10:00 10.3 C 91 % 8.9 C
2908 26-05-2019 02:15:00 10.3 C 91 % 8.9 C
2909 26-05-2019 02:20:00 10.2 C 91 % 8.8 C
2910 26-05-2019 02:25:00 10.2 C 91 % 8.8 C
2911 26-05-2019 02:30:00 10.1 C 91 % 8.7 C
2912 26-05-2019 02:35:00 10.1 C 91 % 8.7 C
2913 26-05-2019 02:40:00 10 C 91 % 8.6 C
2914 26-05-2019 02:45:00 9.9 C 91 % 8.5 C
2915 26-05-2019 02:50:00 9.9 C 91 % 8.5 C
2916 26-05-2019 02:55:00 9.8 C 92 % 8.56 C
2917 26-05-2019 03:00:00 9.7 C 92 % 8.46 C
2918 26-05-2019 03:05:00 9.7 C 92 % 8.46 C
2919 26-05-2019 03:10:00 9.7 C 92 % 8.46 C
2920 26-05-2019 03:15:00 9.6 C 92 % 8.37 C
2921 26-05-2019 03:20:00 9.5 C 92 % 8.27 C
2922 26-05-2019 03:25:00 9.4 C 92 % 8.17 C
2923 26-05-2019 03:30:00 9.4 C 92 % 8.17 C
2924 26-05-2019 03:35:00 9.3 C 92 % 8.07 C
2925 26-05-2019 03:40:00 9.3 C 93 % 8.23 C
Sensor: Nr:Datum:Temp:Feuchte:Taupunkt:
Aussen-T/F 2926 26-05-2019 03:45:00 9.3 C 93 % 8.23 C
2927 26-05-2019 03:50:00 9.2 C 93 % 8.13 C
2928 26-05-2019 03:55:00 9.2 C 93 % 8.13 C
2929 26-05-2019 04:00:00 9.2 C 93 % 8.13 C
2930 26-05-2019 04:05:00 9.1 C 93 % 8.03 C
2931 26-05-2019 04:10:00 9.1 C 93 % 8.03 C
2932 26-05-2019 04:15:00 9.1 C 93 % 8.03 C
2933 26-05-2019 04:20:00 9 C 93 % 7.93 C
2934 26-05-2019 04:25:00 8.9 C 93 % 7.83 C
2935 26-05-2019 04:30:00 8.9 C 93 % 7.83 C
2936 26-05-2019 04:35:00 8.9 C 93 % 7.83 C
2937 26-05-2019 04:40:00 8.8 C 93 % 7.73 C
2938 26-05-2019 04:45:00 8.8 C 93 % 7.73 C
2939 26-05-2019 04:50:00 8.8 C 94 % 7.89 C
2940 26-05-2019 04:55:00 8.8 C 94 % 7.89 C
2941 26-05-2019 05:00:00 8.8 C 94 % 7.89 C
2942 26-05-2019 05:05:00 8.7 C 94 % 7.79 C
2943 26-05-2019 05:10:00 8.7 C 94 % 7.79 C
2944 26-05-2019 05:15:00 8.7 C 94 % 7.79 C
2945 26-05-2019 05:20:00 8.6 C 94 % 7.69 C
2946 26-05-2019 05:25:00 8.7 C 94 % 7.79 C
2947 26-05-2019 05:30:00 8.7 C 94 % 7.79 C
2948 26-05-2019 05:35:00 8.8 C 95 % 8.04 C
2949 26-05-2019 05:40:00 8.9 C 95 % 8.14 C
2950 26-05-2019 05:45:00 9 C 95 % 8.24 C
Sensor: Nr:Datum:Temp:Feuchte:Taupunkt:
Aussen-T/F 2951 26-05-2019 05:50:00 9.1 C 95 % 8.34 C
2952 26-05-2019 05:55:00 9.2 C 95 % 8.44 C
2953 26-05-2019 06:00:00 9.2 C 95 % 8.44 C
2954 26-05-2019 06:05:00 9.3 C 95 % 8.54 C
2955 26-05-2019 06:10:00 9.3 C 95 % 8.54 C
2956 26-05-2019 06:15:00 9.3 C 95 % 8.54 C
2957 26-05-2019 06:20:00 9.4 C 95 % 8.64 C
2958 26-05-2019 06:25:00 9.4 C 95 % 8.64 C
2959 26-05-2019 06:30:00 9.4 C 94 % 8.48 C
2960 26-05-2019 06:35:00 9.4 C 94 % 8.48 C
2961 26-05-2019 06:40:00 9.4 C 94 % 8.48 C
2962 26-05-2019 06:45:00 9.4 C 94 % 8.48 C
2963 26-05-2019 06:50:00 9.4 C 94 % 8.48 C
2964 26-05-2019 06:55:00 9.5 C 94 % 8.58 C
2965 26-05-2019 07:00:00 9.5 C 94 % 8.58 C
2966 26-05-2019 07:05:00 9.5 C 94 % 8.58 C
2967 26-05-2019 07:10:00 9.6 C 95 % 8.84 C
2968 26-05-2019 07:15:00 9.7 C 94 % 8.78 C
2969 26-05-2019 07:20:00 9.8 C 94 % 8.88 C
2970 26-05-2019 07:25:00 9.8 C 94 % 8.88 C
2971 26-05-2019 07:30:00 9.9 C 94 % 8.98 C
2972 26-05-2019 07:35:00 10 C 93 % 8.92 C
2973 26-05-2019 07:40:00 10.1 C 93 % 9.02 C
2974 26-05-2019 07:45:00 10.2 C 93 % 9.12 C
2975 26-05-2019 07:50:00 10.3 C 93 % 9.22 C
Sensor: Nr:Datum:Temp:Feuchte:Taupunkt:
Aussen-T/F 2976 26-05-2019 07:55:00 10.4 C 93 % 9.32 C
2977 26-05-2019 08:00:00 10.5 C 93 % 9.42 C
2978 26-05-2019 08:05:00 10.6 C 93 % 9.52 C
2979 26-05-2019 08:10:00 10.7 C 93 % 9.62 C
2980 26-05-2019 08:15:00 10.8 C 93 % 9.71 C
2981 26-05-2019 08:20:00 10.9 C 94 % 9.97 C
2982 26-05-2019 08:25:00 11.1 C 93 % 10.01 C
2983 26-05-2019 08:30:00 11.2 C 93 % 10.11 C
2984 26-05-2019 08:35:00 11.3 C 94 % 10.37 C
2985 26-05-2019 08:40:00 11.5 C 94 % 10.57 C
2986 26-05-2019 08:45:00 11.7 C 93 % 10.61 C
2987 26-05-2019 08:50:00 12 C 93 % 10.9 C
2988 26-05-2019 08:55:00 12.3 C 92 % 11.04 C
2989 26-05-2019 09:00:00 12.7 C 91 % 11.27 C
2990 26-05-2019 09:05:00 13.1 C 90 % 11.5 C
2991 26-05-2019 09:10:00 13.4 C 88 % 11.45 C
2992 26-05-2019 09:15:00 13.7 C 87 % 11.58 C
2993 26-05-2019 09:20:00 14 C 85 % 11.52 C
2994 26-05-2019 09:25:00 14.3 C 84 % 11.64 C
2995 26-05-2019 09:30:00 14.5 C 84 % 11.83 C
2996 26-05-2019 09:35:00 14.7 C 83 % 11.85 C
2997 26-05-2019 09:40:00 15 C 82 % 11.95 C
2998 26-05-2019 09:45:00 15.2 C 81 % 11.96 C
2999 26-05-2019 09:50:00 15.4 C 80 % 11.97 C
3000 26-05-2019 09:55:00 15.6 C 79 % 11.97 C
Sensor: Nr:Datum:Temp:Feuchte:Taupunkt:
Aussen-T/F 3001 26-05-2019 10:00:00 15.8 C 78 % 11.97 C
3002 26-05-2019 10:05:00 16.1 C 77 % 12.07 C
3003 26-05-2019 10:10:00 16.2 C 77 % 12.17 C
3004 26-05-2019 10:15:00 16.4 C 75 % 11.96 C
3005 26-05-2019 10:20:00 16.7 C 74 % 12.05 C
3006 26-05-2019 10:25:00 16.8 C 73 % 11.94 C
3007 26-05-2019 10:30:00 17 C 73 % 12.13 C
3008 26-05-2019 10:35:00 17.2 C 72 % 12.11 C
3009 26-05-2019 10:40:00 17.3 C 70 % 11.78 C
3010 26-05-2019 10:45:00 17.4 C 70 % 11.88 C
3011 26-05-2019 10:50:00 17.5 C 68 % 11.53 C
3012 26-05-2019 10:55:00 17.6 C 67 % 11.4 C
3013 26-05-2019 11:00:00 17.7 C 68 % 11.72 C
3014 26-05-2019 11:05:00 17.8 C 65 % 11.14 C
3015 26-05-2019 11:10:00 17.9 C 65 % 11.23 C
3016 26-05-2019 11:15:00 18.1 C 64 % 11.19 C
3017 26-05-2019 11:20:00 18.2 C 64 % 11.28 C
3018 26-05-2019 11:25:00 18.2 C 64 % 11.28 C
3019 26-05-2019 11:30:00 18.2 C 62 % 10.81 C
3020 26-05-2019 11:35:00 18.2 C 64 % 11.28 C
3021 26-05-2019 11:40:00 18.3 C 64 % 11.38 C
3022 26-05-2019 11:45:00 18.3 C 62 % 10.9 C
3023 26-05-2019 11:50:00 18.5 C 61 % 10.84 C
3024 26-05-2019 11:55:00 18.6 C 60 % 10.69 C
3025 26-05-2019 12:00:00 18.7 C 60 % 10.78 C
Sensor: Nr:Datum:Temp:Feuchte:Taupunkt:
Aussen-T/F 3026 26-05-2019 12:05:00 18.7 C 61 % 11.03 C
3027 26-05-2019 12:10:00 18.8 C 60 % 10.88 C
3028 26-05-2019 12:15:00 18.8 C 60 % 10.88 C
3029 26-05-2019 12:20:00 18.9 C 61 % 11.22 C
3030 26-05-2019 12:25:00 18.9 C 61 % 11.22 C
3031 26-05-2019 12:30:00 19.1 C 62 % 11.65 C
3032 26-05-2019 12:35:00 19.1 C 61 % 11.41 C
3033 26-05-2019 12:40:00 19.2 C 61 % 11.5 C
3034 26-05-2019 12:45:00 19.2 C 60 % 11.25 C
3035 26-05-2019 12:50:00 19.2 C 62 % 11.75 C
3036 26-05-2019 12:55:00 19.3 C 61 % 11.6 C
3037 26-05-2019 13:00:00 19.5 C 61 % 11.78 C
3038 26-05-2019 13:05:00 19.7 C 60 % 11.72 C
3039 26-05-2019 13:10:00 20 C 60 % 12 C
3040 26-05-2019 13:15:00 20.2 C 59 % 11.94 C
3041 26-05-2019 13:20:00 20.4 C 58 % 11.86 C
3042 26-05-2019 13:25:00 20.4 C 58 % 11.86 C
3043 26-05-2019 13:30:00 20.3 C 61 % 12.54 C
3044 26-05-2019 13:35:00 20.3 C 58 % 11.77 C
3045 26-05-2019 13:40:00 20.4 C 60 % 12.38 C
3046 26-05-2019 13:45:00 20.6 C 58 % 12.05 C
3047 26-05-2019 13:50:00 20.7 C 57 % 11.88 C
3048 26-05-2019 13:55:00 20.8 C 56 % 11.71 C
3049 26-05-2019 14:00:00 20.9 C 55 % 11.53 C
3050 26-05-2019 14:05:00 21 C 55 % 11.62 C
Sensor: Nr:Datum:Temp:Feuchte:Taupunkt:
Aussen-T/F 3051 26-05-2019 14:10:00 21.1 C 57 % 12.25 C
3052 26-05-2019 14:15:00 21.3 C 53 % 11.34 C
3053 26-05-2019 14:20:00 21.5 C 52 % 11.24 C
3054 26-05-2019 14:25:00 21.6 C 52 % 11.33 C
3055 26-05-2019 14:30:00 21.7 C 53 % 11.71 C
3056 26-05-2019 14:35:00 21.8 C 52 % 11.51 C
3057 26-05-2019 14:40:00 22 C 52 % 11.7 C
3058 26-05-2019 14:45:00 22.2 C 51 % 11.59 C
3059 26-05-2019 14:50:00 22.4 C 50 % 11.47 C
3060 26-05-2019 14:55:00 22.7 C 52 % 12.34 C
3061 26-05-2019 15:00:00 22.9 C 51 % 12.23 C
3062 26-05-2019 15:05:00 23.2 C 52 % 12.8 C
3063 26-05-2019 15:10:00 23.5 C 49 % 12.17 C
3064 26-05-2019 15:15:00 23.4 C 49 % 12.08 C
3065 26-05-2019 15:20:00 23.6 C 49 % 12.27 C
3066 26-05-2019 15:25:00 24 C 48 % 12.32 C
3067 26-05-2019 15:30:00 24.1 C 47 % 12.09 C
3068 26-05-2019 15:35:00 24.2 C 47 % 12.18 C
3069 26-05-2019 15:40:00 23.9 C 47 % 11.91 C
3070 26-05-2019 15:45:00 23.4 C 48 % 11.77 C
3071 26-05-2019 15:50:00 22.7 C 51 % 12.05 C
3072 26-05-2019 15:55:00 22.3 C 51 % 11.68 C
3073 26-05-2019 16:00:00 22.1 C 54 % 12.36 C
3074 26-05-2019 16:05:00 23 C 53 % 12.91 C
3075 26-05-2019 16:10:00 23.8 C 47 % 11.82 C
Sensor: Nr:Datum:Temp:Feuchte:Taupunkt:
Aussen-T/F 3076 26-05-2019 16:15:00 24.2 C 47 % 12.18 C
3077 26-05-2019 16:20:00 24.8 C 45 % 12.06 C
3078 26-05-2019 16:25:00 24.9 C 43 % 11.47 C
3079 26-05-2019 16:30:00 24.5 C 47 % 12.45 C
3080 26-05-2019 16:35:00 24.3 C 49 % 12.91 C
3081 26-05-2019 16:40:00 24.2 C 48 % 12.5 C
3082 26-05-2019 16:45:00 23.6 C 48 % 11.95 C
3083 26-05-2019 16:50:00 22.9 C 50 % 11.93 C
3084 26-05-2019 16:55:00 22.4 C 51 % 11.77 C
3085 26-05-2019 17:00:00 22.2 C 53 % 12.17 C
3086 26-05-2019 17:05:00 22.1 C 54 % 12.36 C
3087 26-05-2019 17:10:00 22.1 C 54 % 12.36 C
3088 26-05-2019 17:15:00 22.1 C 55 % 12.64 C
3089 26-05-2019 17:20:00 22.1 C 54 % 12.36 C
3090 26-05-2019 17:25:00 22 C 56 % 12.82 C
3091 26-05-2019 17:30:00 21.8 C 57 % 12.91 C
3092 26-05-2019 17:35:00 21.8 C 56 % 12.64 C
3093 26-05-2019 17:40:00 21.7 C 58 % 13.08 C
3094 26-05-2019 17:45:00 21.7 C 56 % 12.54 C
3095 26-05-2019 17:50:00 21.7 C 59 % 13.34 C
3096 26-05-2019 17:55:00 21.7 C 57 % 12.81 C
3097 26-05-2019 18:00:00 21.8 C 55 % 12.36 C
3098 26-05-2019 18:05:00 21.8 C 57 % 12.91 C
3099 26-05-2019 18:10:00 21.8 C 57 % 12.91 C
3100 26-05-2019 18:15:00 21.7 C 55 % 12.27 C
Sensor: Nr:Datum:Temp:Feuchte:Taupunkt:
Aussen-T/F 3101 26-05-2019 18:20:00 21.7 C 59 % 13.34 C
3102 26-05-2019 18:25:00 21.6 C 60 % 13.51 C
3103 26-05-2019 18:30:00 21.5 C 60 % 13.41 C
3104 26-05-2019 18:35:00 21.4 C 57 % 12.53 C
3105 26-05-2019 18:40:00 21.3 C 58 % 12.71 C
3106 26-05-2019 18:45:00 21.1 C 60 % 13.04 C
3107 26-05-2019 18:50:00 20.9 C 61 % 13.1 C
3108 26-05-2019 18:55:00 20.9 C 61 % 13.1 C
3109 26-05-2019 19:00:00 20.8 C 62 % 13.26 C
3110 26-05-2019 19:05:00 20.7 C 62 % 13.16 C
3111 26-05-2019 19:10:00 20.6 C 61 % 12.82 C
3112 26-05-2019 19:15:00 20.4 C 63 % 13.12 C
3113 26-05-2019 19:20:00 20.2 C 64 % 13.18 C
3114 26-05-2019 19:25:00 20.1 C 67 % 13.78 C
3115 26-05-2019 19:30:00 19.9 C 67 % 13.59 C
3116 26-05-2019 19:35:00 19.7 C 67 % 13.4 C
3117 26-05-2019 19:40:00 19.4 C 67 % 13.12 C
3118 26-05-2019 19:45:00 19.3 C 68 % 13.25 C
3119 26-05-2019 19:50:00 19.1 C 68 % 13.06 C
3120 26-05-2019 19:55:00 19 C 70 % 13.41 C
3121 26-05-2019 20:00:00 18.9 C 71 % 13.53 C
3122 26-05-2019 20:05:00 18.8 C 70 % 13.22 C
3123 26-05-2019 20:10:00 18.7 C 71 % 13.34 C
3124 26-05-2019 20:15:00 18.6 C 72 % 13.46 C
3125 26-05-2019 20:20:00 18.6 C 72 % 13.46 C
Sensor: Nr:Datum:Temp:Feuchte:Taupunkt:
Aussen-T/F 3126 26-05-2019 20:25:00 18.4 C 73 % 13.48 C
3127 26-05-2019 20:30:00 18.3 C 72 % 13.17 C
3128 26-05-2019 20:35:00 18.2 C 72 % 13.07 C
3129 26-05-2019 20:40:00 18.1 C 73 % 13.19 C
3130 26-05-2019 20:45:00 18 C 74 % 13.3 C
3131 26-05-2019 20:50:00 17.9 C 73 % 12.99 C
3132 26-05-2019 20:55:00 17.9 C 74 % 13.2 C
3133 26-05-2019 21:00:00 17.8 C 73 % 12.9 C
3134 26-05-2019 21:05:00 17.8 C 71 % 12.47 C
3135 26-05-2019 21:10:00 17.9 C 72 % 12.78 C
3136 26-05-2019 21:15:00 17.9 C 73 % 12.99 C
3137 26-05-2019 21:20:00 17.9 C 72 % 12.78 C
3138 26-05-2019 21:25:00 17.9 C 73 % 12.99 C
3139 26-05-2019 21:30:00 17.8 C 70 % 12.26 C
3140 26-05-2019 21:35:00 17.8 C 69 % 12.04 C
3141 26-05-2019 21:40:00 17.9 C 70 % 12.35 C
3142 26-05-2019 21:45:00 18.1 C 68 % 12.11 C
3143 26-05-2019 21:50:00 18.2 C 70 % 12.64 C
3144 26-05-2019 21:55:00 18.2 C 68 % 12.2 C
3145 26-05-2019 22:00:00 18.1 C 69 % 12.33 C
3146 26-05-2019 22:05:00 18.1 C 70 % 12.55 C
3147 26-05-2019 22:10:00 18 C 70 % 12.45 C
3148 26-05-2019 22:15:00 17.9 C 71 % 12.57 C
3149 26-05-2019 22:20:00 17.9 C 72 % 12.78 C
3150 26-05-2019 22:25:00 17.8 C 72 % 12.69 C
Sensor: Nr:Datum:Temp:Feuchte:Taupunkt:
Aussen-T/F 3151 26-05-2019 22:30:00 17.6 C 73 % 12.71 C
3152 26-05-2019 22:35:00 17.5 C 73 % 12.61 C
3153 26-05-2019 22:40:00 17.4 C 74 % 12.72 C
3154 26-05-2019 22:45:00 17.3 C 74 % 12.62 C
3155 26-05-2019 22:50:00 17.3 C 73 % 12.42 C
3156 26-05-2019 22:55:00 17.3 C 74 % 12.62 C
3157 26-05-2019 23:00:00 17.3 C 74 % 12.62 C
3158 26-05-2019 23:05:00 17.3 C 74 % 12.62 C
3159 26-05-2019 23:10:00 17.2 C 74 % 12.53 C
3160 26-05-2019 23:15:00 17.2 C 75 % 12.73 C
3161 26-05-2019 23:20:00 17.1 C 75 % 12.64 C
3162 26-05-2019 23:25:00 17.1 C 74 % 12.43 C
3163 26-05-2019 23:30:00 16.9 C 75 % 12.44 C
3164 26-05-2019 23:35:00 16.8 C 75 % 12.35 C
3165 26-05-2019 23:40:00 16.7 C 76 % 12.45 C
3166 26-05-2019 23:45:00 16.6 C 77 % 12.55 C
3167 26-05-2019 23:50:00 16.5 C 77 % 12.46 C
3168 26-05-2019 23:55:00 16.4 C 77 % 12.36 C
3169 27-05-2019 00:00:00 16.4 C 78 % 12.56 C
3170 27-05-2019 00:05:00 16.4 C 78 % 12.56 C
3171 27-05-2019 00:10:00 16.3 C 78 % 12.46 C
3172 27-05-2019 00:15:00 16.3 C 78 % 12.46 C
3173 27-05-2019 00:20:00 16.3 C 79 % 12.65 C
3174 27-05-2019 00:25:00 16.3 C 79 % 12.65 C
3175 27-05-2019 00:30:00 16.3 C 78 % 12.46 C
Sensor: Nr:Datum:Temp:Feuchte:Taupunkt:
Aussen-T/F 3176 27-05-2019 00:35:00 16.3 C 78 % 12.46 C
3177 27-05-2019 00:40:00 16.3 C 79 % 12.65 C
3178 27-05-2019 00:45:00 16.2 C 79 % 12.56 C
3179 27-05-2019 00:50:00 16.2 C 79 % 12.56 C
3180 27-05-2019 00:55:00 16.2 C 78 % 12.36 C
3181 27-05-2019 01:00:00 16.1 C 79 % 12.46 C
3182 27-05-2019 01:05:00 16.1 C 79 % 12.46 C
3183 27-05-2019 01:10:00 16 C 79 % 12.36 C
3184 27-05-2019 01:15:00 15.9 C 80 % 12.46 C
3185 27-05-2019 01:20:00 15.9 C 81 % 12.65 C
3186 27-05-2019 01:25:00 15.8 C 81 % 12.55 C
3187 27-05-2019 01:30:00 15.8 C 81 % 12.55 C
3188 27-05-2019 01:35:00 15.7 C 82 % 12.64 C
3189 27-05-2019 01:40:00 15.7 C 82 % 12.64 C
3190 27-05-2019 01:45:00 15.5 C 82 % 12.44 C
3191 27-05-2019 01:50:00 15.3 C 82 % 12.25 C
3192 27-05-2019 01:55:00 15.2 C 82 % 12.15 C
3193 27-05-2019 02:00:00 15 C 83 % 12.14 C
3194 27-05-2019 02:05:00 14.8 C 83 % 11.94 C
3195 27-05-2019 02:10:00 14.7 C 83 % 11.85 C
3196 27-05-2019 02:15:00 14.7 C 84 % 12.03 C
3197 27-05-2019 02:20:00 14.6 C 84 % 11.93 C
3198 27-05-2019 02:25:00 14.5 C 84 % 11.83 C
3199 27-05-2019 02:30:00 14.7 C 83 % 11.85 C
3200 27-05-2019 02:35:00 14.7 C 83 % 11.85 C
Sensor: Nr:Datum:Temp:Feuchte:Taupunkt:
Aussen-T/F 3201 27-05-2019 02:40:00 14.7 C 83 % 11.85 C
3202 27-05-2019 02:45:00 14.7 C 83 % 11.85 C
3203 27-05-2019 02:50:00 14.7 C 83 % 11.85 C
3204 27-05-2019 02:55:00 14.6 C 83 % 11.75 C
3205 27-05-2019 03:00:00 14.6 C 83 % 11.75 C
3206 27-05-2019 03:05:00 14.5 C 83 % 11.65 C
3207 27-05-2019 03:10:00 14.4 C 83 % 11.55 C
3208 27-05-2019 03:15:00 14.3 C 84 % 11.64 C
3209 27-05-2019 03:20:00 14.2 C 84 % 11.54 C
3210 27-05-2019 03:25:00 14.1 C 84 % 11.44 C
3211 27-05-2019 03:30:00 14 C 85 % 11.52 C
3212 27-05-2019 03:35:00 13.9 C 85 % 11.42 C
3213 27-05-2019 03:40:00 13.9 C 85 % 11.42 C
3214 27-05-2019 03:45:00 13.8 C 85 % 11.32 C
3215 27-05-2019 03:50:00 13.8 C 86 % 11.5 C
3216 27-05-2019 03:55:00 13.7 C 86 % 11.4 C
3217 27-05-2019 04:00:00 13.7 C 86 % 11.4 C
3218 27-05-2019 04:05:00 13.7 C 87 % 11.58 C
3219 27-05-2019 04:10:00 13.7 C 87 % 11.58 C
3220 27-05-2019 04:15:00 13.7 C 87 % 11.58 C
3221 27-05-2019 04:20:00 13.7 C 88 % 11.75 C
3222 27-05-2019 04:25:00 13.7 C 88 % 11.75 C
3223 27-05-2019 04:30:00 13.7 C 88 % 11.75 C
3224 27-05-2019 04:35:00 13.8 C 88 % 11.85 C
3225 27-05-2019 04:40:00 13.9 C 88 % 11.95 C
Sensor: Nr:Datum:Temp:Feuchte:Taupunkt:
Aussen-T/F 3226 27-05-2019 04:45:00 14.1 C 87 % 11.97 C
3227 27-05-2019 04:50:00 14.2 C 87 % 12.07 C
3228 27-05-2019 04:55:00 14.3 C 87 % 12.17 C
3229 27-05-2019 05:00:00 14.3 C 88 % 12.34 C
3230 27-05-2019 05:05:00 14.3 C 88 % 12.34 C
3231 27-05-2019 05:10:00 14.3 C 89 % 12.51 C
3232 27-05-2019 05:15:00 14.3 C 89 % 12.51 C
3233 27-05-2019 05:20:00 14.2 C 90 % 12.58 C
3234 27-05-2019 05:25:00 14.2 C 90 % 12.58 C
3235 27-05-2019 05:30:00 14.2 C 90 % 12.58 C
3236 27-05-2019 05:35:00 14.1 C 91 % 12.65 C
3237 27-05-2019 05:40:00 14.1 C 91 % 12.65 C
3238 27-05-2019 05:45:00 14.1 C 91 % 12.65 C
3239 27-05-2019 05:50:00 14.1 C 91 % 12.65 C
3240 27-05-2019 05:55:00 14.1 C 92 % 12.82 C
3241 27-05-2019 06:00:00 14.1 C 92 % 12.82 C
3242 27-05-2019 06:05:00 14 C 92 % 12.72 C
3243 27-05-2019 06:10:00 14 C 92 % 12.72 C
3244 27-05-2019 06:15:00 14 C 93 % 12.89 C
3245 27-05-2019 06:20:00 13.9 C 93 % 12.79 C
3246 27-05-2019 06:25:00 13.9 C 93 % 12.79 C
3247 27-05-2019 06:30:00 13.9 C 93 % 12.79 C
3248 27-05-2019 06:35:00 13.9 C 93 % 12.79 C
3249 27-05-2019 06:40:00 13.9 C 93 % 12.79 C
3250 27-05-2019 06:45:00 13.9 C 93 % 12.79 C
Sensor: Nr:Datum:Temp:Feuchte:Taupunkt:
Aussen-T/F 3251 27-05-2019 06:50:00 13.9 C 93 % 12.79 C
3252 27-05-2019 06:55:00 13.9 C 94 % 12.95 C
3253 27-05-2019 07:00:00 14 C 94 % 13.05 C
3254 27-05-2019 07:05:00 14.1 C 94 % 13.15 C
3255 27-05-2019 07:10:00 14.1 C 94 % 13.15 C
3256 27-05-2019 07:15:00 14.1 C 94 % 13.15 C
3257 27-05-2019 07:20:00 14.1 C 94 % 13.15 C
3258 27-05-2019 07:25:00 14.2 C 94 % 13.25 C
3259 27-05-2019 07:30:00 14.2 C 94 % 13.25 C
3260 27-05-2019 07:35:00 14.2 C 94 % 13.25 C
3261 27-05-2019 07:40:00 14.3 C 94 % 13.35 C
3262 27-05-2019 07:45:00 14.4 C 94 % 13.45 C
3263 27-05-2019 07:50:00 14.4 C 94 % 13.45 C
3264 27-05-2019 07:55:00 14.4 C 94 % 13.45 C
3265 27-05-2019 08:00:00 14.5 C 94 % 13.55 C
3266 27-05-2019 08:05:00 14.6 C 94 % 13.65 C
3267 27-05-2019 08:10:00 14.6 C 94 % 13.65 C
3268 27-05-2019 08:15:00 14.7 C 93 % 13.58 C
3269 27-05-2019 08:20:00 14.8 C 93 % 13.68 C
3270 27-05-2019 08:25:00 14.8 C 93 % 13.68 C
3271 27-05-2019 08:30:00 15 C 93 % 13.88 C
3272 27-05-2019 08:35:00 15.1 C 93 % 13.98 C
3273 27-05-2019 08:40:00 15.2 C 93 % 14.08 C
3274 27-05-2019 08:45:00 15.3 C 93 % 14.18 C
3275 27-05-2019 08:50:00 15.3 C 93 % 14.18 C
Sensor: Nr:Datum:Temp:Feuchte:Taupunkt:
Aussen-T/F 3276 27-05-2019 08:55:00 15.4 C 93 % 14.27 C
3277 27-05-2019 09:00:00 15.4 C 93 % 14.27 C
3278 27-05-2019 09:05:00 15.4 C 93 % 14.27 C
3279 27-05-2019 09:10:00 15.4 C 92 % 14.11 C
3280 27-05-2019 09:15:00 15.5 C 93 % 14.37 C
3281 27-05-2019 09:20:00 15.6 C 93 % 14.47 C
3282 27-05-2019 09:25:00 15.7 C 93 % 14.57 C
3283 27-05-2019 09:30:00 15.8 C 93 % 14.67 C
3284 27-05-2019 09:35:00 15.8 C 93 % 14.67 C
3285 27-05-2019 09:40:00 15.7 C 92 % 14.4 C
3286 27-05-2019 09:45:00 15.7 C 92 % 14.4 C
3287 27-05-2019 09:50:00 15.7 C 92 % 14.4 C
3288 27-05-2019 09:55:00 15.7 C 93 % 14.57 C
3289 27-05-2019 10:00:00 15.8 C 92 % 14.5 C
3290 27-05-2019 10:05:00 15.8 C 92 % 14.5 C
3291 27-05-2019 10:10:00 15.9 C 92 % 14.6 C
3292 27-05-2019 10:15:00 15.9 C 91 % 14.43 C
3293 27-05-2019 10:20:00 15.8 C 91 % 14.33 C
3294 27-05-2019 10:25:00 15.8 C 91 % 14.33 C
3295 27-05-2019 10:30:00 15.8 C 91 % 14.33 C
3296 27-05-2019 10:35:00 15.9 C 92 % 14.6 C
3297 27-05-2019 10:40:00 16.1 C 92 % 14.8 C
3298 27-05-2019 10:45:00 16.1 C 91 % 14.63 C
3299 27-05-2019 10:50:00 16.1 C 91 % 14.63 C
3300 27-05-2019 10:55:00 16.1 C 91 % 14.63 C
Sensor: Nr:Datum:Temp:Feuchte:Taupunkt:
Aussen-T/F 3301 27-05-2019 11:00:00 16.1 C 91 % 14.63 C
3302 27-05-2019 11:05:00 16.1 C 92 % 14.8 C
3303 27-05-2019 11:10:00 16 C 92 % 14.7 C
3304 27-05-2019 11:15:00 15.8 C 91 % 14.33 C
3305 27-05-2019 11:20:00 15.3 C 90 % 13.67 C
3306 27-05-2019 11:25:00 15 C 90 % 13.37 C
3307 27-05-2019 11:30:00 14.8 C 91 % 13.35 C
3308 27-05-2019 11:35:00 14.8 C 91 % 13.35 C
3309 27-05-2019 11:40:00 14.7 C 92 % 13.41 C
3310 27-05-2019 11:45:00 14.7 C 92 % 13.41 C
3311 27-05-2019 11:50:00 14.8 C 93 % 13.68 C
3312 27-05-2019 11:55:00 14.9 C 94 % 13.94 C
3313 27-05-2019 12:00:00 15.1 C 94 % 14.14 C
3314 27-05-2019 12:05:00 15.2 C 94 % 14.24 C
3315 27-05-2019 12:10:00 15.1 C 93 % 13.98 C
3316 27-05-2019 12:15:00 15.1 C 93 % 13.98 C
3317 27-05-2019 12:20:00 15.1 C 93 % 13.98 C
3318 27-05-2019 12:25:00 15.1 C 93 % 13.98 C
3319 27-05-2019 12:30:00 15 C 93 % 13.88 C
3320 27-05-2019 12:35:00 14.9 C 93 % 13.78 C
3321 27-05-2019 12:40:00 14.9 C 93 % 13.78 C
3322 27-05-2019 12:45:00 14.9 C 93 % 13.78 C
3323 27-05-2019 12:50:00 14.9 C 93 % 13.78 C
3324 27-05-2019 12:55:00 14.8 C 93 % 13.68 C
3325 27-05-2019 13:00:00 14.6 C 92 % 13.32 C
Sensor: Nr:Datum:Temp:Feuchte:Taupunkt:
Aussen-T/F 3326 27-05-2019 13:05:00 14.4 C 93 % 13.28 C
3327 27-05-2019 13:10:00 14.4 C 93 % 13.28 C
3328 27-05-2019 13:15:00 14.4 C 93 % 13.28 C
3329 27-05-2019 13:20:00 14.3 C 93 % 13.18 C
3330 27-05-2019 13:25:00 14.3 C 94 % 13.35 C
3331 27-05-2019 13:30:00 14.3 C 94 % 13.35 C
3332 27-05-2019 13:35:00 14.3 C 94 % 13.35 C
3333 27-05-2019 13:40:00 14.4 C 94 % 13.45 C
3334 27-05-2019 13:45:00 14.5 C 94 % 13.55 C
3335 27-05-2019 13:50:00 14.4 C 94 % 13.45 C
3336 27-05-2019 13:55:00 14.4 C 94 % 13.45 C
3337 27-05-2019 14:00:00 14.4 C 94 % 13.45 C
3338 27-05-2019 14:05:00 14.5 C 94 % 13.55 C
3339 27-05-2019 14:10:00 14.6 C 95 % 13.81 C
3340 27-05-2019 14:15:00 14.6 C 94 % 13.65 C
3341 27-05-2019 14:20:00 14.4 C 93 % 13.28 C
3342 27-05-2019 14:25:00 14.3 C 94 % 13.35 C
3343 27-05-2019 14:30:00 14.4 C 94 % 13.45 C
3344 27-05-2019 14:35:00 14.5 C 95 % 13.71 C
3345 27-05-2019 14:40:00 14.6 C 95 % 13.81 C
3346 27-05-2019 14:45:00 14.7 C 95 % 13.91 C
3347 27-05-2019 14:50:00 14.7 C 95 % 13.91 C
3348 27-05-2019 14:55:00 14.7 C 94 % 13.74 C
3349 27-05-2019 15:00:00 14.6 C 94 % 13.65 C
3350 27-05-2019 15:05:00 14.4 C 94 % 13.45 C
Sensor: Nr:Datum:Temp:Feuchte:Taupunkt:
Aussen-T/F 3351 27-05-2019 15:10:00 14.4 C 94 % 13.45 C
3352 27-05-2019 15:15:00 14.5 C 94 % 13.55 C
3353 27-05-2019 15:20:00 14.7 C 94 % 13.74 C
3354 27-05-2019 15:25:00 14.7 C 94 % 13.74 C
3355 27-05-2019 15:30:00 14.9 C 95 % 14.11 C
3356 27-05-2019 15:35:00 15.1 C 95 % 14.31 C
3357 27-05-2019 15:40:00 15.2 C 94 % 14.24 C
3358 27-05-2019 15:45:00 15.2 C 93 % 14.08 C
3359 27-05-2019 15:50:00 15.1 C 93 % 13.98 C
3360 27-05-2019 15:55:00 15.1 C 93 % 13.98 C
3361 27-05-2019 16:00:00 15.1 C 93 % 13.98 C
3362 27-05-2019 16:05:00 15.2 C 93 % 14.08 C
3363 27-05-2019 16:10:00 15.2 C 94 % 14.24 C
3364 27-05-2019 16:15:00 15.3 C 94 % 14.34 C
3365 27-05-2019 16:20:00 15.4 C 94 % 14.44 C
3366 27-05-2019 16:25:00 15.5 C 94 % 14.54 C
3367 27-05-2019 16:30:00 15.6 C 94 % 14.64 C
3368 27-05-2019 16:35:00 15.7 C 95 % 14.9 C
3369 27-05-2019 16:40:00 15.6 C 94 % 14.64 C
3370 27-05-2019 16:45:00 15.7 C 94 % 14.74 C
3371 27-05-2019 16:50:00 15.7 C 94 % 14.74 C
3372 27-05-2019 16:55:00 15.7 C 94 % 14.74 C
3373 27-05-2019 17:00:00 15.7 C 94 % 14.74 C
3374 27-05-2019 17:05:00 15.7 C 93 % 14.57 C
3375 27-05-2019 17:10:00 15.7 C 93 % 14.57 C
Sensor: Nr:Datum:Temp:Feuchte:Taupunkt:
Aussen-T/F 3376 27-05-2019 17:15:00 15.7 C 93 % 14.57 C
3377 27-05-2019 17:20:00 15.9 C 93 % 14.77 C
3378 27-05-2019 17:25:00 16.1 C 93 % 14.97 C
3379 27-05-2019 17:30:00 16.2 C 92 % 14.9 C
3380 27-05-2019 17:35:00 16.3 C 92 % 15 C
3381 27-05-2019 17:40:00 16.4 C 92 % 15.1 C
3382 27-05-2019 17:45:00 16.4 C 92 % 15.1 C
3383 27-05-2019 17:50:00 16.4 C 92 % 15.1 C
3384 27-05-2019 17:55:00 16.4 C 92 % 15.1 C
3385 27-05-2019 18:00:00 16.3 C 92 % 15 C
3386 27-05-2019 18:05:00 16.2 C 92 % 14.9 C
3387 27-05-2019 18:10:00 16.2 C 92 % 14.9 C
3388 27-05-2019 18:15:00 16.2 C 93 % 15.07 C
3389 27-05-2019 18:20:00 16.2 C 93 % 15.07 C
3390 27-05-2019 18:25:00 16.2 C 93 % 15.07 C
3391 27-05-2019 18:30:00 16.2 C 93 % 15.07 C
3392 27-05-2019 18:35:00 16.2 C 93 % 15.07 C
3393 27-05-2019 18:40:00 16.3 C 94 % 15.33 C
3394 27-05-2019 18:45:00 16.4 C 94 % 15.43 C
3395 27-05-2019 18:50:00 16.4 C 94 % 15.43 C
3396 27-05-2019 18:55:00 16.5 C 94 % 15.53 C
3397 27-05-2019 19:00:00 16.6 C 94 % 15.63 C
3398 27-05-2019 19:05:00 16.6 C 94 % 15.63 C
3399 27-05-2019 19:10:00 16.7 C 94 % 15.73 C
3400 27-05-2019 19:15:00 16.8 C 94 % 15.83 C
Sensor: Nr:Datum:Temp:Feuchte:Taupunkt:
Aussen-T/F 3401 27-05-2019 19:20:00 16.9 C 94 % 15.93 C
3402 27-05-2019 19:25:00 16.9 C 93 % 15.76 C
3403 27-05-2019 19:30:00 16.8 C 92 % 15.49 C
3404 27-05-2019 19:35:00 16.7 C 92 % 15.39 C
3405 27-05-2019 19:40:00 16.7 C 92 % 15.39 C
3406 27-05-2019 19:45:00 16.7 C 92 % 15.39 C
3407 27-05-2019 19:50:00 16.7 C 92 % 15.39 C
3408 27-05-2019 19:55:00 16.7 C 92 % 15.39 C
3409 27-05-2019 20:00:00 16.6 C 92 % 15.3 C
3410 27-05-2019 20:05:00 16.4 C 92 % 15.1 C
3411 27-05-2019 20:10:00 16.3 C 91 % 14.83 C
3412 27-05-2019 20:15:00 16.1 C 91 % 14.63 C
3413 27-05-2019 20:20:00 15.9 C 91 % 14.43 C
3414 27-05-2019 20:25:00 15.8 C 91 % 14.33 C
3415 27-05-2019 20:30:00 15.7 C 92 % 14.4 C
3416 27-05-2019 20:35:00 15.5 C 91 % 14.04 C
3417 27-05-2019 20:40:00 15.4 C 92 % 14.11 C
3418 27-05-2019 20:45:00 15.3 C 92 % 14.01 C
3419 27-05-2019 20:50:00 15.2 C 92 % 13.91 C
3420 27-05-2019 20:55:00 15.2 C 92 % 13.91 C
3421 27-05-2019 21:00:00 15.1 C 93 % 13.98 C
3422 27-05-2019 21:05:00 15 C 93 % 13.88 C
3423 27-05-2019 21:10:00 14.9 C 93 % 13.78 C
3424 27-05-2019 21:15:00 14.9 C 93 % 13.78 C
3425 27-05-2019 21:20:00 14.8 C 93 % 13.68 C
Sensor: Nr:Datum:Temp:Feuchte:Taupunkt:
Aussen-T/F 3426 27-05-2019 21:25:00 14.8 C 93 % 13.68 C
3427 27-05-2019 21:30:00 14.7 C 93 % 13.58 C
3428 27-05-2019 21:35:00 14.6 C 93 % 13.48 C
3429 27-05-2019 21:40:00 14.5 C 93 % 13.38 C
3430 27-05-2019 21:45:00 14.4 C 94 % 13.45 C
3431 27-05-2019 21:50:00 14.3 C 93 % 13.18 C
3432 27-05-2019 21:55:00 14.2 C 93 % 13.08 C
3433 27-05-2019 22:00:00 14.1 C 94 % 13.15 C
3434 27-05-2019 22:05:00 14 C 94 % 13.05 C
3435 27-05-2019 22:10:00 13.9 C 94 % 12.95 C
3436 27-05-2019 22:15:00 13.9 C 94 % 12.95 C
3437 27-05-2019 22:20:00 13.8 C 94 % 12.85 C
3438 27-05-2019 22:25:00 13.8 C 94 % 12.85 C
3439 27-05-2019 22:30:00 13.7 C 94 % 12.75 C
3440 27-05-2019 22:35:00 13.7 C 94 % 12.75 C
3441 27-05-2019 22:40:00 13.7 C 94 % 12.75 C
3442 27-05-2019 22:45:00 13.7 C 95 % 12.91 C
3443 27-05-2019 22:50:00 13.6 C 95 % 12.81 C
3444 27-05-2019 22:55:00 13.6 C 95 % 12.81 C
3445 27-05-2019 23:00:00 13.6 C 95 % 12.81 C
3446 27-05-2019 23:05:00 13.5 C 95 % 12.72 C
3447 27-05-2019 23:10:00 13.5 C 95 % 12.72 C
3448 27-05-2019 23:15:00 13.5 C 95 % 12.72 C
3449 27-05-2019 23:20:00 13.4 C 95 % 12.62 C
3450 27-05-2019 23:25:00 13.4 C 95 % 12.62 C
Sensor: Nr:Datum:Temp:Feuchte:Taupunkt:
Aussen-T/F 3451 27-05-2019 23:30:00 13.4 C 95 % 12.62 C
3452 27-05-2019 23:35:00 13.4 C 95 % 12.62 C
3453 27-05-2019 23:40:00 13.3 C 95 % 12.52 C
3454 27-05-2019 23:45:00 13.3 C 95 % 12.52 C
3455 27-05-2019 23:50:00 13.3 C 95 % 12.52 C
3456 27-05-2019 23:55:00 13.2 C 95 % 12.42 C
3457 28-05-2019 00:00:00 13.2 C 95 % 12.42 C
3458 28-05-2019 00:05:00 13.2 C 95 % 12.42 C
3459 28-05-2019 00:10:00 13.1 C 95 % 12.32 C
3460 28-05-2019 00:15:00 13.1 C 95 % 12.32 C
3461 28-05-2019 00:20:00 13.1 C 96 % 12.48 C
3462 28-05-2019 00:25:00 13.1 C 96 % 12.48 C
3463 28-05-2019 00:30:00 12.9 C 96 % 12.28 C
3464 28-05-2019 00:35:00 12.9 C 96 % 12.28 C
3465 28-05-2019 00:40:00 12.8 C 96 % 12.18 C
3466 28-05-2019 00:45:00 12.8 C 96 % 12.18 C
3467 28-05-2019 00:50:00 12.7 C 96 % 12.08 C
3468 28-05-2019 00:55:00 12.7 C 96 % 12.08 C
3469 28-05-2019 01:00:00 12.6 C 96 % 11.98 C
3470 28-05-2019 01:05:00 12.6 C 96 % 11.98 C
3471 28-05-2019 01:10:00 12.5 C 96 % 11.88 C
3472 28-05-2019 01:15:00 12.5 C 96 % 11.88 C
3473 28-05-2019 01:20:00 12.6 C 96 % 11.98 C
3474 28-05-2019 01:25:00 12.6 C 96 % 11.98 C
3475 28-05-2019 01:30:00 12.4 C 96 % 11.78 C
Sensor: Nr:Datum:Temp:Feuchte:Taupunkt:
Aussen-T/F 3476 28-05-2019 01:35:00 12.3 C 96 % 11.68 C
3477 28-05-2019 01:40:00 12.3 C 96 % 11.68 C
3478 28-05-2019 01:45:00 12.3 C 96 % 11.68 C
3479 28-05-2019 01:50:00 12.3 C 96 % 11.68 C
3480 28-05-2019 01:55:00 12.4 C 96 % 11.78 C
3481 28-05-2019 02:00:00 12.4 C 96 % 11.78 C
3482 28-05-2019 02:05:00 12.4 C 97 % 11.94 C
3483 28-05-2019 02:10:00 12.5 C 97 % 12.04 C
3484 28-05-2019 02:15:00 12.5 C 97 % 12.04 C
3485 28-05-2019 02:20:00 12.5 C 96 % 11.88 C
3486 28-05-2019 02:25:00 12.6 C 96 % 11.98 C
3487 28-05-2019 02:30:00 12.6 C 96 % 11.98 C
3488 28-05-2019 02:35:00 12.6 C 97 % 12.14 C
3489 28-05-2019 02:40:00 12.6 C 97 % 12.14 C
3490 28-05-2019 02:45:00 12.6 C 97 % 12.14 C
3491 28-05-2019 02:50:00 12.6 C 97 % 12.14 C
3492 28-05-2019 02:55:00 12.7 C 97 % 12.24 C
3493 28-05-2019 03:00:00 12.7 C 97 % 12.24 C
3494 28-05-2019 03:05:00 12.7 C 97 % 12.24 C
3495 28-05-2019 03:10:00 12.7 C 97 % 12.24 C
3496 28-05-2019 03:15:00 12.7 C 97 % 12.24 C
3497 28-05-2019 03:20:00 12.6 C 97 % 12.14 C
3498 28-05-2019 03:25:00 12.6 C 97 % 12.14 C
3499 28-05-2019 03:30:00 12.5 C 97 % 12.04 C
3500 28-05-2019 03:35:00 12.3 C 96 % 11.68 C
Sensor: Nr:Datum:Temp:Feuchte:Taupunkt:
Aussen-T/F 3501 28-05-2019 03:40:00 12.2 C 96 % 11.58 C
3502 28-05-2019 03:45:00 12.1 C 96 % 11.48 C
3503 28-05-2019 03:50:00 12 C 96 % 11.38 C
3504 28-05-2019 03:55:00 11.9 C 96 % 11.28 C
3505 28-05-2019 04:00:00 11.8 C 96 % 11.18 C
3506 28-05-2019 04:05:00 11.7 C 96 % 11.08 C
3507 28-05-2019 04:10:00 11.7 C 96 % 11.08 C
3508 28-05-2019 04:15:00 11.6 C 96 % 10.98 C
3509 28-05-2019 04:20:00 11.6 C 96 % 10.98 C
3510 28-05-2019 04:25:00 11.5 C 96 % 10.88 C
3511 28-05-2019 04:30:00 11.4 C 96 % 10.79 C
3512 28-05-2019 04:35:00 11.4 C 97 % 10.94 C
3513 28-05-2019 04:40:00 11.4 C 97 % 10.94 C
3514 28-05-2019 04:45:00 11.4 C 97 % 10.94 C
3515 28-05-2019 04:50:00 11.5 C 97 % 11.04 C
3516 28-05-2019 04:55:00 11.6 C 97 % 11.14 C
3517 28-05-2019 05:00:00 11.6 C 97 % 11.14 C
3518 28-05-2019 05:05:00 11.7 C 97 % 11.24 C
3519 28-05-2019 05:10:00 11.7 C 97 % 11.24 C
3520 28-05-2019 05:15:00 11.7 C 97 % 11.24 C
3521 28-05-2019 05:20:00 11.8 C 97 % 11.34 C
3522 28-05-2019 05:25:00 11.8 C 97 % 11.34 C
3523 28-05-2019 05:30:00 11.8 C 97 % 11.34 C
3524 28-05-2019 05:35:00 11.8 C 97 % 11.34 C
3525 28-05-2019 05:40:00 11.9 C 97 % 11.44 C
Sensor: Nr:Datum:Temp:Feuchte:Taupunkt:
Aussen-T/F 3526 28-05-2019 05:45:00 11.9 C 97 % 11.44 C
3527 28-05-2019 05:50:00 12 C 97 % 11.54 C
3528 28-05-2019 05:55:00 12 C 97 % 11.54 C
3529 28-05-2019 06:00:00 12.1 C 97 % 11.64 C
3530 28-05-2019 06:05:00 12.1 C 97 % 11.64 C
3531 28-05-2019 06:10:00 12.1 C 97 % 11.64 C
3532 28-05-2019 06:15:00 12.1 C 97 % 11.64 C
3533 28-05-2019 06:20:00 12.2 C 97 % 11.74 C
3534 28-05-2019 06:25:00 12.2 C 97 % 11.74 C
3535 28-05-2019 06:30:00 12.2 C 97 % 11.74 C
3536 28-05-2019 06:35:00 12.2 C 97 % 11.74 C
3537 28-05-2019 06:40:00 12.2 C 97 % 11.74 C
3538 28-05-2019 06:45:00 12.2 C 97 % 11.74 C
3539 28-05-2019 06:50:00 12.3 C 97 % 11.84 C
3540 28-05-2019 06:55:00 12.3 C 97 % 11.84 C
3541 28-05-2019 07:00:00 12.3 C 97 % 11.84 C
3542 28-05-2019 07:05:00 12.3 C 97 % 11.84 C
3543 28-05-2019 07:10:00 12.4 C 97 % 11.94 C
3544 28-05-2019 07:15:00 12.4 C 97 % 11.94 C
3545 28-05-2019 07:20:00 12.5 C 97 % 12.04 C
3546 28-05-2019 07:25:00 12.5 C 97 % 12.04 C
3547 28-05-2019 07:30:00 12.6 C 97 % 12.14 C
3548 28-05-2019 07:35:00 12.6 C 97 % 12.14 C
3549 28-05-2019 07:40:00 12.6 C 97 % 12.14 C
3550 28-05-2019 07:45:00 12.6 C 97 % 12.14 C
Sensor: Nr:Datum:Temp:Feuchte:Taupunkt:
Aussen-T/F 3551 28-05-2019 07:50:00 12.7 C 97 % 12.24 C
3552 28-05-2019 07:55:00 12.7 C 97 % 12.24 C
3553 28-05-2019 08:00:00 12.8 C 97 % 12.34 C
3554 28-05-2019 08:05:00 12.8 C 97 % 12.34 C
3555 28-05-2019 08:10:00 12.8 C 97 % 12.34 C
3556 28-05-2019 08:15:00 12.8 C 97 % 12.34 C
3557 28-05-2019 08:20:00 12.9 C 97 % 12.44 C
3558 28-05-2019 08:25:00 12.8 C 97 % 12.34 C
3559 28-05-2019 08:30:00 12.8 C 97 % 12.34 C
3560 28-05-2019 08:35:00 12.8 C 97 % 12.34 C
3561 28-05-2019 08:40:00 12.9 C 97 % 12.44 C
3562 28-05-2019 08:45:00 12.9 C 97 % 12.44 C
3563 28-05-2019 08:50:00 12.9 C 97 % 12.44 C
3564 28-05-2019 08:55:00 12.9 C 97 % 12.44 C
3565 28-05-2019 09:00:00 13 C 97 % 12.54 C
3566 28-05-2019 09:05:00 13.1 C 97 % 12.63 C
3567 28-05-2019 09:10:00 13.2 C 97 % 12.73 C
3568 28-05-2019 09:15:00 13.3 C 97 % 12.83 C
3569 28-05-2019 09:20:00 13.3 C 96 % 12.68 C
3570 28-05-2019 09:25:00 13.3 C 96 % 12.68 C
3571 28-05-2019 09:30:00 13.3 C 96 % 12.68 C
3572 28-05-2019 09:35:00 13.4 C 95 % 12.62 C
3573 28-05-2019 09:40:00 13.6 C 95 % 12.81 C
3574 28-05-2019 09:45:00 13.7 C 94 % 12.75 C
3575 28-05-2019 09:50:00 13.9 C 94 % 12.95 C
Sensor: Nr:Datum:Temp:Feuchte:Taupunkt:
Aussen-T/F 3576 28-05-2019 09:55:00 14 C 93 % 12.89 C
3577 28-05-2019 10:00:00 14.2 C 93 % 13.08 C
3578 28-05-2019 10:05:00 14.4 C 92 % 13.12 C
3579 28-05-2019 10:10:00 14.4 C 89 % 12.61 C
3580 28-05-2019 10:15:00 14.6 C 89 % 12.81 C
3581 28-05-2019 10:20:00 14.6 C 88 % 12.64 C
3582 28-05-2019 10:25:00 14.7 C 87 % 12.56 C
3583 28-05-2019 10:30:00 14.7 C 87 % 12.56 C
3584 28-05-2019 10:35:00 14.8 C 86 % 12.48 C
3585 28-05-2019 10:40:00 15 C 85 % 12.5 C
3586 28-05-2019 10:45:00 15.2 C 86 % 12.88 C
3587 28-05-2019 10:50:00 15.2 C 85 % 12.7 C
3588 28-05-2019 10:55:00 15.1 C 83 % 12.24 C
3589 28-05-2019 11:00:00 15 C 85 % 12.5 C
3590 28-05-2019 11:05:00 15 C 85 % 12.5 C
3591 28-05-2019 11:10:00 15.1 C 84 % 12.42 C
3592 28-05-2019 11:15:00 15.1 C 82 % 12.05 C
3593 28-05-2019 11:20:00 15.4 C 83 % 12.53 C
3594 28-05-2019 11:25:00 15.7 C 81 % 12.45 C
3595 28-05-2019 11:30:00 15.8 C 81 % 12.55 C
3596 28-05-2019 11:35:00 15.9 C 79 % 12.27 C
3597 28-05-2019 11:40:00 16.1 C 78 % 12.27 C
3598 28-05-2019 11:45:00 16.2 C 78 % 12.36 C
3599 28-05-2019 11:50:00 16.3 C 78 % 12.46 C
3600 28-05-2019 11:55:00 16.2 C 76 % 11.97 C
Sensor: Nr:Datum:Temp:Feuchte:Taupunkt:
Aussen-T/F 3601 28-05-2019 12:00:00 16.2 C 76 % 11.97 C
3602 28-05-2019 12:05:00 16.3 C 76 % 12.07 C
3603 28-05-2019 12:10:00 16.3 C 75 % 11.86 C
3604 28-05-2019 12:15:00 16.3 C 74 % 11.66 C
3605 28-05-2019 12:20:00 16.1 C 76 % 11.87 C
3606 28-05-2019 12:25:00 15.9 C 76 % 11.68 C
3607 28-05-2019 12:30:00 15.7 C 76 % 11.48 C
3608 28-05-2019 12:35:00 15.7 C 73 % 10.88 C
3609 28-05-2019 12:40:00 15.8 C 73 % 10.97 C
3610 28-05-2019 12:45:00 15.9 C 74 % 11.28 C
3611 28-05-2019 12:50:00 16.1 C 74 % 11.47 C
3612 28-05-2019 12:55:00 16.3 C 74 % 11.66 C
3613 28-05-2019 13:00:00 16.6 C 73 % 11.74 C
3614 28-05-2019 13:05:00 16.9 C 69 % 11.18 C
3615 28-05-2019 13:10:00 17.1 C 68 % 11.15 C
3616 28-05-2019 13:15:00 17.1 C 67 % 10.93 C
3617 28-05-2019 13:20:00 17.2 C 68 % 11.25 C
3618 28-05-2019 13:25:00 17.3 C 65 % 10.66 C
3619 28-05-2019 13:30:00 17.5 C 67 % 11.31 C
3620 28-05-2019 13:35:00 17.7 C 66 % 11.27 C
3621 28-05-2019 13:40:00 17.9 C 64 % 11 C
3622 28-05-2019 13:45:00 18.3 C 63 % 11.14 C
3623 28-05-2019 13:50:00 18.3 C 63 % 11.14 C
3624 28-05-2019 13:55:00 18 C 64 % 11.09 C
3625 28-05-2019 14:00:00 18.2 C 68 % 12.2 C
Sensor: Nr:Datum:Temp:Feuchte:Taupunkt:
Aussen-T/F 3626 28-05-2019 14:05:00 18.3 C 63 % 11.14 C
3627 28-05-2019 14:10:00 18.4 C 60 % 10.5 C
3628 28-05-2019 14:15:00 18.6 C 61 % 10.94 C
3629 28-05-2019 14:20:00 18.6 C 56 % 9.66 C
3630 28-05-2019 14:25:00 18.2 C 60 % 10.31 C
3631 28-05-2019 14:30:00 16.4 C 70 % 10.92 C
3632 28-05-2019 14:35:00 14.3 C 73 % 9.53 C
3633 28-05-2019 14:40:00 13.3 C 80 % 9.93 C
3634 28-05-2019 14:45:00 12.9 C 83 % 10.09 C
3635 28-05-2019 14:50:00 12.7 C 84 % 10.07 C
3636 28-05-2019 14:55:00 12.6 C 86 % 10.32 C
3637 28-05-2019 15:00:00 12.7 C 86 % 10.42 C
3638 28-05-2019 15:05:00 12.9 C 87 % 10.79 C
3639 28-05-2019 15:10:00 13.1 C 86 % 10.81 C
3640 28-05-2019 15:15:00 13.3 C 86 % 11.01 C
3641 28-05-2019 15:20:00 13.3 C 84 % 10.66 C
3642 28-05-2019 15:25:00 13.3 C 85 % 10.83 C
3643 28-05-2019 15:30:00 13.4 C 85 % 10.93 C
3644 28-05-2019 15:35:00 13.6 C 85 % 11.13 C
3645 28-05-2019 15:40:00 14.2 C 86 % 11.89 C
3646 28-05-2019 15:45:00 14.4 C 81 % 11.18 C
3647 28-05-2019 15:50:00 14.8 C 81 % 11.57 C
3648 28-05-2019 15:55:00 14.9 C 80 % 11.48 C
3649 28-05-2019 16:00:00 14.9 C 80 % 11.48 C
3650 28-05-2019 16:05:00 15 C 81 % 11.77 C
Sensor: Nr:Datum:Temp:Feuchte:Taupunkt:
Aussen-T/F 3651 28-05-2019 16:10:00 15.2 C 80 % 11.78 C
3652 28-05-2019 16:15:00 15.4 C 80 % 11.97 C
3653 28-05-2019 16:20:00 15.9 C 80 % 12.46 C
3654 28-05-2019 16:25:00 16.1 C 75 % 11.67 C
3655 28-05-2019 16:30:00 16.2 C 76 % 11.97 C
3656 28-05-2019 16:35:00 16.3 C 76 % 12.07 C
3657 28-05-2019 16:40:00 16.3 C 74 % 11.66 C
3658 28-05-2019 16:45:00 16.2 C 74 % 11.56 C
3659 28-05-2019 16:50:00 16.2 C 75 % 11.77 C
3660 28-05-2019 16:55:00 16 C 70 % 10.54 C
3661 28-05-2019 17:00:00 15.9 C 72 % 10.86 C
3662 28-05-2019 17:05:00 15.9 C 74 % 11.28 C
3663 28-05-2019 17:10:00 15.9 C 73 % 11.07 C
3664 28-05-2019 17:15:00 15.9 C 73 % 11.07 C
3665 28-05-2019 17:20:00 16 C 72 % 10.96 C
3666 28-05-2019 17:25:00 16.2 C 75 % 11.77 C
3667 28-05-2019 17:30:00 16.8 C 72 % 11.73 C
3668 28-05-2019 17:35:00 17.2 C 69 % 11.47 C
3669 28-05-2019 17:40:00 17.6 C 66 % 11.18 C
3670 28-05-2019 17:45:00 17.9 C 67 % 11.69 C
3671 28-05-2019 17:50:00 18.2 C 63 % 11.05 C
3672 28-05-2019 17:55:00 18.2 C 62 % 10.81 C
3673 28-05-2019 18:00:00 18.4 C 65 % 11.71 C
3674 28-05-2019 18:05:00 18.3 C 60 % 10.41 C
3675 28-05-2019 18:10:00 17.7 C 62 % 10.33 C
Sensor: Nr:Datum:Temp:Feuchte:Taupunkt:
Aussen-T/F 3676 28-05-2019 18:15:00 17.3 C 62 % 9.96 C
3677 28-05-2019 18:20:00 16.9 C 62 % 9.58 C
3678 28-05-2019 18:25:00 16.4 C 66 % 10.04 C
3679 28-05-2019 18:30:00 16.2 C 68 % 10.29 C
3680 28-05-2019 18:35:00 16.4 C 67 % 10.26 C
3681 28-05-2019 18:40:00 16.4 C 67 % 10.26 C
3682 28-05-2019 18:45:00 16 C 67 % 9.88 C
3683 28-05-2019 18:50:00 15.7 C 69 % 10.03 C
3684 28-05-2019 18:55:00 15.7 C 70 % 10.25 C
3685 28-05-2019 19:00:00 16.1 C 70 % 10.63 C
3686 28-05-2019 19:05:00 16.3 C 70 % 10.82 C
3687 28-05-2019 19:10:00 16.6 C 70 % 11.11 C
3688 28-05-2019 19:15:00 16.8 C 67 % 10.64 C
3689 28-05-2019 19:20:00 16.7 C 67 % 10.55 C
3690 28-05-2019 19:25:00 16.7 C 67 % 10.55 C
3691 28-05-2019 19:30:00 16.6 C 67 % 10.45 C
3692 28-05-2019 19:35:00 16.3 C 65 % 9.71 C
3693 28-05-2019 19:40:00 15.8 C 66 % 9.47 C
3694 28-05-2019 19:45:00 15.3 C 68 % 9.43 C
3695 28-05-2019 19:50:00 15 C 69 % 9.36 C
3696 28-05-2019 19:55:00 14.8 C 70 % 9.39 C
3697 28-05-2019 20:00:00 14.6 C 72 % 9.61 C
3698 28-05-2019 20:05:00 14.5 C 74 % 9.93 C
3699 28-05-2019 20:10:00 14.4 C 74 % 9.83 C
3700 28-05-2019 20:15:00 14.3 C 74 % 9.73 C
Sensor: Nr:Datum:Temp:Feuchte:Taupunkt:
Aussen-T/F 3701 28-05-2019 20:20:00 14.2 C 74 % 9.64 C
3702 28-05-2019 20:25:00 14.1 C 76 % 9.94 C
3703 28-05-2019 20:30:00 14.1 C 78 % 10.33 C
3704 28-05-2019 20:35:00 13.9 C 76 % 9.74 C
3705 28-05-2019 20:40:00 13.9 C 77 % 9.94 C
3706 28-05-2019 20:45:00 13.8 C 79 % 10.22 C
3707 28-05-2019 20:50:00 13.8 C 77 % 9.84 C
3708 28-05-2019 20:55:00 13.7 C 78 % 9.94 C
3709 28-05-2019 21:00:00 13.6 C 78 % 9.84 C
3710 28-05-2019 21:05:00 13.5 C 79 % 9.93 C
3711 28-05-2019 21:10:00 13.3 C 79 % 9.74 C
3712 28-05-2019 21:15:00 13.2 C 79 % 9.64 C
3713 28-05-2019 21:20:00 13.2 C 80 % 9.83 C
3714 28-05-2019 21:25:00 13.1 C 81 % 9.92 C
3715 28-05-2019 21:30:00 13.1 C 82 % 10.1 C
3716 28-05-2019 21:35:00 13 C 82 % 10 C
3717 28-05-2019 21:40:00 12.9 C 84 % 10.26 C
3718 28-05-2019 21:45:00 12.9 C 85 % 10.44 C
3719 28-05-2019 21:50:00 12.8 C 85 % 10.34 C
3720 28-05-2019 21:55:00 12.7 C 86 % 10.42 C
3721 28-05-2019 22:00:00 12.7 C 86 % 10.42 C
3722 28-05-2019 22:05:00 12.6 C 86 % 10.32 C
3723 28-05-2019 22:10:00 12.4 C 86 % 10.13 C
3724 28-05-2019 22:15:00 12.3 C 87 % 10.2 C
3725 28-05-2019 22:20:00 12.2 C 87 % 10.1 C
Sensor: Nr:Datum:Temp:Feuchte:Taupunkt:
Aussen-T/F 3726 28-05-2019 22:25:00 12.1 C 87 % 10 C
3727 28-05-2019 22:30:00 12 C 88 % 10.08 C
3728 28-05-2019 22:35:00 11.9 C 88 % 9.98 C
3729 28-05-2019 22:40:00 11.9 C 88 % 9.98 C
3730 28-05-2019 22:45:00 11.9 C 89 % 10.15 C
3731 28-05-2019 22:50:00 11.9 C 89 % 10.15 C
3732 28-05-2019 22:55:00 11.9 C 89 % 10.15 C
3733 28-05-2019 23:00:00 11.9 C 90 % 10.31 C
3734 28-05-2019 23:05:00 11.9 C 90 % 10.31 C
3735 28-05-2019 23:10:00 11.8 C 89 % 10.05 C
3736 28-05-2019 23:15:00 11.8 C 89 % 10.05 C
3737 28-05-2019 23:20:00 11.8 C 89 % 10.05 C
3738 28-05-2019 23:25:00 11.8 C 89 % 10.05 C
3739 28-05-2019 23:30:00 11.7 C 89 % 9.95 C
3740 28-05-2019 23:35:00 11.7 C 89 % 9.95 C
3741 28-05-2019 23:40:00 11.7 C 89 % 9.95 C
3742 28-05-2019 23:45:00 11.7 C 88 % 9.78 C
3743 28-05-2019 23:50:00 11.8 C 87 % 9.71 C
3744 28-05-2019 23:55:00 11.8 C 87 % 9.71 C
3745 29-05-2019 00:00:00 11.8 C 87 % 9.71 C
3746 29-05-2019 00:05:00 11.7 C 86 % 9.44 C
3747 29-05-2019 00:10:00 11.8 C 85 % 9.36 C
3748 29-05-2019 00:15:00 11.8 C 85 % 9.36 C
3749 29-05-2019 00:20:00 11.8 C 84 % 9.19 C
3750 29-05-2019 00:25:00 11.8 C 85 % 9.36 C
Sensor: Nr:Datum:Temp:Feuchte:Taupunkt:
Aussen-T/F 3751 29-05-2019 00:30:00 11.8 C 85 % 9.36 C
3752 29-05-2019 00:35:00 11.7 C 86 % 9.44 C
3753 29-05-2019 00:40:00 11.6 C 86 % 9.34 C
3754 29-05-2019 00:45:00 11.6 C 87 % 9.51 C
3755 29-05-2019 00:50:00 11.6 C 87 % 9.51 C
3756 29-05-2019 00:55:00 11.5 C 87 % 9.41 C
3757 29-05-2019 01:00:00 11.6 C 87 % 9.51 C
3758 29-05-2019 01:05:00 11.6 C 87 % 9.51 C
3759 29-05-2019 01:10:00 11.6 C 87 % 9.51 C
3760 29-05-2019 01:15:00 11.7 C 86 % 9.44 C
3761 29-05-2019 01:20:00 11.7 C 86 % 9.44 C
3762 29-05-2019 01:25:00 11.8 C 87 % 9.71 C
3763 29-05-2019 01:30:00 11.8 C 87 % 9.71 C
3764 29-05-2019 01:35:00 11.8 C 86 % 9.54 C
3765 29-05-2019 01:40:00 11.8 C 87 % 9.71 C
3766 29-05-2019 01:45:00 11.8 C 86 % 9.54 C
3767 29-05-2019 01:50:00 11.8 C 86 % 9.54 C
3768 29-05-2019 01:55:00 11.8 C 87 % 9.71 C
3769 29-05-2019 02:00:00 11.9 C 87 % 9.81 C
3770 29-05-2019 02:05:00 11.9 C 87 % 9.81 C
3771 29-05-2019 02:10:00 11.8 C 86 % 9.54 C
3772 29-05-2019 02:15:00 11.8 C 86 % 9.54 C
3773 29-05-2019 02:20:00 11.8 C 86 % 9.54 C
3774 29-05-2019 02:25:00 11.9 C 86 % 9.64 C
3775 29-05-2019 02:30:00 11.9 C 86 % 9.64 C
Sensor: Nr:Datum:Temp:Feuchte:Taupunkt:
Aussen-T/F 3776 29-05-2019 02:35:00 11.9 C 85 % 9.46 C
3777 29-05-2019 02:40:00 11.9 C 85 % 9.46 C
3778 29-05-2019 02:45:00 11.9 C 85 % 9.46 C
3779 29-05-2019 02:50:00 11.9 C 85 % 9.46 C
3780 29-05-2019 02:55:00 11.9 C 85 % 9.46 C
3781 29-05-2019 03:00:00 11.8 C 86 % 9.54 C
3782 29-05-2019 03:05:00 11.8 C 86 % 9.54 C
3783 29-05-2019 03:10:00 11.8 C 87 % 9.71 C
3784 29-05-2019 03:15:00 11.8 C 87 % 9.71 C
3785 29-05-2019 03:20:00 11.7 C 87 % 9.61 C
3786 29-05-2019 03:25:00 11.7 C 88 % 9.78 C
3787 29-05-2019 03:30:00 11.6 C 87 % 9.51 C
3788 29-05-2019 03:35:00 11.6 C 88 % 9.68 C
3789 29-05-2019 03:40:00 11.6 C 87 % 9.51 C
3790 29-05-2019 03:45:00 11.5 C 87 % 9.41 C
3791 29-05-2019 03:50:00 11.6 C 87 % 9.51 C
3792 29-05-2019 03:55:00 11.6 C 87 % 9.51 C
3793 29-05-2019 04:00:00 11.6 C 86 % 9.34 C
3794 29-05-2019 04:05:00 11.6 C 86 % 9.34 C
3795 29-05-2019 04:10:00 11.6 C 86 % 9.34 C
3796 29-05-2019 04:15:00 11.6 C 86 % 9.34 C
3797 29-05-2019 04:20:00 11.6 C 86 % 9.34 C
3798 29-05-2019 04:25:00 11.5 C 86 % 9.24 C
3799 29-05-2019 04:30:00 11.4 C 86 % 9.14 C
3800 29-05-2019 04:35:00 11.4 C 87 % 9.32 C
Sensor: Nr:Datum:Temp:Feuchte:Taupunkt:
Aussen-T/F 3801 29-05-2019 04:40:00 11.3 C 87 % 9.22 C
3802 29-05-2019 04:45:00 11.3 C 87 % 9.22 C
3803 29-05-2019 04:50:00 11.2 C 87 % 9.12 C
3804 29-05-2019 04:55:00 11.2 C 87 % 9.12 C
3805 29-05-2019 05:00:00 11.2 C 87 % 9.12 C
3806 29-05-2019 05:05:00 11.2 C 87 % 9.12 C
3807 29-05-2019 05:10:00 11.2 C 87 % 9.12 C
3808 29-05-2019 05:15:00 11.2 C 87 % 9.12 C
3809 29-05-2019 05:20:00 11.1 C 87 % 9.02 C
3810 29-05-2019 05:25:00 11.1 C 87 % 9.02 C
3811 29-05-2019 05:30:00 11.1 C 86 % 8.85 C
3812 29-05-2019 05:35:00 11.1 C 87 % 9.02 C
3813 29-05-2019 05:40:00 11 C 86 % 8.75 C
3814 29-05-2019 05:45:00 11 C 86 % 8.75 C
3815 29-05-2019 05:50:00 10.9 C 86 % 8.65 C
3816 29-05-2019 05:55:00 10.9 C 86 % 8.65 C
3817 29-05-2019 06:00:00 10.9 C 86 % 8.65 C
3818 29-05-2019 06:05:00 10.9 C 87 % 8.82 C
3819 29-05-2019 06:10:00 10.9 C 86 % 8.65 C
3820 29-05-2019 06:15:00 10.9 C 87 % 8.82 C
3821 29-05-2019 06:20:00 10.8 C 86 % 8.56 C
3822 29-05-2019 06:25:00 10.8 C 87 % 8.73 C
3823 29-05-2019 06:30:00 10.9 C 87 % 8.82 C
3824 29-05-2019 06:35:00 10.8 C 87 % 8.73 C
3825 29-05-2019 06:40:00 10.9 C 87 % 8.82 C
Sensor: Nr:Datum:Temp:Feuchte:Taupunkt:
Aussen-T/F 3826 29-05-2019 06:45:00 10.9 C 86 % 8.65 C
3827 29-05-2019 06:50:00 10.9 C 86 % 8.65 C
3828 29-05-2019 06:55:00 10.9 C 87 % 8.82 C
3829 29-05-2019 07:00:00 10.9 C 86 % 8.65 C
3830 29-05-2019 07:05:00 10.9 C 86 % 8.65 C
3831 29-05-2019 07:10:00 10.8 C 86 % 8.56 C
3832 29-05-2019 07:15:00 10.8 C 86 % 8.56 C
3833 29-05-2019 07:20:00 10.8 C 87 % 8.73 C
3834 29-05-2019 07:25:00 10.8 C 87 % 8.73 C
3835 29-05-2019 07:30:00 10.8 C 86 % 8.56 C
3836 29-05-2019 07:35:00 10.8 C 85 % 8.38 C
3837 29-05-2019 07:40:00 10.8 C 86 % 8.56 C
3838 29-05-2019 07:45:00 10.8 C 86 % 8.56 C
3839 29-05-2019 07:50:00 10.8 C 86 % 8.56 C
3840 29-05-2019 07:55:00 10.8 C 86 % 8.56 C
3841 29-05-2019 08:00:00 10.9 C 86 % 8.65 C
3842 29-05-2019 08:05:00 10.9 C 85 % 8.48 C
3843 29-05-2019 08:10:00 11 C 85 % 8.58 C
3844 29-05-2019 08:15:00 11.1 C 85 % 8.68 C
3845 29-05-2019 08:20:00 11.1 C 85 % 8.68 C
3846 29-05-2019 08:25:00 11.2 C 84 % 8.6 C
3847 29-05-2019 08:30:00 11.3 C 84 % 8.7 C
3848 29-05-2019 08:35:00 11.3 C 83 % 8.52 C
3849 29-05-2019 08:40:00 11.4 C 84 % 8.8 C
3850 29-05-2019 08:45:00 11.4 C 82 % 8.44 C
Sensor: Nr:Datum:Temp:Feuchte:Taupunkt:
Aussen-T/F 3851 29-05-2019 08:50:00 11.5 C 82 % 8.54 C
3852 29-05-2019 08:55:00 11.6 C 83 % 8.81 C
3853 29-05-2019 09:00:00 11.7 C 82 % 8.73 C
3854 29-05-2019 09:05:00 11.7 C 82 % 8.73 C
3855 29-05-2019 09:10:00 11.8 C 82 % 8.83 C
3856 29-05-2019 09:15:00 11.9 C 81 % 8.75 C
3857 29-05-2019 09:20:00 12.1 C 81 % 8.94 C
3858 29-05-2019 09:25:00 12.2 C 80 % 8.86 C
3859 29-05-2019 09:30:00 12.3 C 80 % 8.95 C
3860 29-05-2019 09:35:00 12.4 C 79 % 8.86 C
3861 29-05-2019 09:40:00 12.6 C 80 % 9.25 C
3862 29-05-2019 09:45:00 12.6 C 79 % 9.06 C
3863 29-05-2019 09:50:00 12.7 C 79 % 9.16 C
3864 29-05-2019 09:55:00 12.7 C 79 % 9.16 C
3865 29-05-2019 10:00:00 12.7 C 78 % 8.97 C
3866 29-05-2019 10:05:00 12.8 C 80 % 9.44 C
3867 29-05-2019 10:10:00 12.9 C 77 % 8.97 C
3868 29-05-2019 10:15:00 13.2 C 73 % 8.47 C
3869 29-05-2019 10:20:00 13.6 C 70 % 8.24 C
3870 29-05-2019 10:25:00 13.9 C 70 % 8.53 C
3871 29-05-2019 10:30:00 14.2 C 70 % 8.81 C
3872 29-05-2019 10:35:00 14.3 C 68 % 8.48 C
3873 29-05-2019 10:40:00 14.5 C 68 % 8.67 C
3874 29-05-2019 10:45:00 14.6 C 67 % 8.55 C
3875 29-05-2019 10:50:00 14.6 C 66 % 8.33 C
Sensor: Nr:Datum:Temp:Feuchte:Taupunkt:
Aussen-T/F 3876 29-05-2019 10:55:00 14.7 C 66 % 8.42 C
3877 29-05-2019 11:00:00 14.8 C 66 % 8.52 C
3878 29-05-2019 11:05:00 14.7 C 65 % 8.2 C
3879 29-05-2019 11:10:00 14.8 C 65 % 8.29 C
3880 29-05-2019 11:15:00 14.8 C 66 % 8.52 C
3881 29-05-2019 11:20:00 14.9 C 64 % 8.16 C
3882 29-05-2019 11:25:00 15.1 C 66 % 8.8 C
3883 29-05-2019 11:30:00 15.2 C 63 % 8.21 C